[[[{"header":{"parameterUnit":"kt","parameterCategory":2,"dx":1,"dy":1,"la1":29.285339999999998,"la2":30.599998999999997,"lo1":-89.70041500000002,"lo2":-87.6738589999976,"nx":112,"ny":82,"refTime":"2022-10-17T06:00:00:Z","depth":0,"parameterNumber":1,"parameterNumberName":"U-component_of_WINDS"},"data":[21.4961,21.5968,21.6348,21.187,21.2098,0.0,20.8379,0.0,21.1113,0.0,0.0,0.0,0.0,0.0,0.0,0.0,0.0,0.0,0.0,20.7976,0.0,0.0,0.0,0.0,0.0,0.0,0.0,0.0,0.0,0.0,0.0,20.9536,20.9581,20.8984,21.1489,21.2854,21.2844,21.3798,21.4578,21.5178,21.5178,21.5374,21.5931,21.5931,21.6185,21.6765,21.6765,21.7144,21.7518,21.7518,21.849,22.0065,22.0065,22.0594,22.1192,21.849,21.7139,21.6765,21.6765,21.6765,21.6765,21.6765,21.6765,21.6765,21.6765,21.6765,21.7139,21.9238,22.0215,22.1417,22.4114,22.5316,22.569,22.6288,22.6443,22.6443,22.6443,22.3965,22.2015,22.2992,22.1043,21.9846,22.2015,22.3366,22.4344,22.4873,22.6657,22.7623,22.6662,22.6443,22.6443,22.6443,22.6443,22.6443,22.6443,22.6443,22.6443,22.6443,22.6443,22.6443,22.6443,22.6443,22.6443,22.6443,22.6443,22.6443,22.6443,22.6443,22.6443,22.6454,22.688,22.746,21.3461,21.3995,21.3843,21.0125,0.0,0.0,0.0,0.0,0.0,0.0,0.0,0.0,0.0,0.0,0.0,0.0,0.0,0.0,0.0,0.0,0.0,0.0,0.0,0.0,0.0,0.0,0.0,21.0549,21.2457,21.2655,20.9902,21.0352,21.0493,21.0552,21.3065,21.4212,21.3451,21.4572,21.5178,21.5178,21.5178,21.5374,21.5931,21.5931,21.6185,21.6765,21.6765,21.7144,21.7518,21.7518,21.849,21.9841,21.9238,21.9846,22.0439,21.7742,21.6765,21.6765,21.6765,21.6765,21.6765,21.6765,21.6765,21.6765,21.6765,21.6765,21.7139,21.9238,22.0215,22.1417,22.4114,22.5316,22.5845,22.6288,22.6443,22.6443,22.6443,22.3965,22.2015,22.2987,22.0594,21.9088,22.2015,22.3366,22.4344,22.4873,22.6651,22.7997,22.7404,22.6812,22.6662,22.7255,22.6812,22.6443,22.6443,22.6443,22.6443,22.6443,22.6443,22.6443,22.6443,22.6443,22.6443,22.6443,22.6443,22.6443,22.6443,22.6443,22.6443,22.647,22.7227,22.7837,0.0,0.0,0.0,20.7774,0.0,0.0,0.0,0.0,21.2251,0.0,0.0,0.0,0.0,0.0,0.0,0.0,0.0,0.0,0.0,0.0,0.0,0.0,0.0,0.0,0.0,21.3218,21.3841,20.8591,21.2655,21.459,21.3021,21.1289,21.1859,21.5372,21.3649,21.3445,21.5178,21.5178,21.5178,21.5178,21.5178,21.5368,21.5994,21.5994,21.6168,21.6749,21.6754,21.7507,21.9083,21.9088,22.0065,22.1192,21.9617,21.9093,21.8864,21.7293,21.6765,21.6765,21.6765,21.6765,21.6765,21.6765,21.6765,21.6765,21.6765,21.6765,21.7288,22.0594,22.0439,22.0215,22.5086,22.5316,22.4493,22.6064,22.6443,22.6443,22.6443,22.3965,22.1561,22.1561,21.9093,21.7288,21.8864,22.2015,22.4718,22.6294,22.6438,22.703,22.8814,22.7404,22.7036,22.8814,22.7404,22.6443,22.6443,22.6443,22.6443,22.6443,22.6443,22.6443,22.6443,22.6443,22.6443,22.6443,22.6443,22.6443,22.6443,22.6443,22.6443,22.6486,22.7638,22.8214,20.8381,0.0,0.0,0.0,0.0,0.0,0.0,0.0,0.0,0.0,0.0,0.0,0.0,0.0,0.0,0.0,0.0,21.5171,0.0,21.3607,0.0,0.0,0.0,21.3422,20.7374,20.8944,20.9158,20.6446,20.971,21.1128,20.9339,21.0889,21.2436,21.3401,21.4238,21.4807,21.5178,21.5178,21.5178,21.5178,21.5178,21.5345,21.5801,21.5801,21.5747,21.6135,21.6311,21.6766,21.715,21.7305,21.7742,21.8116,21.7518,21.7293,21.7293,21.692,21.6765,21.6765,21.6765,21.6765,21.6765,21.6765,21.6765,21.6765,21.6765,21.6765,21.7288,22.0594,22.1192,22.1791,22.5466,22.6064,22.5839,22.6288,22.6443,22.6443,22.6443,22.4867,22.3366,22.3366,22.1796,22.0819,22.2389,22.3521,22.4718,22.6294,22.7404,22.7997,22.7255,22.6662,22.6662,22.703,22.6662,22.6443,22.6443,22.6443,22.6443,22.6443,22.6443,22.6443,22.6443,22.6443,22.6443,22.6443,22.6443,22.6443,22.6443,22.6443,22.6443,22.6486,22.7638,22.8214,0.0,0.0,0.0,0.0,0.0,0.0,20.4511,0.0,20.952,0.0,0.0,0.0,0.0,0.0,0.0,0.0,21.403,21.4802,21.3614,21.4399,21.476,21.3992,21.2434,21.0499,20.7603,20.8385,20.8749,20.7602,21.0487,21.1904,21.0938,21.2641,21.36,21.36,21.4572,21.5178,21.5178,21.5178,21.5178,21.5178,21.5178,21.5389,21.5545,21.5545,21.5762,21.5943,21.619,21.6375,21.6317,21.6526,21.6765,21.6765,21.6765,21.6765,21.6765,21.6765,21.6765,21.6765,21.6765,21.6765,21.6765,21.6765,21.6765,21.692,21.7518,21.7742,21.8495,22.1796,22.2544,22.3142,22.5845,22.6443,22.6443,22.6443,22.6443,22.6443,22.6443,22.5321,22.4119,22.4119,22.2164,22.1187,22.3746,22.4119,22.4867,22.7255,22.7853,22.7997,22.8606,22.741,22.6662,22.7404,22.6812,22.6443,22.6443,22.6443,22.6443,22.6443,22.6443,22.6443,22.6443,22.6443,22.6443,22.6443,22.6443,22.6443,22.6443,22.6443,22.6641,22.6885,22.7844,22.8413,0.0,0.0,0.0,0.0,20.8153,0.0,0.0,0.0,0.0,21.2631,0.0,21.536,21.6955,0.0,0.0,21.3465,21.5171,21.5799,21.2847,21.6776,21.8487,21.4804,21.0133,20.7791,20.8775,20.9913,21.0341,21.014,21.3018,21.4956,21.4956,21.5024,21.5178,21.5178,21.5178,21.5178,21.5178,21.5178,21.5178,21.5178,21.5178,21.537,21.5577,21.5577,21.5554,21.5937,21.6187,21.6384,21.6348,21.6569,21.6749,21.6765,21.6739,21.6749,21.6765,21.6739,21.6749,21.6765,21.6765,21.6765,21.6765,21.6765,21.6765,21.6914,21.8266,21.8864,21.9841,22.3142,22.4119,22.4493,22.6064,22.6443,22.6443,22.6443,22.6443,22.6443,22.6443,22.5316,22.4344,22.4119,22.1796,22.0589,22.3895,22.4344,22.5086,22.8216,22.7404,22.7634,23.0758,22.8601,22.7404,22.9188,22.7853,22.6662,22.6662,22.6667,22.6443,22.6443,22.6443,22.6443,22.6443,22.6443,22.6443,22.6443,22.6443,22.6443,22.6443,22.6443,22.683,22.7412,22.8018,22.842,0.0,0.0,0.0,0.0,0.0,20.6027,0.0,0.0,0.0,21.3842,21.4601,21.536,21.6955,21.7335,21.7107,21.6576,21.7673,21.8299,21.7693,21.5556,21.325,21.0699,21.0679,21.0338,20.9154,20.8955,20.8758,20.8381,21.1298,21.3229,21.3229,21.4423,21.5178,21.5178,21.5178,21.5178,21.5178,21.5178,21.5178,21.5178,21.5178,21.5203,21.5172,21.5172,21.5352,21.5345,21.5587,21.5736,21.5942,21.6337,21.6537,21.6749,21.658,21.6542,21.6749,21.6574,21.6548,21.6765,21.6765,21.6765,21.6765,21.6765,21.6765,21.6765,21.7144,21.8116,21.9841,22.3142,22.4119,22.4493,22.6064,22.6443,22.6443,22.6443,22.6443,22.6443,22.6443,22.6294,22.5695,22.4344,22.3516,22.3746,22.5695,22.4867,22.4712,22.6662,22.6662,22.726,22.9188,22.8964,22.9188,23.0913,22.9567,22.8366,22.8366,22.7255,22.6443,22.6443,22.6443,22.6443,22.6443,22.6443,22.6443,22.6443,22.6443,22.6443,22.6443,22.6443,22.683,22.7412,22.8018,22.842,0.0,0.0,0.0,20.3145,0.0,0.0,0.0,0.0,21.0882,21.422,21.536,21.6954,21.9459,21.8473,21.7335,21.7335,21.6155,21.5566,21.6323,21.4008,21.1501,20.9899,20.9765,20.9534,20.8966,20.8769,20.9152,21.0344,21.264,21.4052,21.4052,21.4807,21.5178,21.5178,21.5178,21.5178,21.5178,21.5178,21.5178,21.5178,21.5178,21.5178,21.5178,21.5178,21.5178,21.5191,21.5362,21.5542,21.577,21.6146,21.636,21.6526,21.6338,21.651,21.6754,21.6574,21.6526,21.6765,21.6765,21.6765,21.6765,21.6765,21.6765,21.6765,21.6765,21.8495,22.1038,22.4344,22.4718,22.4493,22.6064,22.6443,22.6443,22.6443,22.6443,22.6443,22.6443,22.6443,22.6294,22.5471,22.5316,22.5466,22.6288,22.5845,22.5839,22.7399,22.7036,22.741,22.9936,22.9562,22.9556,23.1287,22.9936,22.8958,22.8958,22.7404,22.6443,22.6443,22.6443,22.6443,22.6443,22.6443,22.6443,22.6443,22.6443,22.6443,22.6443,22.6443,22.6818,22.7848,22.8004,22.8623,0.0,0.0,0.0,0.0,0.0,0.0,0.0,20.7773,21.149,21.498,21.6575,21.8093,22.0825,21.8852,21.6728,21.6728,21.4227,21.2457,21.3453,21.2694,21.1652,21.0701,20.9715,20.9135,20.9382,20.9584,21.0681,21.3262,21.4577,21.5401,21.5543,21.5401,21.5178,21.5178,21.5178,21.5178,21.5178,21.5178,21.5178,21.5178,21.5178,21.5178,21.5178,21.5178,21.5178,21.5191,21.5388,21.5577,21.5575,21.5988,21.6157,21.6157,21.6157,21.6369,21.6564,21.6564,21.6515,21.6712,21.6754,21.6765,21.6765,21.6765,21.6765,21.6765,21.6765,21.8869,22.1796,22.4718,22.5092,22.4873,22.6064,22.6443,22.6443,22.6443,22.6443,22.6443,22.6443,22.6443,22.6443,22.6443,22.6443,22.6443,22.6443,22.6443,22.6812,22.8216,22.7255,22.7634,23.054,22.9781,22.9556,23.1287,22.9936,22.8958,22.8958,22.7404,22.6443,22.6443,22.6443,22.6443,22.6443,22.6443,22.6443,22.6443,22.6443,22.6443,22.6443,22.6443,22.7033,22.8214,22.8214,22.8818,19.9653,19.882,19.8669,20.3524,0.0,0.0,21.1717,21.2856,21.3617,21.8323,21.8322,21.7486,21.7942,21.6347,21.4979,21.4979,21.4811,21.3822,21.2285,21.3082,21.3402,21.2292,21.3408,21.3422,21.1313,21.204,21.3598,21.5191,21.5166,21.5766,21.732,21.5989,21.5178,21.5178,21.5178,21.5178,21.5178,21.5178,21.5178,21.5178,21.5178,21.5178,21.5178,21.5178,21.5178,21.5178,21.5203,21.5345,21.5545,21.5605,21.5554,21.5554,21.5554,21.5787,21.5931,21.5931,21.6146,21.636,21.6702,21.6765,21.6765,21.6765,21.6765,21.6765,21.6765,21.7892,21.9686,22.1566,22.4114,22.6294,22.6443,22.6443,22.6443,22.6443,22.6443,22.6443,22.6443,22.6443,22.6443,22.6443,22.6443,22.6443,22.6443,22.6443,22.6438,22.6662,22.6667,22.703,22.8964,22.9188,22.9556,23.1287,22.9936,22.8958,22.8958,22.7404,22.6443,22.6443,22.6443,22.6443,22.6443,22.6443,22.6443,22.6443,22.6443,22.6443,22.6443,22.6443,22.7033,22.8214,22.8214,22.8818,19.9653,20.0034,20.0795,20.2917,0.0,0.0,21.0882,21.225,21.3238,21.6348,21.6347,21.5739,21.5739,21.4602,21.3463,21.3463,21.2629,21.2071,21.2059,21.2653,21.3268,21.3403,21.3648,21.3808,21.3258,21.3405,21.4034,21.5408,21.6126,21.6509,21.6367,21.5543,21.5178,21.5178,21.5178,21.5178,21.5178,21.5178,21.5178,21.5178,21.5178,21.5178,21.5178,21.5178,21.5178,21.5178,21.5178,21.516,21.5407,21.5407,21.5583,21.5752,21.5599,21.5793,21.6129,21.5983,21.5994,21.6118,21.6349,21.651,21.6526,21.6728,21.6765,21.6765,21.6765,21.849,22.0439,22.0215,22.3142,22.6443,22.6443,22.6443,22.6443,22.6443,22.6443,22.6443,22.6443,22.6443,22.6443,22.6443,22.6443,22.6443,22.6443,22.6443,22.6443,22.6443,22.6443,22.7036,22.8814,22.8958,22.9556,23.1287,22.9936,22.8958,22.8958,22.7404,22.6443,22.6443,22.6443,22.6443,22.6443,22.6443,22.6443,22.6443,22.6443,22.6443,22.6443,22.6443,22.6679,22.7226,22.7817,22.8818,19.9652,0.0,0.0,0.0,0.0,0.0,21.2099,21.3237,21.4223,21.5208,21.5208,21.46,21.4221,21.2856,21.1719,21.1719,21.1111,21.1111,21.2251,21.3238,21.4001,21.4561,21.4618,21.4777,21.5171,21.463,21.4819,21.6136,21.7129,21.7097,21.5995,21.5995,21.5543,21.5178,21.5178,21.5178,21.5178,21.5178,21.5178,21.5178,21.5178,21.5178,21.5178,21.5178,21.5178,21.5178,21.5178,21.5178,21.5178,21.5178,21.5394,21.5785,21.5595,21.5797,21.6153,21.5966,21.6166,21.6545,21.672,21.6906,21.6914,21.7145,21.7091,21.6765,21.7293,21.8719,22.0215,22.0439,22.2768,22.5316,22.6294,22.6443,22.6443,22.6443,22.6443,22.6443,22.6443,22.6443,22.6443,22.6443,22.6443,22.6443,22.6443,22.6443,22.6443,22.6443,22.6443,22.6812,22.8221,22.8216,22.882,22.9947,22.8969,22.8216,22.8216,22.726,22.6443,22.6443,22.6443,22.6443,22.6443,22.6443,22.6443,22.6443,22.6443,22.6443,22.6443,22.6443,22.6492,22.6854,22.7802,22.8818,0.0,0.0,0.0,20.8607,21.1112,21.3618,21.8476,21.8323,21.7107,21.7335,21.5968,21.4373,21.2858,21.1111,20.9972,20.9972,21.1264,21.2479,21.2479,21.5211,21.6957,21.6523,21.7484,21.7676,21.6701,21.6185,21.6318,21.7519,21.7697,21.7691,21.7697,21.7697,21.6955,21.5172,21.5178,21.5178,21.5178,21.5178,21.5178,21.5178,21.5178,21.5178,21.5178,21.5178,21.5178,21.5178,21.5178,21.5178,21.5178,21.5178,21.5185,21.5197,21.5191,21.5345,21.5563,21.5557,21.6753,21.8293,21.8299,21.8466,21.8667,21.8673,21.77,21.6914,21.849,21.8116,21.7892,22.2544,22.2998,22.2389,22.5695,22.6443,22.6443,22.6443,22.6443,22.6443,22.6443,22.6443,22.6443,22.6443,22.6443,22.6443,22.6443,22.6443,22.6443,22.6443,22.6443,22.6443,22.6438,22.6438,22.6438,22.6667,22.6667,22.6438,22.6438,22.6443,22.6443,22.6443,22.6443,22.6443,22.6443,22.6443,22.6443,22.6443,22.6443,22.6443,22.6443,22.6443,22.6815,22.7457,22.8007,22.8818,19.9426,20.193,20.5041,20.8985,21.2097,21.4374,21.6119,21.7715,21.8096,21.4831,21.4374,21.3994,21.1263,21.0352,20.9972,20.9972,21.0352,21.1111,21.2251,21.4222,21.5565,21.534,21.7349,21.7911,21.5746,21.6186,21.6334,21.5928,21.7103,21.7097,21.6144,21.7103,21.6955,21.5172,21.5178,21.5178,21.5178,21.5178,21.5178,21.5178,21.5178,21.5178,21.5178,21.5178,21.5178,21.5178,21.5178,21.5178,21.5178,21.5178,21.5352,21.5406,21.5166,21.5407,21.5595,21.5363,21.6508,21.8088,21.8258,21.9246,22.0461,22.0625,22.0237,22.0012,22.0594,22.1192,22.2015,22.3746,22.4493,22.5092,22.6294,22.6443,22.6443,22.6443,22.6443,22.6443,22.6443,22.6443,22.6443,22.6443,22.6443,22.6443,22.6443,22.6443,22.6443,22.6443,22.6443,22.6443,22.6443,22.6443,22.6443,22.6443,22.6443,22.6443,22.6443,22.6443,22.6443,22.6443,22.6443,22.6443,22.6443,22.6443,22.6443,22.6443,22.6443,22.6443,22.6443,22.6443,22.683,22.7412,22.8018,22.8583,19.9426,20.3143,20.7393,21.0125,21.3236,21.5739,21.5739,21.7335,21.7716,21.3465,21.3615,21.3841,21.0503,20.9972,20.9972,20.9972,20.9972,21.0352,21.1491,21.2856,21.3995,21.3995,21.6521,21.7323,21.5384,21.6157,21.6316,21.5344,21.6188,21.6361,21.5172,21.6138,21.6367,21.5178,21.5178,21.5178,21.5178,21.5178,21.5178,21.5178,21.5178,21.5178,21.5178,21.5178,21.5178,21.5178,21.5178,21.5178,21.5178,21.5178,21.5352,21.5394,21.516,21.5407,21.5595,21.537,21.6966,21.908,21.9285,22.0468,22.218,22.2341,22.1967,22.1823,22.241,22.2773,22.3521,22.4723,22.5316,22.569,22.6288,22.6443,22.6443,22.6443,22.6443,22.6443,22.6443,22.6443,22.6443,22.6443,22.6443,22.6443,22.6443,22.6443,22.6443,22.6443,22.6443,22.6443,22.6443,22.6443,22.6443,22.6443,22.6443,22.6443,22.6443,22.6443,22.6443,22.6443,22.6443,22.6443,22.6443,22.6443,22.6443,22.6443,22.6443,22.6443,22.6443,22.6443,22.6835,22.763,22.8042,22.8588,19.9426,20.4889,21.0351,21.2099,21.4983,21.7107,21.7107,21.7107,21.6348,21.301,21.3615,21.3614,21.0503,20.9972,20.9972,20.9972,20.9972,20.9972,20.9972,21.1491,21.2479,21.2251,21.4792,21.6163,21.5371,21.6182,21.6342,21.5566,21.5395,21.5178,21.5178,21.5178,21.5178,21.5178,21.5178,21.5178,21.5178,21.5178,21.5178,21.5178,21.5178,21.5178,21.5178,21.5178,21.5178,21.5178,21.5178,21.5178,21.5178,21.5178,21.5172,21.5401,21.5401,21.5389,21.575,21.5756,21.7876,22.0805,22.0852,22.2191,22.3917,22.3943,22.296,22.2196,22.3772,22.3158,22.2544,22.5695,22.5471,22.4493,22.6064,22.6443,22.6443,22.6443,22.6443,22.6443,22.6443,22.6443,22.6443,22.6443,22.6443,22.6443,22.6443,22.6443,22.6443,22.6443,22.6443,22.6443,22.6443,22.6443,22.6443,22.6443,22.6443,22.6443,22.6443,22.6443,22.6443,22.6443,22.6443,22.6443,22.6443,22.6443,22.6443,22.6443,22.6443,22.6443,22.6443,22.6443,22.7033,22.8214,22.8214,22.8818,20.0186,20.5648,21.0731,21.3462,21.4828,21.536,21.536,21.536,21.4601,21.1263,21.187,21.2478,21.0351,20.9972,20.9972,20.9972,20.9972,20.9972,20.9972,21.1491,21.21,21.0732,21.4408,21.6134,21.3806,21.5777,21.6734,21.5544,21.5395,21.5178,21.5178,21.5178,21.5178,21.5178,21.5178,21.5178,21.5178,21.5178,21.5178,21.5178,21.5178,21.5178,21.5178,21.5178,21.5178,21.5178,21.5178,21.5178,21.5178,21.5178,21.5995,21.7103,21.7103,21.7141,21.7296,21.8677,21.9833,22.0806,22.2202,22.3931,22.5466,22.5471,22.5321,22.5321,22.5701,22.5471,22.5471,22.6294,22.6294,22.5839,22.6288,22.6443,22.6443,22.6443,22.6443,22.6443,22.6443,22.6443,22.6443,22.6443,22.6443,22.6443,22.6443,22.6443,22.6443,22.6443,22.6443,22.6443,22.6443,22.6443,22.6443,22.6443,22.6443,22.6443,22.6443,22.6443,22.6443,22.6443,22.6443,22.6443,22.6443,22.6443,22.6443,22.6443,22.6443,22.6443,22.6443,22.6443,22.7033,22.8214,22.8214,22.8818,19.9048,20.4889,21.0503,21.3008,21.3843,21.3843,21.3843,21.3843,21.3008,21.0503,21.0732,21.1111,21.0124,20.9972,20.9972,20.9972,20.9972,20.9972,20.9972,21.0732,21.0883,21.0124,21.3615,21.5382,21.3054,21.577,21.6949,21.5797,21.5395,21.5178,21.5178,21.5178,21.5178,21.5178,21.5178,21.5178,21.5178,21.5178,21.5178,21.5178,21.5178,21.5178,21.5178,21.5178,21.5178,21.5178,21.5178,21.5178,21.5178,21.5178,21.5773,21.6583,21.6583,21.7103,21.7884,21.9036,22.0264,22.1811,22.3157,22.4711,22.6103,22.6231,22.6283,22.6443,22.6443,22.6443,22.6443,22.6443,22.6443,22.6443,22.6443,22.6443,22.6443,22.6443,22.6443,22.6443,22.6443,22.6443,22.6443,22.6443,22.6443,22.6443,22.6443,22.6443,22.6443,22.6443,22.6443,22.6443,22.6443,22.6443,22.6443,22.6443,22.6443,22.6443,22.6443,22.6443,22.6443,22.6443,22.6443,22.6443,22.6443,22.6443,22.6443,22.6443,22.6443,22.6443,22.6443,22.6689,22.7444,22.822,22.838,22.8985,19.867,20.4131,21.0125,21.225,21.2631,21.2631,21.301,21.2631,21.1719,21.0504,21.0352,21.0124,20.9972,20.9972,20.9972,20.9972,20.9972,20.9972,20.9972,20.9972,20.9972,20.9972,21.2628,21.4032,21.3032,21.56,21.6766,21.5799,21.5344,21.5178,21.5178,21.5178,21.5178,21.5178,21.5178,21.5178,21.5178,21.5178,21.5178,21.5178,21.5178,21.5178,21.5178,21.5178,21.5178,21.5178,21.5178,21.5178,21.5178,21.5178,21.5401,21.555,21.5543,21.6515,21.807,21.8475,22.0396,22.2947,22.3719,22.4912,22.6048,22.6247,22.6443,22.6443,22.6443,22.6443,22.6443,22.6443,22.6443,22.6443,22.6443,22.6443,22.6443,22.6443,22.6443,22.6443,22.6443,22.6443,22.6443,22.6443,22.6443,22.6443,22.6443,22.6443,22.6443,22.6443,22.6443,22.6443,22.6443,22.6443,22.6443,22.6443,22.6443,22.6443,22.6443,22.6443,22.6443,22.6443,22.6443,22.6443,22.6443,22.6443,22.6443,22.6443,22.6443,22.6443,22.6443,22.7015,22.7606,22.823,22.88,22.9395,20.5876,20.7773,20.8988,21.3235,21.3464,21.3238,21.597,21.3236,21.0732,21.1871,21.21,21.1719,21.0124,20.9972,20.9972,20.9972,20.9972,20.9972,20.9972,20.9972,20.9972,20.9972,21.1719,21.3062,21.3818,21.4822,21.5798,21.6539,21.5765,21.5178,21.5178,21.5178,21.5178,21.5178,21.5178,21.5178,21.5178,21.5178,21.5178,21.5178,21.5178,21.5178,21.5178,21.5178,21.5178,21.5178,21.5178,21.5178,21.5178,21.5178,21.5989,21.7326,21.7301,21.8268,21.9843,22.1593,22.2352,22.2967,22.4705,22.549,22.5912,22.6079,22.6283,22.6443,22.6443,22.6443,22.6443,22.6443,22.6443,22.6443,22.6443,22.6443,22.6443,22.6443,22.6443,22.6443,22.6443,22.6443,22.6443,22.6443,22.6443,22.6443,22.6443,22.6443,22.6443,22.6443,22.6443,22.6443,22.6443,22.6443,22.6443,22.6443,22.6443,22.6443,22.6443,22.6443,22.6443,22.6443,22.6443,22.6443,22.6443,22.6443,22.6443,22.6443,22.6443,22.6443,22.6443,22.7015,22.7606,22.823,22.88,22.9395,20.1931,20.4662,20.6862,21.0126,21.1719,21.2858,21.4376,21.3615,21.3007,21.4603,21.4223,21.3236,21.1491,21.1264,21.0883,21.0124,20.9972,20.9972,20.9972,20.9972,20.9972,20.9972,21.1491,21.2819,21.3646,21.4385,21.5365,21.6332,21.5587,21.5178,21.5178,21.5178,21.5178,21.5178,21.5178,21.5178,21.5178,21.5178,21.5178,21.5178,21.5178,21.5178,21.5178,21.5178,21.5178,21.5178,21.5178,21.5178,21.5178,21.5178,21.5543,21.6354,21.6348,21.789,22.022,22.1007,22.2399,22.3959,22.5125,22.5456,22.5513,22.5898,22.6053,22.6283,22.6443,22.6443,22.6443,22.6443,22.6443,22.6443,22.6443,22.6443,22.6443,22.6443,22.6443,22.6443,22.6443,22.6443,22.6443,22.6443,22.6443,22.6443,22.6443,22.6443,22.6443,22.6443,22.6443,22.6443,22.6443,22.6443,22.6443,22.6443,22.6443,22.6443,22.6443,22.6443,22.6443,22.6443,22.6443,22.6443,22.6443,22.6443,22.6443,22.6443,22.6443,22.6443,22.6443,22.7421,22.8015,22.8236,22.9163,22.9533,19.8669,20.2386,20.5876,20.7622,20.9899,21.2251,21.3238,21.4374,21.5587,21.6575,21.5739,21.4373,21.3237,21.2478,21.1719,21.0732,21.0124,20.9972,20.9972,20.9972,20.9972,20.9972,21.1094,21.2248,21.3591,21.4229,21.4958,21.6376,21.5546,21.5178,21.5178,21.5178,21.5178,21.5178,21.5178,21.5178,21.5178,21.5178,21.5178,21.5178,21.5178,21.5178,21.5178,21.5178,21.5178,21.5178,21.5178,21.5178,21.5178,21.5178,21.5178,21.5178,21.5178,21.7141,22.0063,22.0075,22.2173,22.4896,22.528,22.5304,22.5283,22.5903,22.6043,22.6053,22.6443,22.6443,22.6443,22.6443,22.6443,22.6443,22.6443,22.6443,22.6443,22.6443,22.6443,22.6443,22.6443,22.6443,22.6443,22.6443,22.6443,22.6443,22.6443,22.6443,22.6443,22.6443,22.6443,22.6443,22.6443,22.6443,22.6443,22.6443,22.6443,22.6443,22.6443,22.6443,22.6443,22.6443,22.6443,22.6443,22.6443,22.6443,22.6443,22.6443,22.6443,22.6443,22.6443,22.761,22.8214,22.824,22.9402,22.9934,20.4664,20.6789,20.7622,20.9366,20.9972,21.1263,21.5741,21.6955,21.6728,21.536,0.0,21.4827,21.4601,21.2097,21.0732,21.21,21.0883,20.9972,20.9972,20.9972,20.9972,20.9972,20.9969,21.11,21.4243,21.3209,21.3818,21.6966,21.5947,21.5178,21.5178,21.5178,21.5178,21.5178,21.5178,21.5178,21.5178,21.5178,21.5178,21.5178,21.5178,21.5178,21.5178,21.5178,21.5178,21.5178,21.5178,21.5178,21.5178,21.5178,21.5178,21.5178,21.5178,21.7117,22.0016,22.0033,22.2173,22.4896,22.528,22.5271,22.528,22.5894,22.6092,22.6053,22.6443,22.6443,22.6443,22.6443,22.6443,22.6443,22.6443,22.6443,22.6443,22.6443,22.6443,22.6443,22.6443,22.6443,22.6443,22.6443,22.6443,22.6443,22.6443,22.6443,22.6443,22.6443,22.6443,22.6443,22.6443,22.6443,22.6443,22.6443,22.6443,22.6443,22.6443,22.6443,22.6443,22.6443,22.6443,22.6443,22.6443,22.6443,22.6443,22.6443,22.6443,22.6443,22.6443,22.761,22.8214,22.824,22.9402,22.9934,19.5329,19.9048,20.1932,20.4663,20.762,21.0732,21.3616,21.4376,21.4375,21.4828,21.5587,21.574,21.3844,21.3007,21.2476,21.1111,21.0352,20.9972,20.9972,20.9972,20.9952,20.9737,20.9535,21.0728,21.402,21.3025,21.3651,21.6911,21.5997,21.5178,21.5178,21.5178,21.5178,21.5178,21.5178,21.5178,21.5178,21.5178,21.5178,21.5178,21.5178,21.5178,21.5178,21.5178,21.5178,21.5178,21.5178,21.5178,21.5178,21.5178,21.5178,21.5178,21.5178,21.7117,22.0028,22.0033,22.2173,22.4896,22.5125,22.5125,22.528,22.5671,22.5865,22.6053,22.6443,22.6443,22.6443,22.6443,22.6443,22.6443,22.6443,22.6443,22.6443,22.6443,22.6443,22.6443,22.6443,22.6443,22.6443,22.6443,22.6443,22.6443,22.6443,22.6443,22.6443,22.6443,22.6443,22.6443,22.6443,22.6443,22.6443,22.6443,22.6443,22.6443,22.6443,22.6443,22.6443,22.6443,22.6443,22.6443,22.6443,22.6443,22.6443,22.6443,22.6443,22.6443,22.6443,22.761,22.8214,22.824,22.9402,22.9934,18.9561,19.3584,19.7531,20.0794,20.4662,20.8153,21.0506,21.0506,21.0884,21.3615,21.4602,21.483,21.3464,21.3236,0.0,21.0883,21.0732,21.0504,20.9972,20.9972,20.9938,20.9521,20.9548,21.0482,21.3036,21.2858,21.3426,21.5938,21.5781,21.535,21.5191,21.5178,21.5178,21.5178,21.5178,21.5178,21.5178,21.5178,21.5178,21.5178,21.5178,21.5178,21.5178,21.5178,21.5178,21.5178,21.5178,21.5178,21.5178,21.5178,21.5178,21.5178,21.5178,21.6962,21.9483,21.9878,22.1789,22.435,22.4734,22.5125,22.5258,22.5664,22.5879,22.6053,22.6443,22.6443,22.6443,22.6443,22.6443,22.6443,22.6443,22.6443,22.6443,22.6443,22.6443,22.6443,22.6443,22.6443,22.6443,22.6443,22.6443,22.6443,22.6443,22.6443,22.6443,22.6443,22.6443,22.6443,22.6443,22.6443,22.6443,22.6443,22.6443,22.6443,22.6443,22.6443,22.6443,22.6443,22.6443,22.6443,22.6443,22.6443,22.6443,22.6443,22.6443,22.6443,22.6443,22.761,22.8214,22.824,22.9402,22.9934,19.1987,19.3657,19.5707,19.9045,20.1172,20.3298,20.6637,20.6255,20.6406,21.1492,21.1111,21.0882,21.422,21.2097,0.0,21.21,21.2479,21.1871,21.0124,20.9972,20.9938,20.9521,20.9387,20.9905,21.1521,21.2428,21.342,21.4606,21.5545,21.5977,21.5216,21.5178,21.5178,21.5178,21.5178,21.5178,21.5178,21.5178,21.5178,21.5178,21.5178,21.5178,21.5178,21.5178,21.5178,21.5178,21.5178,21.5178,21.5178,21.5178,21.5178,21.5178,21.5178,21.6188,21.7934,21.9488,22.1243,22.2793,22.435,22.5125,22.5306,22.5656,22.5893,22.6053,22.6443,22.6443,22.6443,22.6443,22.6443,22.6443,22.6443,22.6443,22.6443,22.6443,22.6443,22.6443,22.6443,22.6443,22.6443,22.6443,22.6443,22.6443,22.6443,22.6443,22.6443,22.6443,22.6443,22.6443,22.6443,22.6443,22.6443,22.6443,22.6443,22.6443,22.6443,22.6443,22.6443,22.6443,22.6443,22.6443,22.6443,22.6443,22.6443,22.6443,22.6443,22.6443,22.6443,22.761,22.8214,22.824,22.9402,22.9934,18.5082,18.9255,19.4037,19.7302,20.0187,20.3298,20.6637,20.7773,20.8758,21.0352,21.0352,21.0503,21.2857,0.0,0.0,0.0,21.2479,21.1871,21.0124,20.9972,20.9761,20.9548,20.9322,20.9928,21.1304,21.2237,21.3424,21.4606,21.5551,21.5983,21.5216,21.5178,21.5178,21.5178,21.5178,21.5178,21.5178,21.5178,21.5178,21.5178,21.5178,21.5178,21.5178,21.5178,21.5178,21.5178,21.5178,21.5178,21.5178,21.5178,21.5178,21.5178,21.5178,21.6188,21.7885,21.9494,22.1188,22.2793,22.435,22.5125,22.5467,22.5667,22.6053,22.6283,22.6443,22.6443,22.6443,22.6443,22.6443,22.6443,22.6443,22.6443,22.6443,22.6443,22.6443,22.6443,22.6443,22.6443,22.6443,22.6443,22.6443,22.6443,22.6443,22.6443,22.6443,22.6443,22.6443,22.6443,22.6443,22.6443,22.6443,22.6443,22.6443,22.6443,22.6443,22.6443,22.6443,22.6443,22.6443,22.6443,22.6443,22.6443,22.6443,22.6443,22.6443,22.6443,22.6443,22.761,22.8214,22.824,22.9402,22.9934,18.364,18.7814,19.2443,19.6316,19.8822,20.1402,20.4664,20.5876,20.6405,20.7771,20.7999,20.8379,0.0,0.0,21.3463,21.1719,21.2478,21.2477,21.0351,20.9972,20.9764,20.956,20.9328,20.9706,21.0341,21.2094,21.3404,21.3636,21.5399,21.6118,21.516,21.5178,21.5178,21.5178,21.5178,21.5178,21.5178,21.5178,21.5178,21.5178,21.5178,21.5178,21.5178,21.5178,21.5178,21.5178,21.5178,21.5178,21.5178,21.5178,21.5178,21.5178,21.5178,21.5798,21.6962,21.9291,22.0651,22.2018,22.4114,22.528,22.5697,22.5667,22.6053,22.6443,22.6443,22.6443,22.6443,22.6443,22.6443,22.6443,22.6443,22.6443,22.6443,22.6443,22.6443,22.6443,22.6443,22.6443,22.6443,22.6443,22.6443,22.6443,22.6443,22.6443,22.6443,22.6443,22.6443,22.6443,22.6443,22.6443,22.6443,22.6443,22.6443,22.6443,22.6443,22.6443,22.6443,22.6443,22.6443,22.6443,22.6443,22.6443,22.6443,22.6443,22.6443,22.669,22.6875,22.781,22.8398,22.8606,22.9531,22.9934,18.5992,18.8346,19.1003,19.5558,19.7076,19.829,20.1402,20.0793,20.0639,20.3902,20.4661,20.4661,20.4889,20.8987,21.21,21.0732,21.3007,21.3994,21.0882,0.0,21.0317,20.9902,20.9764,20.9373,20.9173,21.1886,21.3272,21.2065,21.4996,21.6335,21.5185,21.5178,21.5178,21.5178,21.5178,21.5178,21.5178,21.5178,21.5178,21.5178,21.5178,21.5178,21.5178,21.5178,21.5178,21.5178,21.5178,21.5178,21.5178,21.5178,21.5178,21.5178,21.5178,21.5178,21.5568,21.8671,22.0032,22.0462,22.3729,22.5125,22.5697,22.5667,22.6053,22.6443,22.6443,22.6443,22.6443,22.6443,22.6443,22.6443,22.6443,22.6443,22.6443,22.6443,22.6443,22.6443,22.6443,22.6443,22.6443,22.6443,22.6443,22.6443,22.6443,22.6443,22.6443,22.6443,22.6443,22.6443,22.6443,22.6443,22.6443,22.6443,22.6443,22.6443,22.6443,22.6443,22.6443,22.6443,22.6443,22.6443,22.6443,22.6443,22.6443,22.6443,22.6443,22.681,22.7395,22.8004,22.8409,22.8994,22.953,22.9934,18.1366,18.5691,19.0169,19.1383,19.5557,19.9047,19.867,19.829,19.8441,20.064,20.193,20.3297,20.4661,20.8987,0.0,21.521,21.612,21.6576,21.5741,21.5589,21.5024,21.3626,21.2043,21.0736,20.9327,21.0912,21.1843,21.207,21.4026,21.5213,21.5185,21.5178,21.5178,21.5178,21.5178,21.5178,21.5178,21.5178,21.5178,21.5178,21.5178,21.5178,21.5178,21.5178,21.5178,21.5178,21.5178,21.5178,21.5178,21.5178,21.5178,21.5178,21.5178,21.5178,21.5407,21.7507,21.9096,22.0462,22.2564,22.435,22.5697,22.5897,22.6283,22.6443,22.6443,22.6443,22.6443,22.6443,22.6443,22.6443,22.6443,22.6443,22.6443,22.6443,22.6443,22.6443,22.6443,22.6443,22.6443,22.6443,22.6443,22.6443,22.6443,22.6443,22.6443,22.6443,22.6443,22.6443,22.6443,22.6443,22.6443,22.6443,22.6443,22.6443,22.6443,22.6443,22.6443,22.6443,22.6443,22.6443,22.6443,22.6443,22.6443,22.6443,22.6443,22.681,22.7395,22.8004,22.8409,22.8994,22.953,22.9934,18.1746,18.6526,19.0698,18.9104,19.2595,19.6161,19.5328,19.5176,19.5556,19.7301,19.882,20.0794,20.3297,20.6635,21.0353,21.4376,0.0,21.5588,21.4222,21.4414,21.4591,0.0,21.1673,21.0486,21.0301,21.0915,21.1706,21.244,21.3801,21.497,21.5546,21.5376,21.5178,21.5178,21.5178,21.5178,21.5178,21.5178,21.5178,21.5178,21.5178,21.5178,21.5178,21.5178,21.5178,21.5178,21.5178,21.5178,21.5178,21.5178,21.5178,21.5178,21.5178,21.5178,21.5407,21.6188,21.7481,21.9261,22.1989,22.4143,22.5657,22.6043,22.6283,22.6443,22.6443,22.6443,22.6443,22.6443,22.6443,22.6443,22.6443,22.6443,22.6443,22.6443,22.6443,22.6443,22.6443,22.6443,22.6443,22.6443,22.6443,22.6443,22.6443,22.6443,22.6443,22.6443,22.6443,22.6443,22.6443,22.6443,22.6443,22.6443,22.6443,22.6443,22.6443,22.6443,22.6443,22.6443,22.6443,22.6443,22.6443,22.6443,22.6443,22.6443,22.6443,22.6849,22.7802,22.7987,22.8599,22.9367,22.9731,22.9934,18.3718,18.8573,19.2062,18.8951,19.0317,19.229,19.1759,19.1683,19.2062,19.3506,19.5557,19.7911,20.1022,20.3525,20.6635,21.0734,21.3236,21.3994,0.0,0.0,21.3028,21.249,21.074,21.0146,21.1326,21.1119,21.1519,21.2657,21.3625,21.4774,21.595,21.5539,21.5178,21.5178,21.5178,21.5178,21.5178,21.5178,21.5178,21.5178,21.5178,21.5178,21.5178,21.5178,21.5178,21.5178,21.5178,21.5178,21.5178,21.5178,21.5178,21.5178,21.5178,21.5178,21.5178,21.5178,21.6188,21.7934,22.1014,22.3552,22.5513,22.5668,22.6053,22.6443,22.6443,22.6443,22.6443,22.6283,22.6283,22.6443,22.6443,22.6443,22.6443,22.6443,22.6443,22.6443,22.6443,22.6443,22.6443,22.6443,22.6443,22.6443,22.6443,22.6443,22.6443,22.6443,22.6443,22.6443,22.6443,22.6443,22.6443,22.6443,22.6443,22.6443,22.6443,22.6443,22.6443,22.6443,22.6443,22.6443,22.6443,22.6443,22.6443,22.6443,22.6443,22.7071,22.8214,22.8214,22.88,22.9934,22.9934,22.9934,18.2578,18.8497,19.4113,19.2138,19.2062,19.1683,18.8799,18.8192,18.8192,18.8497,19.214,19.5936,19.7683,20.2918,20.6788,20.6254,21.0882,21.5208,21.612,21.7705,21.7543,21.4807,21.265,21.1071,20.9719,20.9532,21.0315,21.2067,21.2258,21.3208,21.5207,21.5166,21.5178,21.5178,21.5178,21.5178,21.5178,21.5178,21.5178,21.5178,21.5178,21.5178,21.5178,21.5178,21.5178,21.5178,21.5178,21.5178,21.5178,21.5178,21.5178,21.5178,21.5178,21.5178,21.5178,21.5178,21.5568,21.6175,21.8076,22.1239,22.4129,22.4284,22.5283,22.6443,22.6443,22.6443,22.6283,22.4899,22.5513,22.6443,22.6443,22.6443,22.6443,22.6443,22.6443,22.6443,22.6443,22.6443,22.6443,22.6443,22.6443,22.6443,22.6443,22.6443,22.6443,22.6443,22.6443,22.6443,22.6443,22.6443,22.6443,22.6443,22.6443,22.6443,22.6443,22.6443,22.6443,22.6443,22.6443,22.6443,22.6443,22.6443,22.6443,22.6443,22.6443,22.7071,22.8214,22.8214,22.88,22.9934,22.9934,22.9934,18.6145,19.1231,19.5557,19.305,19.2442,19.1835,18.9332,18.8041,18.7662,18.8573,19.0623,19.2976,19.5557,20.0034,20.3903,20.5876,20.9517,21.3462,21.6728,21.7899,21.7158,21.3593,21.2472,21.1469,21.051,20.9561,20.9757,21.1477,21.1884,21.2866,21.476,21.4958,21.5178,21.5178,21.5178,21.5178,21.5178,21.5178,21.5178,21.5178,21.5178,21.5178,21.5178,21.5178,21.5178,21.5178,21.5178,21.5178,21.5178,21.5178,21.5178,21.5178,21.5178,21.5178,21.5178,21.5178,21.5407,21.5804,21.7507,21.9453,22.1176,22.2383,22.3125,22.3739,22.3739,22.3735,22.3943,22.4151,22.3894,22.4284,22.6053,22.5898,22.5513,22.6283,22.6443,22.6443,22.6443,22.6443,22.6443,22.6443,22.6443,22.6443,22.6443,22.6443,22.6443,22.6443,22.6443,22.6443,22.6443,22.6443,22.6443,22.6443,22.6443,22.6443,22.6443,22.6443,22.6443,22.6443,22.6443,22.6443,22.6443,22.6443,22.6443,22.6443,22.6443,22.7071,22.8214,22.8214,22.88,22.9934,22.9934,22.9934,19.1458,0.0,19.7302,19.4795,19.3884,19.305,0.0,18.9484,18.8724,18.9181,18.994,19.1458,19.4417,19.768,20.1399,20.6029,20.8607,21.1489,21.6119,21.6739,21.5586,21.2817,21.1676,21.126,21.1494,20.9904,20.9582,21.0932,21.127,21.2302,21.4198,21.4636,21.4801,21.5178,21.5178,21.5178,21.5178,21.5178,21.5178,21.5178,21.5178,21.5178,21.5178,21.5178,21.5178,21.5178,21.5178,21.5178,21.5178,21.5178,21.5178,21.5178,21.5178,21.5178,21.5178,21.5178,21.5568,21.5946,21.7309,21.7923,21.8516,22.0455,22.1187,22.1571,22.1571,22.1433,22.1207,22.2533,22.2388,22.2201,22.4696,22.4685,22.4514,22.5684,22.6294,22.6443,22.6443,22.6443,22.6443,22.6443,22.6443,22.6443,22.6443,22.6443,22.6443,22.6443,22.6443,22.6443,22.6443,22.6443,22.6443,22.6443,22.6443,22.6443,22.6443,22.6443,22.6443,22.6443,22.6443,22.6443,22.6443,22.6443,22.6443,22.6443,22.6443,22.7056,22.801,22.8206,22.8971,22.9934,22.9934,22.9934,0.0,19.9426,19.9653,19.9425,19.8061,19.6165,19.2974,19.2138,0.0,18.8193,19.0089,19.2822,19.4569,19.768,20.1018,20.4509,20.7771,21.111,21.4372,21.4974,21.4816,0.0,21.168,21.0334,21.1693,21.0153,20.9579,21.0491,21.0165,21.0924,21.3597,21.3217,21.36,21.5178,21.5178,21.5178,21.5178,21.5178,21.5178,21.5178,21.5178,21.5178,21.5178,21.5178,21.5178,21.5178,21.5178,21.5178,21.5178,21.5178,21.5178,21.5178,21.5178,21.5407,21.5568,21.5568,21.5798,21.6336,21.638,21.6765,21.7149,21.8681,22.0219,22.1602,22.1602,22.0459,21.9231,21.945,22.0402,22.1603,22.1769,22.296,22.4135,22.4338,22.5471,22.6443,22.6443,22.6443,22.6443,22.6443,22.6443,22.6443,22.6443,22.6443,22.6443,22.6443,22.6443,22.6443,22.6443,22.6443,22.6443,22.6443,22.6443,22.6443,22.6443,22.6443,22.6443,22.6443,22.6443,22.6443,22.6443,22.6443,22.6443,22.6443,22.6443,22.684,22.7397,22.8394,22.9368,22.9934,22.9934,22.9934,19.8819,20.064,20.0793,19.8821,19.7682,19.6544,19.3201,19.1608,19.047,18.9257,18.9104,19.0089,19.2898,19.5327,19.8667,20.3902,20.7771,21.111,21.4372,21.4827,21.5208,21.6119,21.4222,21.1896,21.0349,20.9379,20.8989,20.9332,20.9584,20.995,21.1136,21.2091,21.248,21.2046,21.2041,21.2071,21.2071,21.308,21.3625,21.3625,21.4634,21.5178,21.5178,21.5178,21.5178,21.5178,21.5178,21.5178,0.0,21.5178,21.5178,21.5407,21.5407,21.5568,21.5798,21.5731,21.5952,21.6381,21.6345,21.6535,21.6925,21.7539,21.8078,21.8468,21.8468,21.8078,21.7923,21.8852,21.8874,21.9051,22.1032,22.1241,22.1604,22.351,22.4493,22.5316,22.6294,22.6443,22.6443,22.6443,22.6443,22.6443,22.6443,22.6443,22.6443,22.6443,22.6443,22.6443,22.6443,22.6443,22.6443,22.6443,22.6443,22.6443,22.6443,22.6443,22.6443,22.6443,22.6443,22.6443,22.6443,22.6443,22.6443,22.6443,22.6443,22.681,22.7395,22.823,22.895,22.9934,22.9934,22.9934,19.8668,20.0186,20.1021,19.8669,19.8062,19.7302,19.3961,19.2368,19.1231,19.0093,18.903,18.9179,19.2594,19.4189,19.7073,20.375,20.6861,20.9972,21.422,21.4373,21.4602,21.6347,21.5389,21.3078,20.9581,20.8737,20.8586,20.8791,20.8797,20.8931,20.9531,21.0727,21.0879,20.9947,21.0159,21.0339,21.0339,21.1273,21.1849,21.1917,21.3625,21.4405,21.4405,21.5024,21.5178,21.5178,21.5178,21.5178,21.5178,21.5178,21.5407,21.56,21.5539,21.5738,21.613,21.6158,21.6151,21.6535,21.6535,21.6535,21.6765,21.6765,21.6765,21.6765,21.6765,21.6765,21.6925,21.8078,21.7539,21.7293,21.9467,21.9676,21.966,22.201,22.2992,22.3516,22.4718,22.5316,22.569,22.569,22.6064,22.6443,22.6443,22.6443,22.6443,22.6443,22.6443,22.6443,22.6443,22.6443,22.6443,22.6443,22.6443,22.6443,22.6443,22.6443,22.6443,22.6443,22.6443,22.6443,22.6443,22.6443,22.6443,22.6443,22.665,22.7057,22.7653,22.8207,22.9003,22.9934,22.9401,22.8794,19.6924,19.844,19.9804,19.9804,19.9804,19.9046,19.5707,19.4949,19.4038,19.0624,18.9941,19.0928,19.4341,19.4949,19.7073,20.375,20.4889,20.724,21.3841,21.3463,21.3009,21.4601,21.4827,21.3236,20.9705,20.8537,20.8203,20.8764,20.782,20.7806,20.9376,20.8982,20.876,20.8786,20.9764,21.0308,21.0308,21.0308,21.0331,21.029,21.1842,21.2622,21.269,21.4405,21.5178,21.5178,21.5178,21.5178,21.5178,21.5407,21.5575,21.5606,21.5958,21.6151,21.6381,21.6381,21.6535,21.6765,21.6765,21.6765,21.6765,21.6765,21.6765,21.6765,21.6765,21.6765,21.6765,21.6765,21.6765,21.6765,21.6765,21.7876,21.9062,21.9083,22.0445,22.1566,22.1566,22.2998,22.4119,22.4119,22.5316,22.6443,22.6443,22.6443,22.6443,22.6443,22.6443,22.6443,22.6443,22.6443,22.6443,22.6443,22.6443,22.6443,22.6443,22.6443,22.6443,22.6443,22.6443,22.6443,22.6443,22.6443,22.6443,22.6443,22.7071,22.7594,22.8217,22.879,22.9389,22.9934,22.8186,22.6441,19.7076,19.844,19.9804,19.9804,19.9804,19.9046,19.5707,0.0,19.4038,19.0624,18.9941,19.0928,19.4341,19.5936,19.8441,20.3902,20.7773,21.0505,21.1262,21.3007,21.3843,21.3237,21.2098,21.129,21.129,20.9955,20.8802,20.8176,20.7615,20.7397,20.7804,20.7375,20.684,20.6429,20.6821,20.6821,20.6821,20.7983,20.8566,20.8556,21.0114,21.1718,21.269,21.3235,21.4244,21.5407,21.5407,21.5568,21.5798,21.5798,21.5989,21.6165,21.6131,21.6381,21.6535,21.6535,21.6765,21.6765,21.6765,21.6765,21.6765,21.6765,21.6765,21.6765,21.6765,21.6765,21.6765,21.6765,21.6765,21.6765,21.6765,21.7139,21.7732,21.8864,21.9467,22.0215,22.1417,22.2015,22.2394,22.2394,22.2768,22.3366,22.4493,22.4873,22.5092,22.6288,22.6443,22.6443,22.6443,22.6443,22.6443,22.6443,22.6443,22.6443,22.6443,22.6443,22.6443,22.6443,22.6443,22.6443,22.6443,22.6443,22.6443,22.6443,22.7071,22.7055,22.6461,22.7037,22.6881,22.6443,22.5912,22.5305,19.6316,19.8061,19.9804,19.9804,19.9274,19.8288,19.6315,0.0,19.3354,19.1305,19.0926,19.176,19.4417,19.6695,19.9806,20.413,20.7393,20.9746,21.0732,21.149,21.2099,21.2479,21.0883,21.0316,21.0886,21.0118,20.8977,20.819,20.7586,20.7229,20.7219,20.6443,20.5839,20.5867,20.5653,20.5499,20.5499,20.6432,20.6821,20.6821,20.8601,20.976,21.0685,21.2047,21.3235,21.4423,21.5221,21.5546,21.5781,21.5936,21.6124,21.6381,21.6535,21.6535,21.6765,21.6765,21.6765,21.6765,21.6765,21.6765,21.6765,21.6765,21.6765,21.6765,21.6765,21.6765,21.6765,21.6765,21.6765,21.6765,21.6765,21.6765,21.6914,21.7892,21.8116,21.8495,21.9467,22.022,22.0594,22.0594,22.1192,22.2015,22.2992,22.3746,22.4493,22.5316,22.6064,22.6443,22.6443,22.6443,22.6443,22.6443,22.6443,22.6662,22.7404,22.6812,22.6443,22.6443,22.6443,22.6443,22.6443,22.5839,22.5466,22.5466,22.5711,22.5273,22.4721,22.546,22.5476,22.4926,22.4091,22.3938,19.4797,19.7073,19.9653,19.9653,19.844,19.7304,19.7304,0.0,19.2442,19.2442,19.229,19.2746,19.4569,19.768,20.0791,20.413,20.504,20.7013,21.1265,20.9519,20.8988,21.1872,21.0883,20.9939,20.9534,20.9512,20.9157,20.8404,20.7593,20.7185,20.7245,20.6042,20.5653,20.6271,20.5653,20.5499,20.5499,20.5499,20.5499,20.5499,20.705,20.7829,20.7977,21.0908,21.2251,21.2672,21.4587,21.5378,21.5537,21.6151,21.6381,21.6381,21.6765,21.6765,21.6765,21.6765,21.6765,21.6765,21.6765,21.6765,21.6765,21.6765,21.6765,21.6765,21.6765,21.6765,21.6765,21.6765,21.6765,21.6765,21.6765,21.6765,21.6765,21.6765,21.6765,21.6765,21.6765,21.7892,21.8864,21.8864,22.0065,22.1192,22.1417,22.2544,22.3746,22.4119,22.5316,22.6288,22.6443,22.6443,22.6438,22.6662,22.6662,22.7255,22.859,22.7404,22.6443,22.6294,22.6294,22.6294,22.6069,22.4718,22.3933,22.3938,22.3373,22.3164,22.2987,22.4094,22.4546,22.4318,22.2799,22.2191,19.2974,19.5328,19.791,19.791,19.7531,19.7304,19.7304,19.4797,0.0,19.2442,19.1381,19.1382,19.4417,19.768,20.0412,20.2538,20.7395,21.0354,20.8762,21.0127,21.1113,21.0504,21.0124,20.9965,20.9944,20.9715,20.9525,20.9371,20.8409,20.7833,20.7572,20.6419,20.5888,20.5888,20.5653,20.5499,20.5499,20.5653,20.5888,20.5888,20.6271,20.7204,20.8373,20.8931,21.0109,21.1694,21.3239,21.4246,21.4609,21.6151,21.6765,21.6765,21.6765,21.6765,21.6765,21.6765,21.6765,21.6765,21.6765,21.6765,21.6765,21.6765,21.6765,21.6765,21.6765,21.6765,21.6765,21.6765,21.6765,21.6765,21.6765,21.6765,21.6765,21.6765,21.6765,21.6765,21.6765,21.6914,21.7293,21.7293,21.7518,21.8116,21.9467,21.9836,22.1038,22.3746,22.4344,22.5092,22.6288,22.6443,22.7036,22.8216,22.8366,22.7997,22.7036,22.6662,22.5839,22.4718,22.4723,22.3965,22.2768,22.2394,22.2413,22.2738,22.2922,22.2733,22.1949,22.259,22.2192,22.098,22.0601,22.0449,19.2442,19.4265,19.6165,19.6165,19.5557,19.5176,19.5936,0.0,0.0,0.0,19.2976,19.29,19.4569,19.8287,20.102,20.1172,20.6256,20.914,20.6635,20.7773,20.876,20.876,20.876,20.8986,20.9972,20.9775,20.9705,20.9525,20.8978,20.8363,20.8194,20.741,20.6455,20.606,20.5653,20.5653,20.5653,20.5653,20.5666,20.5814,20.5814,20.6432,20.744,20.7983,20.8975,21.0128,21.169,21.2645,21.2838,21.3835,21.4379,21.4379,21.4379,21.4764,21.5383,21.4609,21.4764,21.5537,21.5537,21.5537,21.5383,21.4609,21.4379,21.4379,21.4379,21.4379,21.4379,21.4379,21.4379,21.4379,21.5383,21.5537,21.5767,21.6535,21.6765,21.6765,21.6765,21.6765,21.6765,21.6765,21.6765,21.6914,21.7892,21.8485,21.9686,22.1417,22.3142,22.4718,22.6294,22.5092,22.4712,22.6427,22.5898,22.5455,22.5316,22.4488,22.374,22.2992,22.2998,22.2544,22.1566,22.0985,22.079,22.1177,22.1225,22.1041,22.0413,22.0798,22.06,21.9842,21.9842,21.9842,19.191,19.3202,19.4569,19.4569,19.3505,19.2897,19.4569,19.343,0.0,0.0,19.4266,19.4266,19.4797,19.8288,20.0794,20.0412,20.4132,20.6408,20.504,20.504,20.5648,0.0,20.7244,20.8002,20.9366,20.9744,0.0,0.0,20.9153,20.8984,20.8757,20.8413,20.7417,20.6273,20.6227,20.6065,20.5888,20.5653,20.5683,20.6059,20.6057,20.6053,20.6207,20.7593,20.82,20.8368,21.0139,21.0888,21.0884,21.1503,21.1657,21.1657,21.1657,21.2431,21.3653,21.2235,21.2629,21.3818,21.3818,21.3792,21.3611,21.2106,21.1657,21.1657,21.1657,21.1657,21.1657,21.1657,21.1657,21.2041,21.3413,21.3787,21.424,21.5937,21.6321,21.6321,21.677,21.6765,21.6765,21.6765,21.6765,21.6765,21.6765,21.7892,21.8714,21.9088,22.1417,22.374,22.5471,22.3516,22.2544,22.3965,22.2998,22.2544,22.3516,22.2394,22.1417,22.1192,22.1192,22.1043,22.0819,21.9814,21.9449,21.9643,21.8888,21.8706,21.869,21.8848,21.8854,21.8854,21.8854,21.8854,18.9864,19.1457,19.2745,19.2745,19.2593,19.2897,19.4569,19.252,19.0699,19.2442,0.0,19.1459,19.4417,19.5556,19.7302,20.1401,0.0,20.504,20.4889,20.6255,20.6636,20.5268,20.6408,20.7396,20.7774,20.9138,20.9966,20.995,20.9735,20.9516,20.9136,20.8959,20.8373,20.6984,20.7037,20.6665,20.6048,20.6271,20.6268,20.6409,20.6611,20.6666,20.6666,20.6666,20.6835,20.7197,20.855,20.9348,20.9712,21.1098,21.1712,21.1712,21.1712,21.1871,21.2081,21.1668,21.1869,21.2101,21.2101,21.2064,21.2095,21.1656,21.1712,21.1712,21.1712,21.1712,21.1712,21.1712,21.1712,21.1697,21.185,21.2108,21.2462,21.4233,21.4622,21.4991,21.6321,21.6765,21.6765,21.6765,21.6765,21.6765,21.6765,21.692,21.7518,21.8864,21.9467,22.0445,22.2015,22.3142,22.3895,22.4119,22.3895,22.3372,22.2015,22.1796,22.1043,21.9467,21.9467,21.8869,21.7518,21.7731,21.8118,21.8495,21.7543,21.7153,21.7525,21.6183,21.536,21.536,21.536,21.536,18.7739,18.9712,19.1002,19.1002,19.1002,19.1229,19.1989,19.1685,19.1532,19.229,19.1835,0.0,19.3277,19.4341,19.5328,0.0,0.0,0.0,20.0641,20.1173,20.2159,0.0,20.4129,0.0,20.724,20.7998,20.8984,0.0,20.8984,20.8757,20.9516,20.9364,20.8733,20.8012,20.7598,20.7027,20.6243,20.6243,20.6243,20.6403,20.6638,20.6666,20.682,20.6666,20.6666,20.682,20.7438,20.7822,20.7977,20.875,20.8979,20.8979,20.8979,20.9522,21.0355,20.9342,20.9522,21.029,21.029,20.9772,20.8938,20.8949,20.8979,20.8979,20.8979,20.8979,20.8979,20.8979,20.8979,20.9188,21.01,21.0304,21.0683,21.2443,21.2822,21.3271,21.4986,21.536,21.5579,21.6546,21.6765,21.6765,21.6765,21.6765,21.6914,21.7742,21.849,21.9093,21.8864,21.9467,22.0071,22.0071,22.0071,21.9617,21.8864,21.8864,21.849,21.7892,21.7737,21.7515,21.7091,21.6748,21.6769,21.7349,21.6134,21.5802,21.5968,21.5208,21.4827,21.4827,21.4827,21.4827,18.5841,18.7359,18.8195,18.903,18.9257,18.9181,18.8727,18.9939,19.1,19.0621,19.0545,19.0621,0.0,0.0,0.0,19.305,19.5176,0.0,19.7304,19.7684,0.0,20.079,0.0,20.3292,20.5873,20.6402,0.0,20.8608,20.777,20.7997,20.9136,20.9364,20.9136,20.8604,20.7984,20.7438,20.682,20.6436,20.6436,20.6666,20.6666,20.6666,20.682,20.682,20.682,20.682,20.682,20.682,20.682,20.682,20.682,20.682,20.682,20.7593,20.8595,20.7209,20.7593,20.875,20.875,20.7822,20.682,20.682,20.682,20.682,20.682,20.682,20.682,20.682,20.682,20.7034,20.8355,20.8739,20.9133,21.0718,21.1097,21.1471,21.3271,21.365,21.4024,21.5205,21.5798,21.6177,21.6177,21.6546,21.6765,21.6765,21.7737,21.7892,21.6327,21.6546,21.6765,21.6765,21.6765,21.6765,21.6765,21.6765,21.6546,21.6177,21.6177,21.6173,21.5958,21.5351,21.5388,21.573,21.4768,21.4221,21.4221,21.3842,21.3614,21.3614,21.3614,21.3614,18.4099,18.3869,18.3488,18.6675,18.751,18.7131,18.5464,18.6449,18.7206,18.5616,18.5236,18.5767,0.0,0.0,18.9331,19.4038,19.4949,19.5557,19.7076,19.8672,19.9279,0.0,0.0,0.0,0.0,0.0,0.0,20.5045,20.6634,20.7389,20.7616,20.8984,20.9744,20.9136,20.8594,20.7977,20.7593,20.7054,20.682,20.682,20.682,20.682,20.682,20.682,20.682,20.682,20.682,20.682,20.682,20.682,20.682,20.682,20.682,20.682,20.7054,20.682,20.682,20.7054,20.7054,20.682,20.682,20.682,20.682,20.682,20.682,20.682,20.682,20.682,20.682,20.682,20.7044,20.7044,20.7423,20.9153,20.9527,20.9901,21.1471,21.185,21.185,21.1845,21.3271,21.4398,21.4398,21.5734,21.6765,21.6765,21.6765,21.6172,21.4622,21.5734,21.6765,21.6765,21.6765,21.6765,21.6765,21.6765,21.5948,21.4393,21.4398,21.3591,21.2066,21.2878,21.3424,21.3452,21.2855,21.2631,21.2631,21.0883,21.0124,21.0124,21.0124,21.0124,17.8861,17.9695,18.0302,18.4628,18.5766,18.5918,18.6373,18.7814,18.8498,18.6828,18.6524,18.6373,18.5842,18.5766,18.6374,18.8196,18.9409,19.0698,19.2293,19.4039,19.5557,19.7076,19.8287,20.0031,0.0,0.0,20.0408,20.1551,20.3144,20.466,20.5641,20.6401,20.7008,20.7616,20.7417,20.7371,20.7613,20.7438,20.7209,20.682,20.682,20.682,20.682,20.682,20.682,20.682,20.682,20.682,20.682,20.682,20.682,20.682,20.682,20.682,20.682,20.682,20.682,20.682,20.682,20.682,20.682,20.682,20.682,20.682,20.682,20.682,20.682,20.682,20.682,20.682,20.682,20.682,20.7049,20.7573,20.7802,20.8171,20.9746,21.012,21.0499,21.1471,21.2299,21.2673,21.2673,21.3042,21.341,21.341,21.341,21.3266,21.2673,21.3042,21.341,21.341,21.4382,21.4612,21.3635,21.4382,21.4393,21.2673,21.2673,21.2469,21.2243,21.1859,21.1892,21.2263,21.1266,21.0883,21.0883,21.0352,20.9972,20.9972,20.9972,20.9972,17.2485,17.4079,17.5825,17.9697,18.1897,18.3339,18.3944,18.5311,18.6223,18.5083,18.4855,18.4476,18.3339,18.3643,18.4021,18.4021,18.5387,18.7132,18.8802,19.0547,19.2597,19.5331,19.6161,19.7525,19.9652,19.7908,19.6921,19.8057,20.0185,20.1777,20.2378,20.3898,20.4886,20.5266,20.5642,20.6083,20.642,20.6609,20.6666,20.6207,20.6666,20.682,20.682,20.682,20.682,20.682,20.682,20.682,20.682,20.682,20.682,20.682,20.682,20.682,20.682,20.682,20.682,20.682,20.682,20.682,20.682,20.682,20.6436,20.6053,20.6666,20.6436,20.6053,20.6666,20.682,20.682,20.682,20.682,20.682,20.682,20.682,20.7199,20.8171,20.855,20.8774,20.9901,21.0499,21.0873,21.0873,21.1322,21.1696,21.1696,21.1696,21.1471,21.0868,21.1322,21.1845,21.2448,21.365,21.38,21.2673,21.365,21.3271,21.1102,21.1066,21.1081,21.091,21.034,21.0308,21.0876,21.0326,20.9972,20.9972,20.9972,20.9972,20.9972,20.9972,20.9972,16.5352,16.7247,17.0056,17.1803,17.5902,17.9014,17.757,17.8482,17.9697,17.9697,17.9773,17.9773,17.9773,18.1062,18.2198,18.2274,18.3642,18.5388,18.6979,18.8654,19.0402,19.2144,19.3808,19.479,19.479,19.4799,19.4952,19.4943,19.7905,19.9045,19.7297,20.1932,20.3908,20.2387,20.3291,20.4122,20.4122,20.4713,20.508,20.5051,20.6053,20.6666,20.6666,20.6666,20.6666,20.682,20.682,20.682,20.682,20.682,20.682,20.682,20.682,20.682,20.682,20.6666,20.6666,20.6666,20.6666,20.6666,20.6666,20.6666,20.5664,20.4662,20.6212,20.5669,20.4662,20.6436,20.682,20.682,20.682,20.682,20.682,20.682,20.682,20.682,20.682,20.682,20.682,20.682,20.8176,20.9377,20.9377,21.0499,21.1471,21.1471,21.1471,21.1102,20.9522,21.0724,21.2294,21.4024,21.4248,21.4248,21.4179,21.4179,21.2838,20.9557,20.9771,20.9343,20.7634,20.8568,20.9139,20.9139,20.9567,20.9972,20.9972,20.9744,20.9744,20.9744,20.9744,20.9744,16.6112,0.0,0.0,16.8009,16.9831,17.0969,17.1801,17.4232,17.6663,17.7874,17.9014,17.947,17.833,17.8481,17.9164,18.0304,18.1896,18.3186,18.364,18.5158,18.7359,19.0245,19.1003,19.0849,18.9633,19.1687,19.3131,19.3128,19.518,19.6165,19.555,19.6923,19.8672,20.0412,20.079,20.1928,20.4132,20.3876,20.3714,20.3352,20.3352,20.3352,20.3352,20.3352,20.389,20.5051,20.5051,20.5664,20.682,20.682,20.682,20.682,20.682,20.682,20.6666,20.4124,20.3352,20.3352,20.3352,20.3352,20.3352,20.3352,20.3735,20.4303,20.4919,20.5478,20.6207,20.6666,20.682,20.682,20.682,20.682,20.682,20.682,20.682,20.682,20.682,20.682,20.682,20.682,20.7199,20.7573,20.7573,20.7792,20.8171,20.8171,20.8171,20.8395,20.9148,20.9751,21.0494,21.2299,21.3421,21.3645,21.2448,21.2448,21.166,20.9903,20.8929,20.8195,20.8181,20.8802,20.9139,20.9139,20.8355,20.8154,20.8154,20.6862,20.6253,20.6253,20.6253,20.7013,15.6778,0.0,0.0,0.0,16.0041,16.1559,16.7479,16.9301,17.059,17.3697,17.6128,17.7269,17.5674,17.59,17.6962,0.0,17.962,18.0756,18.2122,18.3186,18.478,18.7515,18.7136,18.6602,18.637,18.8725,19.032,19.032,19.1917,19.2826,19.282,19.3509,19.4801,19.6695,19.7527,19.8665,20.0185,20.1172,20.1361,20.0785,20.1786,20.217,20.194,20.194,20.2558,20.3321,20.3312,20.389,20.4891,20.4891,20.4891,20.4891,20.4891,20.4891,20.4518,20.2753,20.1557,20.1014,20.1786,20.1557,20.1014,20.1786,20.217,20.2329,20.3135,20.3525,20.389,20.4662,20.4891,20.4891,20.5664,20.5843,20.5853,20.6601,20.682,20.682,20.682,20.682,20.682,20.682,20.682,20.682,20.682,20.682,20.682,20.682,20.7423,20.8171,20.9148,20.9901,21.0724,21.1471,21.3271,21.3637,21.2096,21.1459,21.0512,20.9545,20.8768,20.8356,20.8785,20.8561,20.8343,20.8343,20.6429,20.5271,20.5271,20.4283,20.3903,20.3903,20.3903,20.3297,14.1828,0.0,0.0,14.6913,14.7899,15.0708,0.0,0.0,16.1023,16.6253,17.0053,17.2184,17.1195,17.2559,17.4532,17.6584,17.7191,17.8481,18.1363,18.1974,18.2509,18.3876,18.3041,18.2885,18.4397,18.6067,18.7131,18.713,18.8649,18.9638,18.9638,19.1233,19.222,19.2448,19.3884,19.4791,19.4943,19.7299,19.8276,19.786,20.0439,20.1347,20.1192,20.1347,20.1347,20.1412,20.1537,20.1767,20.1767,20.1996,20.1996,20.1996,20.1996,20.1613,20.0786,20.0817,19.9808,19.8881,20.0374,19.9826,19.8881,20.042,20.0037,19.9232,20.082,20.0378,19.9447,20.12,20.1578,20.1738,20.3142,20.3491,20.4133,20.5629,20.6072,20.6222,20.6451,20.6601,20.6601,20.682,20.682,20.682,20.682,20.682,20.682,20.682,20.8171,20.9372,20.9522,21.0868,21.207,21.2294,21.3645,21.4055,21.2845,21.1117,20.9717,20.8769,20.8801,20.8928,20.8964,20.7833,20.7244,20.7244,20.3905,20.2387,20.216,20.1933,20.1781,20.1552,20.1552,19.9048,0.0,0.0,0.0,0.0,0.0,0.0,0.0,0.0,14.407,15.045,15.4408,15.7907,16.1699,16.4812,16.8231,17.2713,17.5673,17.7722,17.8329,17.9469,17.9926,17.9014,18.0913,18.2432,18.281,18.433,18.5315,18.5383,18.6902,18.7893,18.79,18.9489,19.1004,19.2372,19.2751,19.3585,19.4953,19.4573,19.4421,19.4357,19.5556,19.6104,19.6104,19.7264,19.7876,19.7876,19.9227,20.0054,20.0054,20.1369,20.1982,20.1982,20.1982,19.867,19.3967,19.4005,19.379,19.3506,19.3828,19.3777,19.3561,19.387,19.4795,19.5711,19.752,19.7664,19.7706,19.9466,19.8874,19.7898,19.8245,19.9475,20.0387,20.0829,20.1975,20.3325,20.4522,20.4901,20.527,20.6601,20.682,20.682,20.682,20.682,20.682,20.682,20.8171,20.9746,21.1097,21.2673,21.4243,21.5574,21.5942,21.5763,21.4574,21.2042,21.0741,21.089,20.8561,20.7202,20.779,20.6237,20.5496,20.5496,20.3297,20.178,20.0412,19.8821,19.7682,19.6315,19.6315,19.4418,0.0,0.0,0.0,0.0,0.0,0.0,0.0,0.0,0.0,0.0,0.0,14.942,0.0,0.0,16.1551,16.6561,17.0889,17.4002,17.4836,17.7114,17.833,17.757,17.8938,18.0229,18.0989,18.2584,18.357,18.3566,18.4401,18.5617,18.7289,18.736,18.8573,19.108,19.1157,19.1612,19.2448,19.2752,19.2696,19.2195,19.3442,19.374,19.3328,19.4099,19.4561,19.4561,19.5333,19.5721,19.5721,19.6721,19.7109,19.6885,19.5137,19.3562,19.194,19.1095,19.0787,19.0875,19.1751,19.1486,19.0941,19.1786,19.2637,19.3328,19.3253,19.3796,19.4561,19.4561,19.4603,19.4733,19.5552,19.6903,19.8248,19.8296,19.9427,20.0629,20.0629,20.1152,20.2129,20.2942,20.4512,20.5639,20.5639,20.4891,20.4667,20.5489,20.8021,21.0299,21.1874,21.4614,21.6174,21.6378,21.6374,21.5766,21.422,21.3022,21.1648,21.0331,20.7383,20.5845,20.6024,20.375,20.2384,20.2384,19.9045,19.6921,19.6161,19.5328,19.4038,19.2369,19.07,18.8574,0.0,0.0,0.0,0.0,0.0,0.0,0.0,0.0,0.0,0.0,0.0,0.0,0.0,0.0,0.0,15.9118,16.4739,16.9144,17.119,17.2937,17.4304,17.4912,17.5292,17.6127,17.7722,17.9394,18.0381,18.0381,18.1293,18.3037,18.5766,18.5232,18.6066,18.8877,18.8954,18.9105,18.9409,19.0701,19.1003,19.0445,19.206,0.0,19.1539,19.1922,19.2076,19.2076,19.2076,19.2076,19.2076,19.2076,19.1843,19.1249,18.7604,18.7812,18.9938,18.8625,18.8088,18.8317,18.9629,18.9242,18.8317,18.9704,19.0092,18.9938,18.8934,18.9539,0.0,18.9364,19.0037,19.1435,19.2786,19.4272,19.553,19.5534,19.6731,19.7707,19.6735,19.7703,19.9053,19.9432,20.175,20.3929,20.3929,20.2558,20.1983,20.3326,20.6989,21.0095,21.1319,21.5027,21.6716,21.5342,21.4961,21.4177,21.3014,21.3041,21.2108,20.953,20.685,20.4661,20.2916,19.9652,19.7908,19.7908,19.3657,19.1607,19.1987,19.1607,19.0621,18.8803,18.2808,17.9999,0.0,0.0,0.0,0.0,0.0,0.0,0.0,0.0,0.0,0.0,0.0,0.0,0.0,0.0,0.0,0.0,15.7986,16.429,16.7473,16.4507,16.3064,16.5952,16.7619,16.9136,17.0808,17.2556,17.3543,17.3543,17.7646,18.0229,18.0608,18.3336,0.0,0.0,0.0,18.6142,18.7662,18.7433,18.7776,18.8816,19.0096,19.0386,18.9827,19.1368,19.206,19.206,19.206,19.206,19.206,19.206,19.1135,18.9308,18.4578,18.2928,18.3226,18.2997,18.2997,18.2997,18.3151,0.0,0.0,18.3151,18.323,18.3534,18.4845,18.5348,18.5748,18.7125,18.7617,18.7762,18.7987,18.9169,19.0356,19.0375,19.1655,19.323,19.4586,19.6142,19.7703,19.9049,20.1007,20.2129,20.2129,20.1202,20.0409,20.0444,20.5075,20.8364,20.8211,21.1463,21.3828,21.3602,21.2303,0.0,21.1685,21.0534,20.9772,20.9931,20.8218,20.3752,19.6314,19.2824,19.1003,19.1003,18.9029,18.8724,19.0168,18.8724,18.7132,18.5085,16.983,16.5882,0.0,0.0,0.0,0.0,0.0,0.0,0.0,0.0,0.0,0.0,0.0,0.0,0.0,0.0,0.0,0.0,14.9487,15.3438,15.2983,15.3588,15.6091,16.141,16.2619,16.4134,16.6717,16.8465,16.945,16.9521,17.4155,17.7421,17.8406,18.1594,18.387,18.4783,18.4858,18.5238,18.5922,18.5689,18.5762,18.6058,18.6548,18.6389,18.5698,18.6389,18.6543,18.6315,18.6315,18.6315,18.6315,18.6315,18.5852,18.5021,0.0,0.0,0.0,0.0,18.2172,18.2172,18.2172,18.2172,18.2172,18.2172,18.2172,18.2097,18.1943,18.2465,18.3182,18.2976,18.3538,18.4247,18.4239,18.6187,18.7903,18.6949,18.8669,19.0239,18.9052,19.0837,19.2249,19.1066,19.4586,0.0,19.6296,19.5749,19.5941,19.7122,20.121,20.4917,20.6862,21.0353,21.2844,21.2844,21.2082,21.191,21.2108,20.9763,0.0,0.0,0.0,20.064,19.5176,19.2671,0.0,0.0,0.0,17.9012,17.9696,17.4155,0.0,0.0,16.2848,16.0117,0.0,0.0,0.0,0.0,0.0,0.0,0.0,0.0,0.0,0.0,0.0,0.0,0.0,0.0,0.0,0.0,0.0,14.3645,14.0767,14.3498,14.8129,15.4435,15.5566,15.67,15.9132,16.2171,16.3915,16.3981,16.9071,17.2715,17.3923,17.7115,17.9926,18.2053,18.2129,18.2813,18.418,18.4174,18.417,18.4241,18.4163,18.3637,18.2925,18.2752,18.2466,18.2158,18.2158,18.2158,18.2158,18.2158,18.185,18.1323,18.0007,17.7988,17.6213,17.8603,17.9452,17.9452,17.9452,17.9452,17.9527,17.9988,18.0142,17.9988,17.9298,18.0221,18.1264,18.0087,18.0962,18.2136,18.2145,18.3958,18.5523,18.4265,18.5757,18.6949,18.5093,18.6878,18.829,18.6355,18.8752,19.0828,18.9874,19.0473,19.1822,19.3905,19.7488,20.1173,20.4264,20.7572,20.9899,21.0354,20.9899,20.9899,21.0354,20.7243,20.5042,20.4282,20.1019,19.768,19.4416,19.176,18.88,18.5386,17.7722,17.2866,0.0,0.0,0.0,0.0,0.0,0.0,0.0,0.0,0.0,0.0,0.0,0.0,0.0,0.0,0.0,0.0,0.0,0.0,0.0,0.0,0.0,0.0,0.0,0.0,13.5373,13.5298,13.7273,14.2439,14.4331,14.5313,14.5465,15.1391,15.5339,15.5329,16.1407,16.52,16.5262,16.8452,17.1796,17.5139,17.5291,17.757,18.2357,18.2433,18.304,18.4256,18.378,18.3314,18.2912,18.2417,18.2139,18.2139,18.2139,18.2139,18.2139,18.2139,18.1215,17.9364,17.4587,17.2664,17.2585,17.2664,17.2739,17.2739,17.2739,17.2739,17.2971,17.4517,17.4978,17.5286,17.6907,17.8524,17.9892,17.9797,18.0927,18.2163,18.2167,18.2238,18.2242,18.2242,18.2317,18.2765,18.4345,18.6051,18.7687,18.9108,18.5677,18.277,18.3643,18.652,18.9378,19.1471,19.4954,0.0,19.9246,20.1353,20.3298,20.4889,20.3752,20.3297,20.4889,20.1929,20.0792,20.2387,19.9277,19.5936,19.2669,18.7739,18.3492,18.0153,17.8254,17.408,16.7555,0.0,0.0,0.0,0.0,0.0,0.0,0.0,0.0,0.0,0.0,0.0,0.0,0.0,0.0,0.0,0.0,0.0,0.0,0.0,0.0,0.0,0.0,0.0,0.0,0.0,13.3021,13.6978,13.7966,13.8266,13.8258,14.4259,14.7826,14.6753,15.5946,16.1108,16.0033,16.4135,16.7555,16.9834,16.9901,17.1796,17.5747,17.5747,17.6507,17.8102,17.9014,17.9249,17.8782,17.9499,17.9606,17.9219,17.783,17.7215,17.714,17.6134,17.4057,17.1407,16.9708,16.9094,16.9094,16.9094,16.9787,17.0713,17.0713,17.1482,17.2641,17.4257,17.4781,17.5057,17.6753,17.6907,17.6437,17.6482,17.6815,17.7232,17.7219,17.8943,18.0592,18.0592,18.1415,18.2013,18.1569,18.2686,18.3355,18.1705,18.0287,17.9493,18.0043,18.2952,18.5148,18.5134,18.9906,19.455,19.7502,20.0605,20.2917,20.4661,20.4281,20.4282,20.4889,20.0793,19.791,19.753,19.3203,18.9712,18.7512,18.4704,18.2654,18.1516,17.9848,17.1881,15.7387,0.0,0.0,0.0,0.0,0.0,0.0,0.0,0.0,0.0,0.0,0.0,0.0,0.0,0.0,0.0,0.0,0.0,0.0,0.0,0.0,0.0,0.0,0.0,0.0,0.0,0.0,13.2804,13.258,0.0,13.1432,13.5761,13.8491,13.802,14.6077,15.162,15.2903,15.6018,15.9664,16.3692,16.3832,16.5421,16.8764,16.9977,17.1191,17.2254,17.385,17.4697,17.4966,17.5656,17.6127,17.6213,17.475,17.3787,17.2936,16.9613,16.5793,16.2134,16.2134,16.1363,16.0513,16.1674,16.3137,16.4747,16.529,16.7112,16.9121,16.9428,16.8671,16.8187,17.0425,16.8733,16.6431,16.8155,16.9467,17.0766,17.2591,17.505,17.7157,17.7157,17.8349,17.9387,17.9018,17.9242,17.9013,17.7165,17.6578,17.6445,17.688,17.8769,18.0195,18.0214,18.4887,18.9878,19.4102,19.7682,20.0413,20.193,20.2158,20.2158,20.2158,19.753,19.4192,19.3204,18.8954,18.5766,18.4021,18.2882,18.0605,17.7039,17.4764,16.6266,0.0,0.0,0.0,0.0,0.0,0.0,0.0,0.0,0.0,0.0,0.0,0.0,0.0,0.0,0.0,0.0,0.0,0.0,0.0,0.0,0.0,0.0,0.0,0.0,0.0,0.0,0.0,12.9233,12.787,0.0,0.0,0.0,0.0,12.8981,13.2483,13.7271,14.3492,14.4099,14.7973,15.6179,15.6551,15.8217,16.1636,16.5047,16.679,16.6865,16.8308,16.9826,17.1493,17.1036,17.1792,17.3351,17.2885,17.1689,16.9598,16.2644,15.6723,15.1942,15.1729,14.9734,14.7416,15.0582,15.2805,15.4531,15.6475,15.9501,16.2232,16.0041,15.7377,15.5534,15.8309,15.4837,0.0,0.0,15.9094,16.2765,16.7716,17.0401,17.1905,17.2166,17.3355,17.4914,17.6568,17.5666,17.4704,17.519,17.3834,17.2597,17.2726,0.0,17.4007,17.6258,17.9694,18.3944,18.9105,19.2824,19.5557,19.7076,19.7076,19.7076,19.7076,19.2826,18.9941,18.9789,18.6678,18.4098,18.2274,18.1743,17.6963,16.7327,16.3381,0.0,0.0,0.0,0.0,0.0,0.0,0.0,0.0,0.0,0.0,0.0,0.0,0.0,0.0,0.0,0.0,0.0,0.0,0.0,0.0,0.0,0.0,0.0,0.0,0.0,0.0,11.2824,11.5557,12.3383,11.9509,11.6095,0.0,0.0,0.0,0.0,0.0,0.0,13.0067,13.2406,13.6427,14.236,14.3802,14.7216,15.2984,15.64,15.8751,16.0036,16.2772,16.4974,16.6644,16.7473,16.8813,17.0312,16.8637,16.6807,16.4211,15.4012,14.745,14.3394,13.9695,13.7735,13.727,13.9195,14.1085,14.3403,14.8516,15.2637,15.5209,15.2181,15.2069,15.2499,14.8693,0.0,0.0,0.0,0.0,15.0813,15.6099,16.0538,16.4604,16.858,16.9859,17.0612,17.229,17.2293,17.0351,16.4652,16.1194,15.7814,15.3115,15.6485,0.0,16.398,17.2561,18.0985,18.7206,19.2064,19.5176,19.5557,19.5557,19.5557,19.5557,19.3278,19.0697,18.8193,18.607,18.3567,18.0607,17.3245,16.7552,16.3685,0.0,0.0,0.0,0.0,0.0,0.0,0.0,0.0,0.0,0.0,0.0,0.0,0.0,0.0,0.0,0.0,0.0,0.0,0.0,0.0,0.0,0.0,0.0,0.0,0.0,0.0,0.0,10.7001,11.0698,11.6331,11.367,11.1012,0.0,0.0,0.0,0.0,0.0,0.0,0.0,0.0,0.0,13.1742,13.2876,13.5528,14.0001,14.5623,14.881,14.9865,15.4576,15.7766,15.9437,16.0188,16.178,16.4059,16.2691,15.8555,15.2171,14.5723,13.8701,13.1887,0.0,0.0,0.0,0.0,12.909,13.1235,13.5434,13.9317,14.1959,13.9126,0.0,0.0,0.0,0.0,0.0,0.0,0.0,14.3543,14.8551,15.5212,16.133,16.4296,16.5031,16.5538,16.7394,16.176,15.5411,15.2475,14.9787,14.6878,14.3333,14.5851,0.0,0.0,0.0,17.4837,18.3034,18.9787,19.3885,19.3885,19.3885,19.3885,19.3885,19.1608,18.9104,18.6449,18.4022,17.9848,17.3473,16.649,15.8446,0.0,0.0,0.0,0.0,0.0,0.0,0.0,0.0,0.0,0.0,0.0,0.0,0.0,0.0,0.0,0.0,0.0,0.0,0.0,0.0,0.0,0.0,0.0,0.0,0.0,0.0,0.0,0.0,0.0,10.7988,10.8613,0.0,0.0,0.0,0.0,0.0,0.0,0.0,0.0,0.0,0.0,0.0,0.0,0.0,12.361,12.5501,13.3403,13.7424,13.7717,14.3948,14.7898,14.9722,14.979,15.1838,15.5409,15.3509,0.0,13.829,13.6753,0.0,0.0,0.0,0.0,0.0,0.0,0.0,0.0,0.0,0.0,0.0,0.0,0.0,0.0,0.0,0.0,0.0,0.0,0.0,0.0,0.0,0.0,15.7177,15.7182,15.7875,15.8606,15.8822,14.6865,13.68,13.909,13.833,13.7191,0.0,0.0,0.0,0.0,0.0,0.0,17.7876,18.6752,19.2214,19.2442,19.2214,19.2214,19.2442,18.9558,18.6828,18.4629,18.0532,17.3853,16.4289,15.9661,0.0,0.0,0.0,0.0,0.0,0.0,0.0,0.0,0.0,0.0,0.0,0.0,0.0,0.0,0.0,0.0,0.0,0.0,0.0,0.0,0.0,0.0,0.0,0.0,0.0,0.0,0.0,0.0,0.0,0.0,0.0,0.0,0.0,0.0,0.0,0.0,0.0,0.0,0.0,0.0,0.0,0.0,0.0,0.0,0.0,0.0,0.0,0.0,0.0,0.0,12.9521,13.294,13.5903,13.5902,13.9244,14.4563,13.4761,13.1571,13.2631,12.4496,0.0,0.0,0.0,0.0,0.0,0.0,0.0,0.0,0.0,0.0,0.0,0.0,0.0,0.0,0.0,0.0,0.0,0.0,0.0,0.0,0.0,0.0,13.9109,13.9286,14.3638,14.5192,13.5868,0.0,0.0,0.0,0.0,0.0,0.0,0.0,0.0,0.0,0.0,0.0,17.4462,18.4326,19.085,19.229,19.1229,19.0926,19.229,19.0622,18.7588,18.3034,17.446,16.6265,0.0,0.0,0.0,0.0,0.0,0.0,0.0,0.0,0.0,0.0,0.0,0.0,0.0,0.0,0.0,0.0,0.0,0.0,0.0,0.0,0.0,0.0,0.0,0.0,0.0,0.0,0.0,0.0,0.0,0.0,0.0,0.0,0.0,0.0,0.0,0.0,0.0,0.0,0.0,0.0,0.0,0.0,0.0,0.0,0.0,0.0,0.0,0.0,0.0,0.0,0.0,0.0,0.0,0.0,0.0,0.0,0.0,0.0,12.3222,11.7145,0.0,0.0,0.0,0.0,0.0,0.0,0.0,0.0,0.0,0.0,0.0,0.0,0.0,0.0,0.0,0.0,0.0,0.0,0.0,0.0,0.0,0.0,0.0,0.0,0.0,0.0,0.0,0.0,0.0,0.0,0.0,0.0,0.0,0.0,0.0,0.0,0.0,0.0,0.0,0.0,17.0893,18.182,18.9256,19.0926,19.0395,18.9864,18.9786,18.9104,18.4551,17.5142,16.7629,0.0,0.0,0.0,0.0,0.0,0.0,0.0,0.0,0.0,0.0,0.0,0.0,0.0,0.0,0.0,0.0,0.0,0.0,0.0,0.0,0.0,0.0,0.0,0.0,0.0,0.0,0.0,0.0,0.0,0.0,0.0,0.0,0.0,0.0,0.0,0.0,0.0,0.0,0.0,0.0,0.0,0.0,0.0,0.0,0.0,0.0,0.0,0.0,0.0,0.0,0.0,0.0,0.0,0.0,0.0,0.0,0.0,0.0,0.0,11.2701,10.4877,0.0,0.0,0.0,0.0,0.0,0.0,0.0,0.0,0.0,0.0,0.0,0.0,0.0,0.0,0.0,0.0,0.0,0.0,0.0,0.0,0.0,0.0,0.0,0.0,0.0,0.0,0.0,0.0,0.0,0.0,0.0,0.0,0.0,0.0,0.0,0.0,0.0,0.0,0.0,0.0,16.6942,17.9161,18.7663,18.9713,18.9258,18.8574,18.7965,18.7282,18.1288,16.8161,16.0724,0.0,0.0,0.0,0.0,0.0,0.0,0.0,0.0,0.0,0.0,0.0,0.0,0.0,0.0,0.0,0.0,0.0,0.0,0.0,0.0,0.0,0.0,0.0,0.0,0.0,0.0,0.0,0.0,0.0,0.0,0.0,0.0,0.0,0.0,0.0,0.0,0.0,0.0,0.0,0.0,0.0,0.0,0.0,0.0,0.0,0.0,0.0,0.0,0.0,0.0,0.0,0.0,0.0,0.0,0.0,0.0,0.0,0.0,0.0,0.0,0.0,0.0,0.0,0.0,0.0,0.0,0.0,0.0,0.0,0.0,0.0,0.0,0.0,0.0,0.0,0.0,0.0,0.0,0.0,0.0,0.0,0.0,0.0,0.0,0.0,0.0,0.0,0.0,0.0,0.0,0.0,0.0,0.0,0.0,0.0,0.0,0.0,0.0,0.0,0.0,0.0,16.223,17.6049,18.6299,18.9562,18.7133,18.6526,18.941,18.683,18.0,16.8086,0.0,0.0,0.0,0.0,0.0,0.0,0.0,0.0,0.0,0.0,0.0,0.0,0.0,0.0,0.0,0.0,0.0,0.0,0.0,0.0,0.0,0.0,0.0,0.0,0.0,0.0,0.0,0.0,0.0,0.0,0.0,0.0,0.0,0.0,0.0,0.0,0.0,0.0,0.0,0.0,0.0,0.0,0.0,0.0,0.0,0.0,0.0,0.0,0.0,0.0,0.0,0.0,0.0,0.0,0.0,0.0,0.0,0.0,0.0,0.0,0.0,0.0,0.0,0.0,0.0,0.0,0.0,0.0,0.0,0.0,0.0,0.0,0.0,0.0,0.0,0.0,0.0,0.0,0.0,0.0,0.0,0.0,0.0,0.0,0.0,0.0,0.0,0.0,0.0,0.0,0.0,0.0,0.0,0.0,0.0,0.0,0.0,0.0,0.0,0.0,0.0,0.0,16.1248,17.3846,18.3564,18.7966,18.6298,18.4554,18.3871,18.2581,17.4231,15.6469,0.0,0.0,0.0,0.0,0.0,0.0,0.0,0.0,0.0,0.0,0.0,0.0,0.0,0.0,0.0,0.0,0.0,0.0,0.0,0.0,0.0,0.0,0.0,0.0,0.0,0.0,0.0,0.0,0.0,0.0,0.0,0.0,0.0,0.0,0.0,0.0,0.0,0.0,0.0,0.0,0.0,0.0,0.0,0.0,0.0,0.0,0.0,0.0,0.0,0.0,0.0,0.0,0.0,0.0,0.0,0.0,0.0,0.0,0.0,0.0,0.0,0.0,0.0,0.0,0.0,0.0,0.0,0.0,0.0,0.0,0.0,0.0,0.0,0.0,0.0,0.0,0.0,0.0,0.0,0.0,0.0,0.0,0.0,0.0,0.0,0.0,0.0,0.0,0.0,0.0,0.0,0.0,0.0,0.0,0.0,0.0,0.0,0.0,0.0,0.0,0.0,0.0,15.8206,17.149,18.1513,18.5537,18.4401,18.2505,18.0077,17.8483,16.8994,14.8651,0.0,0.0,0.0,0.0,0.0,0.0,0.0,0.0,0.0,0.0,0.0,0.0,0.0,0.0,0.0,0.0,0.0,0.0,0.0,0.0,0.0,0.0,0.0,0.0,0.0,0.0,0.0,0.0,0.0,0.0,0.0,0.0,0.0,0.0,0.0,0.0,0.0,0.0,0.0,0.0,0.0,0.0,0.0,0.0,0.0,0.0,0.0,0.0,0.0,0.0,0.0,0.0,0.0,0.0,0.0,0.0,0.0,0.0,0.0,0.0,0.0,0.0,0.0,0.0,0.0,0.0,0.0,0.0,0.0,0.0,0.0,0.0,0.0,0.0,0.0,0.0,0.0,0.0,0.0,0.0,0.0,0.0,0.0,0.0,0.0,0.0,0.0,0.0,0.0,0.0,0.0,0.0,0.0,0.0,0.0,0.0,0.0,0.0,0.0,0.0,0.0,0.0,15.166,16.8601,18.0679,18.2426,18.1062,18.0002,18.0002,17.5371,16.5353,0.0,0.0,0.0,0.0,0.0,0.0,0.0,0.0,0.0,0.0,0.0,0.0,0.0,0.0,0.0,0.0,0.0,0.0,0.0,0.0,0.0,0.0,0.0,0.0,0.0,0.0,0.0,0.0,0.0,0.0,0.0,0.0,0.0,0.0,0.0,0.0,0.0,0.0,0.0,0.0,0.0,0.0,0.0,0.0,0.0,0.0,0.0,0.0,0.0,0.0,0.0,0.0,0.0,0.0,0.0,0.0,0.0,0.0,0.0,0.0,0.0,0.0,0.0,0.0,0.0,0.0,0.0,0.0,0.0,0.0,0.0,0.0,0.0,0.0,0.0,0.0,0.0,0.0,0.0,0.0,0.0,0.0,0.0,0.0,0.0,0.0,0.0,0.0,0.0,0.0,0.0,0.0,0.0,0.0,0.0,0.0,0.0,0.0,0.0,0.0,0.0,0.0,0.0,15.2272,16.328,17.3028,0.0,17.9986,17.7785,17.6647,17.2927,16.3068,14.5246,0.0,0.0,0.0,0.0,0.0,0.0,0.0,0.0,0.0,0.0,0.0,0.0,0.0,0.0,0.0,0.0,0.0,0.0,0.0,0.0,0.0,0.0,0.0,0.0,0.0,0.0,0.0,0.0,0.0,0.0,0.0,0.0,0.0,0.0,0.0,0.0,0.0,0.0,0.0,0.0,0.0,0.0,0.0,0.0,0.0,0.0,0.0,0.0,0.0,0.0,0.0,0.0,0.0,0.0,0.0,0.0,0.0,0.0,0.0,0.0,0.0,0.0,0.0,0.0,0.0,0.0,0.0,0.0,0.0,0.0,0.0,0.0,0.0,0.0,0.0,0.0,0.0,0.0,0.0,0.0,0.0,0.0,0.0,0.0,0.0,0.0,0.0,0.0,0.0,0.0,0.0,0.0,0.0,0.0,0.0,0.0,0.0,0.0,0.0,0.0,0.0,0.0,0.0,16.1457,17.1572,0.0,17.8352,17.653,17.4177,16.9772,15.9526,14.1688,0.0,0.0,0.0,0.0,0.0,0.0,0.0,0.0,0.0,0.0,0.0,0.0,0.0,0.0,0.0,0.0,0.0,0.0,0.0,0.0,0.0,0.0,0.0,0.0,0.0,0.0,0.0,0.0,0.0,0.0,0.0,0.0,0.0,0.0,0.0,0.0,0.0,0.0,0.0,0.0,0.0,0.0,0.0,0.0,0.0,0.0,0.0,0.0,0.0,0.0,0.0,0.0,0.0,0.0,0.0,0.0,0.0,0.0,0.0,0.0,0.0,0.0,0.0,0.0,0.0,0.0,0.0,0.0,0.0,0.0,0.0,0.0,0.0,0.0,0.0,0.0,0.0,0.0,0.0,0.0,0.0,0.0,0.0,0.0,0.0,0.0,0.0,0.0,0.0,0.0,0.0,0.0,0.0,0.0,0.0,0.0,0.0,0.0,0.0,0.0,0.0,0.0,0.0,16.1885,17.3807,17.4566,17.5933,17.5477,17.2212,16.591,15.5052,13.8271,12.9539,0.0,0.0,0.0,0.0,0.0,0.0,0.0,0.0,0.0,0.0,0.0,0.0,0.0,0.0,0.0,0.0,0.0,0.0,0.0,0.0,0.0,0.0,0.0,0.0,0.0,0.0,0.0,0.0,0.0,0.0,0.0,0.0,0.0,0.0,0.0,0.0,0.0,0.0,0.0,0.0,0.0,0.0,0.0,0.0,0.0,0.0,0.0,0.0,0.0,0.0,0.0,0.0,0.0,0.0,0.0,0.0,0.0,0.0,0.0,0.0,0.0,0.0,0.0,0.0,0.0,0.0,0.0,0.0,0.0,0.0,0.0,0.0,0.0,0.0,0.0,0.0,0.0,0.0,0.0,0.0,0.0,0.0,0.0,0.0,0.0,0.0,0.0,0.0,0.0,0.0,0.0,0.0,0.0,0.0,0.0,0.0,0.0,0.0,0.0,0.0,0.0,0.0,15.5963,16.2645,17.039,17.0466,16.9023,16.6973,16.181,15.2014,13.6448,12.8855,0.0,0.0,0.0,0.0,0.0,0.0,0.0,0.0,0.0,0.0,0.0,0.0,0.0,0.0,0.0,0.0,0.0,0.0,0.0,0.0,0.0,0.0,0.0,0.0,0.0,0.0,0.0,0.0,0.0,0.0,0.0,0.0,0.0,0.0,0.0,0.0,0.0,0.0,0.0,0.0,0.0,0.0,0.0,0.0,0.0,0.0,0.0,0.0,0.0,0.0,0.0,0.0,0.0,0.0,0.0,0.0,0.0,0.0,0.0,0.0,0.0,0.0,0.0,0.0,0.0,0.0,0.0,0.0,0.0,0.0,0.0,0.0,0.0,0.0,0.0,0.0,0.0,0.0,0.0,0.0,0.0,0.0,0.0,0.0,0.0,0.0,0.0,0.0,0.0,0.0,0.0,0.0,0.0,0.0,0.0,0.0,0.0,0.0,0.0,0.0,0.0,0.0,14.0852,15.0344,16.5075,16.7201,16.6214,16.3024,15.8772,14.9509,13.3715,12.6426,0.0,0.0,0.0,0.0,0.0,0.0,0.0,0.0,0.0,0.0,0.0,0.0,0.0,0.0,0.0,0.0,0.0,0.0,0.0,0.0,0.0,0.0,0.0,0.0,0.0,0.0,0.0,0.0,0.0,0.0,0.0,0.0,0.0,0.0,0.0,0.0,0.0,0.0,0.0,0.0,0.0,0.0,0.0,0.0,0.0,0.0,0.0,0.0,0.0,0.0,0.0,0.0,0.0,0.0,0.0,0.0,0.0,0.0,0.0,0.0,0.0,0.0,0.0,0.0,0.0,0.0,0.0,0.0,0.0,0.0,0.0,0.0,0.0,0.0,0.0,0.0,0.0,0.0,0.0,0.0,0.0,0.0,0.0,0.0,0.0,0.0,0.0,0.0,0.0,0.0,0.0,0.0,0.0,0.0,0.0,0.0,0.0,0.0,0.0,0.0,0.0,0.0,0.0,14.0321,15.7633,16.3176,16.3708,15.8924,15.5583,14.6927,13.0678,0.0,0.0,0.0,0.0,0.0,0.0,0.0,0.0,0.0,0.0,0.0,0.0,0.0,0.0,0.0,0.0,0.0,0.0,0.0,0.0,0.0,0.0,0.0,0.0,0.0,0.0,0.0,0.0,0.0,0.0,0.0,0.0,0.0,0.0,0.0,0.0,0.0,0.0,0.0,0.0,0.0,0.0,0.0,0.0,0.0,0.0,0.0,0.0,0.0,0.0,0.0,0.0,0.0,0.0,0.0,0.0,0.0,0.0,0.0,0.0,0.0,0.0,0.0,0.0,0.0,0.0,0.0,0.0,0.0,0.0,0.0,0.0,0.0,0.0,0.0,0.0,0.0,0.0,0.0,0.0,0.0,0.0,0.0,0.0,0.0,0.0,0.0,0.0,0.0,0.0,0.0,0.0,0.0,0.0,0.0,0.0,0.0,0.0,0.0,0.0,0.0,0.0,0.0,0.0,14.0549,14.5105,15.2394,15.5431,15.1862,14.9812,14.2751,12.8779,0.0,0.0,0.0,0.0,0.0,0.0,0.0,0.0,0.0,0.0,0.0,0.0,0.0,0.0]}],[{"header":{"parameterUnit":"kt","parameterCategory":2,"dx":1,"dy":1,"la1":29.285339999999998,"la2":30.599998999999997,"lo1":-89.70041500000002,"lo2":-87.6738589999976,"nx":112,"ny":82,"refTime":"2022-10-17T06:00:00:Z","depth":0,"parameterNumber":2,"parameterNumberName":"V-component_of_WINDS"},"data":[0.8094,0.7571,0.7555,0.7428,0.7436,0.0,0.7305,0.0,0.7343,0.0,0.0,0.0,0.0,0.0,0.0,0.0,0.0,0.0,0.0,2.1057,0.0,0.0,0.0,0.0,0.0,0.0,0.0,0.0,0.0,0.0,0.0,4.2601,4.2759,4.3023,4.3659,4.4183,4.4605,4.5231,4.5579,4.5676,4.5676,4.4369,4.1973,4.1973,4.0647,3.8313,3.8313,3.8349,3.8415,3.8415,3.8587,3.8834,3.8834,3.8897,3.9002,3.8587,3.8379,3.8313,3.8313,3.8313,3.8313,3.8313,3.8313,3.8313,3.8313,3.8313,3.8379,3.8719,3.8861,3.9042,3.9486,3.9666,3.9732,3.9837,3.9833,3.9833,3.9833,3.946,3.9147,3.9288,3.8976,3.8765,3.9147,3.9354,3.9495,3.9556,3.9934,4.0136,3.9903,3.9833,3.9833,3.9833,3.9833,3.9833,3.9833,3.9833,3.9833,3.9833,3.9833,3.9833,3.9833,3.9833,3.9833,3.9833,3.9833,3.9833,3.9833,3.9833,3.9833,3.9771,3.6315,3.083,0.7542,0.7502,0.7497,0.7366,0.0,0.0,0.0,0.0,0.0,0.0,0.0,0.0,0.0,0.0,0.0,0.0,0.0,0.0,0.0,0.0,0.0,0.0,0.0,0.0,0.0,0.0,0.0,4.1404,4.2712,4.3265,4.2705,4.3155,4.3603,4.4064,4.4287,4.4739,4.5401,4.5609,4.5676,4.5676,4.5676,4.4369,4.1973,4.1973,4.0647,3.8313,3.8313,3.8349,3.8415,3.8415,3.8587,3.8795,3.8719,3.8765,3.89,3.8455,3.8313,3.8313,3.8313,3.8313,3.8313,3.8313,3.8313,3.8313,3.8313,3.8313,3.8379,3.8719,3.8861,3.9042,3.9486,3.9666,3.9727,3.9837,3.9833,3.9833,3.9833,3.946,3.9147,3.9319,3.8897,3.8693,3.9147,3.9354,3.9495,3.9556,3.9965,4.0202,4.0066,3.9929,3.9903,4.0039,3.9929,3.9833,3.9833,3.9833,3.9833,3.9833,3.9833,3.9833,3.9833,3.9833,3.9833,3.9833,3.9833,3.9833,3.9833,3.9833,3.9833,3.9678,3.2504,2.7281,0.0,0.0,0.0,0.7227,0.0,0.0,0.0,0.0,0.7383,0.0,0.0,0.0,0.0,0.0,0.0,0.0,0.0,0.0,0.0,0.0,0.0,0.0,0.0,0.0,0.0,3.9578,4.078,4.229,4.3265,4.3659,4.337,4.4249,4.4489,4.4001,4.4834,4.543,4.5676,4.5676,4.5676,4.5676,4.5676,4.4398,4.2046,4.2046,4.0736,3.8402,3.8372,3.8475,3.8723,3.8693,3.8834,3.9002,3.8755,3.8663,3.8653,3.8376,3.8313,3.8313,3.8313,3.8313,3.8313,3.8313,3.8313,3.8313,3.8313,3.8313,3.8405,3.8897,3.89,3.8861,3.9657,3.9666,3.9521,3.9798,3.9833,3.9833,3.9833,3.946,3.9098,3.9098,3.8663,3.8405,3.8653,3.9147,3.9561,3.9806,3.9863,4.0,4.0378,4.0066,3.9969,4.0378,4.0066,3.9833,3.9833,3.9833,3.9833,3.9833,3.9833,3.9833,3.9833,3.9833,3.9833,3.9833,3.9833,3.9833,3.9833,3.9833,3.9833,3.9585,2.8896,2.3923,0.7248,0.0,0.0,0.0,0.0,0.0,0.0,0.0,0.0,0.0,0.0,0.0,0.0,0.0,0.0,0.0,0.0,1.1777,0.0,1.3767,0.0,0.0,0.0,3.2432,3.902,4.091,4.2168,4.3293,4.4008,4.4275,4.393,4.4676,4.5064,4.4904,4.5354,4.5597,4.5676,4.5676,4.5676,4.5676,4.5676,4.4884,4.3415,4.3415,4.2517,4.0912,3.9969,3.9595,3.9604,3.8745,3.8455,3.8521,3.8415,3.8376,3.8376,3.831,3.8313,3.8313,3.8313,3.8313,3.8313,3.8313,3.8313,3.8313,3.8313,3.8313,3.8405,3.8897,3.9002,3.9108,3.9692,3.9798,3.9758,3.9837,3.9833,3.9833,3.9833,3.9587,3.9354,3.9354,3.9077,3.8936,3.9213,3.935,3.9561,3.9806,4.0066,4.0202,4.0039,3.9903,3.9903,4.0,3.9903,3.9833,3.9833,3.9833,3.9833,3.9833,3.9833,3.9833,3.9833,3.9833,3.9833,3.9833,3.9833,3.9833,3.9833,3.9833,3.9833,3.9585,2.8896,2.3923,0.0,0.0,0.0,0.0,0.0,0.0,0.7114,0.0,0.7259,0.0,0.0,0.0,0.0,0.0,0.0,0.0,1.1773,1.4108,1.102,1.7521,2.3342,2.5387,2.9738,3.44,3.9034,4.1391,4.3034,4.4068,4.474,4.5011,4.4806,4.5198,4.5433,4.5433,4.5609,4.5676,4.5676,4.5676,4.5676,4.5676,4.5676,4.5046,4.3914,4.3914,4.3224,4.1914,4.0618,4.0042,3.9939,3.8789,3.8313,3.8313,3.8313,3.8313,3.8313,3.8313,3.8313,3.8313,3.8313,3.8313,3.8313,3.8313,3.8313,3.831,3.8415,3.8455,3.8557,3.9077,3.9209,3.9315,3.9727,3.9833,3.9833,3.9833,3.9833,3.9833,3.9833,3.9635,3.9455,3.9455,3.9174,3.9032,3.9389,3.9455,3.9587,4.0039,4.0145,4.0202,4.0245,4.0035,3.9903,4.0066,3.9929,3.9833,3.9833,3.9833,3.9833,3.9833,3.9833,3.9833,3.9833,3.9833,3.9833,3.9833,3.9833,3.9833,3.9833,3.9833,3.869,3.6284,2.785,2.2717,0.0,0.0,0.0,0.0,0.7269,0.0,0.0,0.0,0.0,0.7396,0.0,0.7579,0.7576,0.0,0.0,0.7425,1.1777,1.512,1.4884,1.9979,2.5527,3.0338,3.4281,3.7165,3.8547,4.11,4.3213,4.4547,4.5248,4.5629,4.5629,4.5674,4.5676,4.5676,4.5676,4.5676,4.5676,4.5676,4.5676,4.5676,4.5676,4.5134,4.4135,4.4135,4.3488,4.2341,4.1044,4.041,4.0189,3.8979,3.8402,3.8313,3.8461,3.8402,3.8313,3.8461,3.8402,3.8313,3.8313,3.8313,3.8313,3.8313,3.8313,3.8339,3.8547,3.8653,3.8795,3.9315,3.9455,3.9521,3.9798,3.9833,3.9833,3.9833,3.9833,3.9833,3.9833,3.9666,3.9495,3.9455,3.9077,3.8927,3.9416,3.9495,3.9657,4.0273,4.0066,4.0074,4.0721,4.0276,4.0066,4.0444,4.0145,3.9903,3.9903,3.9872,3.9833,3.9833,3.9833,3.9833,3.9833,3.9833,3.9833,3.9833,3.9833,3.9833,3.9833,3.9833,3.71,3.1739,2.6389,2.1052,0.0,0.0,0.0,0.0,0.0,0.7223,0.0,0.0,0.0,0.7526,0.7553,0.7579,0.7576,0.7589,0.7582,0.7563,1.1914,1.5295,1.5252,2.3042,3.0475,3.5052,3.6527,3.7591,3.8587,4.0055,4.185,4.4055,4.4943,4.5354,4.5354,4.5577,4.5676,4.5676,4.5676,4.5676,4.5676,4.5676,4.5676,4.5676,4.5676,4.5559,4.5338,4.5338,4.5222,4.4884,4.3709,4.2576,4.1517,4.0248,3.9156,3.8402,3.9347,3.9127,3.8402,3.9377,3.9097,3.8313,3.8313,3.8313,3.8313,3.8313,3.8313,3.8313,3.8349,3.8521,3.8795,3.9315,3.9455,3.9521,3.9798,3.9833,3.9833,3.9833,3.9833,3.9833,3.9833,3.9806,3.9701,3.9495,3.938,3.9389,3.9701,3.9587,3.9591,3.9903,3.9903,4.0008,4.0444,4.0405,4.0444,4.0716,4.0479,4.0299,4.0299,4.0039,3.9833,3.9833,3.9833,3.9833,3.9833,3.9833,3.9833,3.9833,3.9833,3.9833,3.9833,3.9833,3.71,3.1739,2.6389,2.1052,0.0,0.0,0.0,0.7066,0.0,0.0,0.0,0.0,0.7422,0.7568,0.7579,0.7606,0.7664,0.7629,0.7589,0.7589,1.186,1.5192,1.5245,1.94,2.512,3.2365,3.3224,3.4653,3.8347,3.9813,4.1425,4.3572,4.4835,4.5498,4.5498,4.5597,4.5676,4.5676,4.5676,4.5676,4.5676,4.5676,4.5676,4.5676,4.5676,4.5676,4.5676,4.5676,4.5676,4.5618,4.4428,4.3547,4.2797,4.0853,3.9703,3.9215,3.9821,3.9304,3.8372,3.895,3.8789,3.8313,3.8313,3.8313,3.8313,3.8313,3.8313,3.8313,3.8313,3.8557,3.9006,3.9495,3.9561,3.9521,3.9798,3.9833,3.9833,3.9833,3.9833,3.9833,3.9833,3.9833,3.9806,3.9662,3.9666,3.9692,3.9837,3.9727,3.9758,4.0097,3.9969,4.0035,4.0576,4.051,4.0542,4.0782,4.0576,4.0436,4.0436,4.0066,3.9833,3.9833,3.9833,3.9833,3.9833,3.9833,3.9833,3.9833,3.9833,3.9833,3.9833,3.9833,3.5734,2.7819,2.5159,1.9625,0.0,0.0,0.0,0.0,0.0,0.0,0.0,0.7256,0.7414,0.7566,0.7593,0.7616,0.7711,0.7642,0.7568,0.7568,1.0934,1.3896,1.4926,1.4902,1.8459,2.8412,2.9444,3.1839,3.8187,3.9998,4.1519,4.3328,4.4846,4.5724,4.5784,4.5724,4.5676,4.5676,4.5676,4.5676,4.5676,4.5676,4.5676,4.5676,4.5676,4.5676,4.5676,4.5676,4.5676,4.5618,4.4678,4.4135,4.3767,4.1678,4.0794,4.0794,4.0794,4.0071,3.9009,3.9009,3.8848,3.8608,3.8372,3.8313,3.8313,3.8313,3.8313,3.8313,3.8313,3.8623,3.9077,3.9561,3.9626,3.9556,3.9798,3.9833,3.9833,3.9833,3.9833,3.9833,3.9833,3.9833,3.9833,3.9833,3.9833,3.9833,3.9833,3.9833,3.9929,4.0273,4.0039,4.0074,4.065,4.0581,4.0542,4.0782,4.0576,4.0436,4.0436,4.0066,3.9833,3.9833,3.9833,3.9833,3.9833,3.9833,3.9833,3.9833,3.9833,3.9833,3.9833,3.9833,3.4342,2.3923,2.3923,1.8197,0.6972,0.6916,0.6883,0.7107,0.0,0.0,0.7451,0.7462,0.7431,0.7564,0.7594,0.7595,0.7611,0.7585,0.7595,0.7595,0.8029,0.9891,1.4205,1.4783,1.8494,2.8538,2.9904,3.2432,3.8599,4.0497,4.2033,4.3751,4.4999,4.5832,4.6193,4.5879,4.5676,4.5676,4.5676,4.5676,4.5676,4.5676,4.5676,4.5676,4.5676,4.5676,4.5676,4.5676,4.5676,4.5676,4.5559,4.4884,4.3914,4.362,4.3488,4.3488,4.3488,4.2709,4.1576,4.1576,4.0853,3.9703,3.8668,3.8313,3.8313,3.8313,3.8313,3.8313,3.8313,3.8481,3.8798,3.9068,3.9486,3.9806,3.9833,3.9833,3.9833,3.9833,3.9833,3.9833,3.9833,3.9833,3.9833,3.9833,3.9833,3.9833,3.9833,3.9833,3.9863,3.9903,3.9872,4.0,4.0405,4.0444,4.0542,4.0782,4.0576,4.0436,4.0436,4.0066,3.9833,3.9833,3.9833,3.9833,3.9833,3.9833,3.9833,3.9833,3.9833,3.9833,3.9833,3.9833,3.4342,2.3923,2.3923,1.8197,0.6972,0.6958,0.693,0.7058,0.0,0.0,0.7422,0.7412,0.7417,0.7555,0.7585,0.7593,0.7593,0.7523,0.7483,0.7483,0.7454,0.8159,1.0186,1.0476,1.3102,2.0167,2.3723,2.8089,3.4463,3.8981,4.218,4.3825,4.5231,4.599,4.5929,4.5784,4.5676,4.5676,4.5676,4.5676,4.5676,4.5676,4.5676,4.5676,4.5676,4.5676,4.5676,4.5676,4.5676,4.5676,4.5676,4.5396,4.4958,4.4958,4.4106,4.2885,4.365,4.2679,4.0942,4.1708,4.1649,4.1001,3.9762,3.9304,3.9215,3.852,3.8313,3.8313,3.8313,3.8587,3.89,3.8861,3.9315,3.9833,3.9833,3.9833,3.9833,3.9833,3.9833,3.9833,3.9833,3.9833,3.9833,3.9833,3.9833,3.9833,3.9833,3.9833,3.9833,3.9833,3.9833,3.9969,4.0378,4.0436,4.0542,4.0782,4.0576,4.0436,4.0436,4.0066,3.9833,3.9833,3.9833,3.9833,3.9833,3.9833,3.9833,3.9833,3.9833,3.9833,3.9833,3.9833,3.7552,3.3041,2.6806,1.8197,0.6999,0.0,0.0,0.0,0.0,0.0,0.7407,0.7446,0.7481,0.7574,0.7574,0.7582,0.7539,0.7462,0.7393,0.7393,0.7401,0.7401,0.7383,0.7417,0.9285,1.4298,1.9396,2.5213,3.2038,3.8177,4.2517,4.4434,4.5626,4.6145,4.585,4.585,4.5784,4.5676,4.5676,4.5676,4.5676,4.5676,4.5676,4.5676,4.5676,4.5676,4.5676,4.5676,4.5676,4.5676,4.5676,4.5676,4.5676,4.5676,4.4649,4.3106,4.4047,4.3047,4.1221,4.2193,4.2355,4.2,4.1084,4.0507,4.005,3.9205,3.8645,3.8313,3.8376,3.8597,3.8861,3.89,3.9249,3.9666,3.9806,3.9833,3.9833,3.9833,3.9833,3.9833,3.9833,3.9833,3.9833,3.9833,3.9833,3.9833,3.9833,3.9833,3.9833,3.9833,3.9833,3.9929,4.0242,4.0273,4.0347,4.0514,4.0373,4.0273,4.0273,4.0008,3.9833,3.9833,3.9833,3.9833,3.9833,3.9833,3.9833,3.9833,3.9833,3.9833,3.9833,3.9833,3.9109,3.7422,2.8191,1.8197,0.0,0.0,0.0,0.7313,0.7372,0.7401,0.754,0.7564,0.7582,0.7589,0.7571,0.7545,0.7404,0.7401,0.739,0.739,0.7377,0.7391,0.7391,0.7486,0.9473,1.4548,1.9745,2.5914,3.3595,3.8971,4.3151,4.5987,4.6242,4.6272,4.6242,4.6242,4.6084,4.5706,4.5676,4.5676,4.5676,4.5676,4.5676,4.5676,4.5676,4.5676,4.5676,4.5676,4.5676,4.5676,4.5676,4.5676,4.5676,4.5676,4.5647,4.5588,4.5618,4.4884,4.3826,4.3856,4.3299,4.2555,4.2526,4.1662,4.0589,4.0559,3.9551,3.8339,3.8587,3.8521,3.8481,3.9209,3.9258,3.9213,3.9701,3.9833,3.9833,3.9833,3.9833,3.9833,3.9833,3.9833,3.9833,3.9833,3.9833,3.9833,3.9833,3.9833,3.9833,3.9833,3.9833,3.9833,3.9863,3.9863,3.9863,3.9872,3.9872,3.9863,3.9863,3.9833,3.9833,3.9833,3.9833,3.9833,3.9833,3.9833,3.9833,3.9833,3.9833,3.9833,3.9833,3.9833,3.7193,3.1967,2.6482,1.8197,0.6964,0.7052,0.716,0.7355,0.7464,0.7515,0.7577,0.7573,0.7557,0.7473,0.7515,0.7531,0.7406,0.7374,0.739,0.739,0.7374,0.7401,0.7383,0.751,0.8205,0.9932,1.4722,2.0892,2.8493,3.3938,3.9424,4.5435,4.6116,4.6145,4.5881,4.6116,4.6084,4.5706,4.5676,4.5676,4.5676,4.5676,4.5676,4.5676,4.5676,4.5676,4.5676,4.5676,4.5676,4.5676,4.5676,4.5676,4.5676,4.5676,4.5222,4.459,4.5367,4.4958,4.4047,4.4796,4.451,4.3597,4.2734,4.2028,4.1327,4.002,3.9174,3.8701,3.8897,3.9002,3.9147,3.9389,3.9521,3.9626,3.9806,3.9833,3.9833,3.9833,3.9833,3.9833,3.9833,3.9833,3.9833,3.9833,3.9833,3.9833,3.9833,3.9833,3.9833,3.9833,3.9833,3.9833,3.9833,3.9833,3.9833,3.9833,3.9833,3.9833,3.9833,3.9833,3.9833,3.9833,3.9833,3.9833,3.9833,3.9833,3.9833,3.9833,3.9833,3.9833,3.9833,3.9833,3.71,3.1739,2.6389,2.0093,0.6964,0.7122,0.7271,0.7366,0.7475,0.7593,0.7593,0.7589,0.7543,0.7425,0.7489,0.7555,0.7408,0.739,0.739,0.739,0.739,0.7374,0.7385,0.7462,0.7502,0.7502,1.2117,1.8088,2.5254,3.107,3.7352,4.4516,4.5675,4.5958,4.5706,4.5911,4.5929,4.5676,4.5676,4.5676,4.5676,4.5676,4.5676,4.5676,4.5676,4.5676,4.5676,4.5676,4.5676,4.5676,4.5676,4.5676,4.5676,4.5676,4.5222,4.4649,4.5396,4.4958,4.4047,4.4766,4.4543,4.3671,4.2625,4.1701,4.0803,3.9486,3.8983,3.8926,3.9092,3.9218,3.935,3.953,3.9666,3.9732,3.9837,3.9833,3.9833,3.9833,3.9833,3.9833,3.9833,3.9833,3.9833,3.9833,3.9833,3.9833,3.9833,3.9833,3.9833,3.9833,3.9833,3.9833,3.9833,3.9833,3.9833,3.9833,3.9833,3.9833,3.9833,3.9833,3.9833,3.9833,3.9833,3.9833,3.9833,3.9833,3.9833,3.9833,3.9833,3.9833,3.9833,3.9833,3.6117,2.8958,2.551,2.003,0.6964,0.7183,0.7403,0.7407,0.7478,0.7582,0.7582,0.7582,0.7555,0.7409,0.7489,0.7518,0.7408,0.739,0.739,0.739,0.739,0.739,0.739,0.7385,0.7391,0.7383,1.1756,1.7368,2.4033,3.0352,3.6749,4.3429,4.5017,4.5676,4.5676,4.5676,4.5676,4.5676,4.5676,4.5676,4.5676,4.5676,4.5676,4.5676,4.5676,4.5676,4.5676,4.5676,4.5676,4.5676,4.5676,4.5676,4.5676,4.5676,4.5706,4.5724,4.5724,4.5046,4.4048,4.4019,4.3493,4.2764,4.2117,4.0742,3.9294,3.9141,3.9032,3.8992,3.9237,3.9223,3.9209,3.9701,3.9662,3.9521,3.9798,3.9833,3.9833,3.9833,3.9833,3.9833,3.9833,3.9833,3.9833,3.9833,3.9833,3.9833,3.9833,3.9833,3.9833,3.9833,3.9833,3.9833,3.9833,3.9833,3.9833,3.9833,3.9833,3.9833,3.9833,3.9833,3.9833,3.9833,3.9833,3.9833,3.9833,3.9833,3.9833,3.9833,3.9833,3.9833,3.9833,3.9833,3.4342,2.3923,2.3923,1.8197,0.6963,0.7181,0.7416,0.7513,0.7561,0.7579,0.7579,0.7579,0.7553,0.7406,0.7428,0.742,0.7403,0.739,0.739,0.739,0.739,0.739,0.739,0.7385,0.7378,0.7388,0.8629,1.3515,2.3681,2.7062,3.2875,4.3149,4.5017,4.5676,4.5676,4.5676,4.5676,4.5676,4.5676,4.5676,4.5676,4.5676,4.5676,4.5676,4.5676,4.5676,4.5676,4.5676,4.5676,4.5676,4.5676,4.5676,4.5676,4.5676,4.585,4.6116,4.6116,4.5938,4.5569,4.4894,4.3385,4.1547,4.0682,4.0084,3.9692,3.9662,3.9635,3.9635,3.967,3.9662,3.9662,3.9806,3.9806,3.9758,3.9837,3.9833,3.9833,3.9833,3.9833,3.9833,3.9833,3.9833,3.9833,3.9833,3.9833,3.9833,3.9833,3.9833,3.9833,3.9833,3.9833,3.9833,3.9833,3.9833,3.9833,3.9833,3.9833,3.9833,3.9833,3.9833,3.9833,3.9833,3.9833,3.9833,3.9833,3.9833,3.9833,3.9833,3.9833,3.9833,3.9833,3.9833,3.4342,2.3923,2.3923,1.8197,0.6897,0.7155,0.7408,0.7467,0.7497,0.7497,0.7497,0.7497,0.7467,0.7408,0.7388,0.7401,0.7395,0.739,0.739,0.739,0.739,0.739,0.739,0.7388,0.7393,0.7395,0.7489,1.2083,2.3568,2.5866,3.1426,4.3047,4.5017,4.5676,4.5676,4.5676,4.5676,4.5676,4.5676,4.5676,4.5676,4.5676,4.5676,4.5676,4.5676,4.5676,4.5676,4.5676,4.5676,4.5676,4.5676,4.5676,4.5676,4.5676,4.5802,4.6005,4.6005,4.6116,4.6095,4.4657,4.3158,4.1955,4.2999,4.3362,4.2959,4.0591,3.9868,3.9833,3.9833,3.9833,3.9833,3.9833,3.9833,3.9833,3.9833,3.9833,3.9833,3.9833,3.9833,3.9833,3.9833,3.9833,3.9833,3.9833,3.9833,3.9833,3.9833,3.9833,3.9833,3.9833,3.9833,3.9833,3.9833,3.9833,3.9833,3.9833,3.9833,3.9833,3.9833,3.9833,3.9833,3.9833,3.9833,3.9833,3.9833,3.9833,3.9833,3.9833,3.9833,3.9833,3.9833,3.749,3.206,2.3861,2.1488,1.5949,0.6856,0.7128,0.7366,0.7412,0.7396,0.7396,0.7409,0.7396,0.7393,0.738,0.7374,0.7395,0.739,0.739,0.739,0.739,0.739,0.739,0.739,0.739,0.739,0.739,0.7483,1.1744,2.2361,2.5369,3.1098,4.1856,4.4516,4.5676,4.5676,4.5676,4.5676,4.5676,4.5676,4.5676,4.5676,4.5676,4.5676,4.5676,4.5676,4.5676,4.5676,4.5676,4.5676,4.5676,4.5676,4.5676,4.5676,4.5676,4.5724,4.5755,4.5784,4.596,4.5948,4.3984,4.3277,4.3684,4.6757,4.7358,4.599,4.1358,3.9833,3.9833,3.9833,3.9833,3.9833,3.9833,3.9833,3.9833,3.9833,3.9833,3.9833,3.9833,3.9833,3.9833,3.9833,3.9833,3.9833,3.9833,3.9833,3.9833,3.9833,3.9833,3.9833,3.9833,3.9833,3.9833,3.9833,3.9833,3.9833,3.9833,3.9833,3.9833,3.9833,3.9833,3.9833,3.9833,3.9833,3.9833,3.9833,3.9833,3.9833,3.9833,3.9833,3.9833,3.9833,3.4466,2.9144,2.3768,1.8415,1.3089,0.7189,0.7256,0.7269,0.7505,0.7454,0.7417,0.7512,0.7475,0.7388,0.7399,0.7378,0.7393,0.7395,0.739,0.739,0.739,0.739,0.739,0.739,0.739,0.739,0.739,0.7393,0.9885,1.6183,2.2756,2.9249,3.5569,4.2032,4.5676,4.5676,4.5676,4.5676,4.5676,4.5676,4.5676,4.5676,4.5676,4.5676,4.5676,4.5676,4.5676,4.5676,4.5676,4.5676,4.5676,4.5676,4.5676,4.5676,4.5676,4.5879,4.6163,4.6282,4.6114,4.5633,4.4266,4.5112,4.7012,4.7602,4.4917,4.1074,4.015,3.9868,3.9833,3.9833,3.9833,3.9833,3.9833,3.9833,3.9833,3.9833,3.9833,3.9833,3.9833,3.9833,3.9833,3.9833,3.9833,3.9833,3.9833,3.9833,3.9833,3.9833,3.9833,3.9833,3.9833,3.9833,3.9833,3.9833,3.9833,3.9833,3.9833,3.9833,3.9833,3.9833,3.9833,3.9833,3.9833,3.9833,3.9833,3.9833,3.9833,3.9833,3.9833,3.9833,3.9833,3.9833,3.4466,2.9144,2.3768,1.8415,1.3089,0.7024,0.7147,0.7224,0.7338,0.7393,0.7404,0.7457,0.7489,0.7497,0.7494,0.7481,0.7475,0.7385,0.7377,0.7393,0.7395,0.739,0.739,0.739,0.739,0.739,0.739,0.7385,1.0193,1.7401,2.3272,2.9609,3.6808,4.2547,4.5676,4.5676,4.5676,4.5676,4.5676,4.5676,4.5676,4.5676,4.5676,4.5676,4.5676,4.5676,4.5676,4.5676,4.5676,4.5676,4.5676,4.5676,4.5676,4.5676,4.5676,4.5784,4.5988,4.6017,4.6066,4.6056,4.6001,4.6765,4.7827,4.782,4.4303,3.9859,3.9864,3.9859,3.9868,3.9833,3.9833,3.9833,3.9833,3.9833,3.9833,3.9833,3.9833,3.9833,3.9833,3.9833,3.9833,3.9833,3.9833,3.9833,3.9833,3.9833,3.9833,3.9833,3.9833,3.9833,3.9833,3.9833,3.9833,3.9833,3.9833,3.9833,3.9833,3.9833,3.9833,3.9833,3.9833,3.9833,3.9833,3.9833,3.9833,3.9833,3.9833,3.9833,3.9833,3.9833,3.9833,3.9833,3.1677,2.642,2.3705,1.5585,1.0398,0.6883,0.704,0.7189,0.7222,0.7301,0.7383,0.7417,0.7515,0.7587,0.7593,0.7593,0.7545,0.7446,0.742,0.7393,0.7388,0.7395,0.739,0.739,0.739,0.739,0.739,0.7862,1.0978,1.8071,2.3994,3.033,3.7454,4.2753,4.5676,4.5676,4.5676,4.5676,4.5676,4.5676,4.5676,4.5676,4.5676,4.5676,4.5676,4.5676,4.5676,4.5676,4.5676,4.5676,4.5676,4.5676,4.5676,4.5676,4.5676,4.5676,4.5676,4.5676,4.5938,4.6431,4.7469,4.7826,4.7803,4.7821,4.5071,4.1563,4.155,4.078,3.9859,3.9833,3.9833,3.9833,3.9833,3.9833,3.9833,3.9833,3.9833,3.9833,3.9833,3.9833,3.9833,3.9833,3.9833,3.9833,3.9833,3.9833,3.9833,3.9833,3.9833,3.9833,3.9833,3.9833,3.9833,3.9833,3.9833,3.9833,3.9833,3.9833,3.9833,3.9833,3.9833,3.9833,3.9833,3.9833,3.9833,3.9833,3.9833,3.9833,3.9833,3.9833,3.9833,3.9833,2.9113,2.3923,2.3674,1.2964,0.7967,0.7091,0.7165,0.7222,0.734,0.739,0.7406,0.7534,0.7576,0.7568,0.7579,0.0,0.759,0.7553,0.7464,0.7388,0.7378,0.7393,0.739,0.739,0.739,0.739,0.739,0.9368,1.1121,1.2048,2.285,3.0258,3.1308,4.0267,4.5676,4.5676,4.5676,4.5676,4.5676,4.5676,4.5676,4.5676,4.5676,4.5676,4.5676,4.5676,4.5676,4.5676,4.5676,4.5676,4.5676,4.5676,4.5676,4.5676,4.5676,4.5676,4.5676,4.5676,4.5686,4.592,4.7303,4.7826,4.7803,4.7821,4.7498,4.7083,4.7115,4.382,3.9859,3.9833,3.9833,3.9833,3.9833,3.9833,3.9833,3.9833,3.9833,3.9833,3.9833,3.9833,3.9833,3.9833,3.9833,3.9833,3.9833,3.9833,3.9833,3.9833,3.9833,3.9833,3.9833,3.9833,3.9833,3.9833,3.9833,3.9833,3.9833,3.9833,3.9833,3.9833,3.9833,3.9833,3.9833,3.9833,3.9833,3.9833,3.9833,3.9833,3.9833,3.9833,3.9833,3.9833,2.9113,2.3923,2.3674,1.2964,0.7967,0.6794,0.6897,0.6996,0.7119,0.7279,0.7388,0.746,0.7457,0.7486,0.7561,0.7587,0.7563,0.7468,0.7497,0.7478,0.7401,0.7374,0.739,0.739,0.739,0.7934,0.9444,1.0494,1.2341,1.5523,2.4507,3.0889,3.272,4.0825,4.5676,4.5676,4.5676,4.5676,4.5676,4.5676,4.5676,4.5676,4.5676,4.5676,4.5676,4.5676,4.5676,4.5676,4.5676,4.5676,4.5676,4.5676,4.5676,4.5676,4.5676,4.5676,4.5676,4.5676,4.5686,4.586,4.7303,4.7826,4.7803,4.782,4.782,4.7821,4.7807,4.4191,3.9859,3.9833,3.9833,3.9833,3.9833,3.9833,3.9833,3.9833,3.9833,3.9833,3.9833,3.9833,3.9833,3.9833,3.9833,3.9833,3.9833,3.9833,3.9833,3.9833,3.9833,3.9833,3.9833,3.9833,3.9833,3.9833,3.9833,3.9833,3.9833,3.9833,3.9833,3.9833,3.9833,3.9833,3.9833,3.9833,3.9833,3.9833,3.9833,3.9833,3.9833,3.9833,3.9833,3.9833,2.9113,2.3923,2.3674,1.2964,0.7967,0.662,0.6734,0.6844,0.6957,0.7147,0.7269,0.7322,0.7322,0.7364,0.7489,0.7523,0.7502,0.7454,0.7475,0.0,0.7393,0.7388,0.738,0.739,0.739,0.8306,1.078,1.1698,1.3853,1.8316,2.5282,3.0856,3.405,4.0328,4.4487,4.5618,4.5676,4.5676,4.5676,4.5676,4.5676,4.5676,4.5676,4.5676,4.5676,4.5676,4.5676,4.5676,4.5676,4.5676,4.5676,4.5676,4.5676,4.5676,4.5676,4.5676,4.5676,4.5676,4.5684,4.5871,4.7301,4.7807,4.7815,4.7833,4.782,4.7559,4.5976,4.2916,3.9859,3.9833,3.9833,3.9833,3.9833,3.9833,3.9833,3.9833,3.9833,3.9833,3.9833,3.9833,3.9833,3.9833,3.9833,3.9833,3.9833,3.9833,3.9833,3.9833,3.9833,3.9833,3.9833,3.9833,3.9833,3.9833,3.9833,3.9833,3.9833,3.9833,3.9833,3.9833,3.9833,3.9833,3.9833,3.9833,3.9833,3.9833,3.9833,3.9833,3.9833,3.9833,3.9833,3.9833,2.9113,2.3923,2.3674,1.2964,0.7967,0.6757,0.6816,0.6834,0.6978,0.6998,0.7044,0.7159,0.7203,0.7236,0.7357,0.7401,0.7422,0.7568,0.7464,0.0,0.7378,0.7391,0.7399,0.7395,0.739,0.8306,1.078,1.3122,1.557,1.8215,2.4379,2.9816,3.372,3.7794,4.1737,4.55,4.5676,4.5676,4.5676,4.5676,4.5676,4.5676,4.5676,4.5676,4.5676,4.5676,4.5676,4.5676,4.5676,4.5676,4.5676,4.5676,4.5676,4.5676,4.5676,4.5676,4.5676,4.5676,4.5675,4.5858,4.7311,4.7815,4.7833,4.7815,4.782,4.696,4.1632,3.9894,3.9859,3.9833,3.9833,3.9833,3.9833,3.9833,3.9833,3.9833,3.9833,3.9833,3.9833,3.9833,3.9833,3.9833,3.9833,3.9833,3.9833,3.9833,3.9833,3.9833,3.9833,3.9833,3.9833,3.9833,3.9833,3.9833,3.9833,3.9833,3.9833,3.9833,3.9833,3.9833,3.9833,3.9833,3.9833,3.9833,3.9833,3.9833,3.9833,3.9833,3.9833,3.9833,3.9833,3.9833,2.9113,2.3923,2.3674,1.2964,0.7967,0.6514,0.6661,0.6802,0.6863,0.6936,0.7044,0.7159,0.7256,0.7347,0.7374,0.7374,0.7408,0.7433,0.0,0.0,0.0,0.7391,0.7399,0.7395,0.739,0.89,1.2989,1.4121,1.6263,2.0579,2.5355,2.9787,3.372,3.7765,4.1708,4.55,4.5676,4.5676,4.5676,4.5676,4.5676,4.5676,4.5676,4.5676,4.5676,4.5676,4.5676,4.5676,4.5676,4.5676,4.5676,4.5676,4.5676,4.5676,4.5676,4.5676,4.5676,4.5676,4.5675,4.5723,4.6186,4.6984,4.7833,4.7815,4.782,4.6929,4.157,3.9859,3.9868,3.9833,3.9833,3.9833,3.9833,3.9833,3.9833,3.9833,3.9833,3.9833,3.9833,3.9833,3.9833,3.9833,3.9833,3.9833,3.9833,3.9833,3.9833,3.9833,3.9833,3.9833,3.9833,3.9833,3.9833,3.9833,3.9833,3.9833,3.9833,3.9833,3.9833,3.9833,3.9833,3.9833,3.9833,3.9833,3.9833,3.9833,3.9833,3.9833,3.9833,3.9833,3.9833,3.9833,2.9113,2.3923,2.3674,1.2964,0.7967,0.6463,0.661,0.6747,0.6802,0.6862,0.6951,0.7091,0.7189,0.7264,0.7312,0.732,0.7305,0.0,0.0,0.7483,0.7393,0.742,0.7449,0.7403,0.739,0.8843,1.2789,1.4035,1.6188,2.0282,2.396,2.8243,3.3538,3.6408,4.0177,4.5396,4.5676,4.5676,4.5676,4.5676,4.5676,4.5676,4.5676,4.5676,4.5676,4.5676,4.5676,4.5676,4.5676,4.5676,4.5676,4.5676,4.5676,4.5676,4.5676,4.5676,4.5676,4.5676,4.5685,4.5684,4.5675,4.6587,4.7825,4.7829,4.7821,4.6945,4.157,3.9859,3.9833,3.9833,3.9833,3.9833,3.9833,3.9833,3.9833,3.9833,3.9833,3.9833,3.9833,3.9833,3.9833,3.9833,3.9833,3.9833,3.9833,3.9833,3.9833,3.9833,3.9833,3.9833,3.9833,3.9833,3.9833,3.9833,3.9833,3.9833,3.9833,3.9833,3.9833,3.9833,3.9833,3.9833,3.9833,3.9833,3.9833,3.9833,3.9833,3.9833,3.9833,3.9833,3.8857,3.6822,2.8129,2.2873,2.0692,1.1998,0.7967,0.6546,0.6603,0.6644,0.6749,0.6801,0.6843,0.6951,0.6984,0.7034,0.7148,0.7175,0.7175,0.7183,0.7298,0.7378,0.7388,0.7497,0.7531,0.7422,0.0,0.8321,1.0771,1.3174,1.5559,1.8042,2.0869,2.5655,3.3262,3.4172,3.769,4.5279,4.5676,4.5676,4.5676,4.5676,4.5676,4.5676,4.5676,4.5676,4.5676,4.5676,4.5676,4.5676,4.5676,4.5676,4.5676,4.5676,4.5676,4.5676,4.5676,4.5676,4.5676,4.5676,4.5676,4.5667,4.567,4.6581,4.7835,4.781,4.782,4.6945,4.157,3.9859,3.9833,3.9833,3.9833,3.9833,3.9833,3.9833,3.9833,3.9833,3.9833,3.9833,3.9833,3.9833,3.9833,3.9833,3.9833,3.9833,3.9833,3.9833,3.9833,3.9833,3.9833,3.9833,3.9833,3.9833,3.9833,3.9833,3.9833,3.9833,3.9833,3.9833,3.9833,3.9833,3.9833,3.9833,3.9833,3.9833,3.9833,3.9833,3.9833,3.9833,3.9833,3.9833,3.7224,3.1863,2.6513,2.1176,1.5825,1.0461,0.7967,0.6309,0.6459,0.6615,0.6657,0.6802,0.6924,0.6856,0.6843,0.6876,0.7007,0.7052,0.7072,0.7175,0.7298,0.0,0.7515,0.7547,0.7563,0.7534,0.7529,0.8419,1.0787,1.323,1.566,1.8026,2.0686,2.5454,3.3233,3.3988,3.7494,4.5279,4.5676,4.5676,4.5676,4.5676,4.5676,4.5676,4.5676,4.5676,4.5676,4.5676,4.5676,4.5676,4.5676,4.5676,4.5676,4.5676,4.5676,4.5676,4.5676,4.5676,4.5676,4.5676,4.5676,4.5694,4.5675,4.6602,4.7835,4.7815,4.7815,4.6945,4.1581,3.9868,3.9833,3.9833,3.9833,3.9833,3.9833,3.9833,3.9833,3.9833,3.9833,3.9833,3.9833,3.9833,3.9833,3.9833,3.9833,3.9833,3.9833,3.9833,3.9833,3.9833,3.9833,3.9833,3.9833,3.9833,3.9833,3.9833,3.9833,3.9833,3.9833,3.9833,3.9833,3.9833,3.9833,3.9833,3.9833,3.9833,3.9833,3.9833,3.9833,3.9833,3.9833,3.9833,3.7224,3.1863,2.6513,2.1176,1.5825,1.0461,0.7967,0.6297,0.6488,0.6685,0.6629,0.6752,0.6904,0.6821,0.6816,0.6829,0.689,0.6916,0.6957,0.7072,0.7216,0.7346,0.7457,0.0,0.7558,0.751,0.8483,0.9692,0.0,1.4251,1.6912,1.8226,2.0657,2.4677,3.0773,3.2967,3.6667,4.2753,4.4737,4.5676,4.5676,4.5676,4.5676,4.5676,4.5676,4.5676,4.5676,4.5676,4.5676,4.5676,4.5676,4.5676,4.5676,4.5676,4.5676,4.5676,4.5676,4.5676,4.5676,4.5676,4.5676,4.5694,4.5675,4.6165,4.6918,4.7597,4.6208,4.3672,4.078,3.9868,3.9833,3.9833,3.9833,3.9833,3.9833,3.9833,3.9833,3.9833,3.9833,3.9833,3.9833,3.9833,3.9833,3.9833,3.9833,3.9833,3.9833,3.9833,3.9833,3.9833,3.9833,3.9833,3.9833,3.9833,3.9833,3.9833,3.9833,3.9833,3.9833,3.9833,3.9833,3.9833,3.9833,3.9833,3.9833,3.9833,3.9833,3.9833,3.9833,3.9833,3.9833,3.9833,3.6025,2.8191,2.5315,1.9906,1.2209,0.9309,0.7967,0.6391,0.6611,0.6786,0.6676,0.6724,0.6794,0.6775,0.6772,0.6786,0.6784,0.6802,0.683,0.6938,0.7079,0.7216,0.733,0.7475,0.7531,0.0,0.0,1.0582,1.07,1.4534,1.7346,1.7821,2.0125,2.3632,2.8676,3.2105,3.6001,4.0664,4.3944,4.5676,4.5676,4.5676,4.5676,4.5676,4.5676,4.5676,4.5676,4.5676,4.5676,4.5676,4.5676,4.5676,4.5676,4.5676,4.5676,4.5676,4.5676,4.5676,4.5676,4.5676,4.5676,4.5676,4.5676,4.5675,4.5858,4.7073,4.415,3.9859,3.9855,3.9859,3.9833,3.9833,3.9833,3.9833,3.9868,3.9868,3.9833,3.9833,3.9833,3.9833,3.9833,3.9833,3.9833,3.9833,3.9833,3.9833,3.9833,3.9833,3.9833,3.9833,3.9833,3.9833,3.9833,3.9833,3.9833,3.9833,3.9833,3.9833,3.9833,3.9833,3.9833,3.9833,3.9833,3.9833,3.9833,3.9833,3.9833,3.9833,3.9833,3.9833,3.9833,3.9833,3.4601,2.3923,2.3923,1.8415,0.7967,0.7967,0.7967,0.6401,0.6608,0.6805,0.6788,0.6786,0.6772,0.667,0.6649,0.6649,0.6634,0.6736,0.6815,0.6822,0.7031,0.7193,0.7231,0.7422,0.7574,0.7547,0.787,0.8131,0.8146,1.0534,1.2967,1.4981,1.7411,2.2772,3.2255,3.35,3.7055,4.4427,4.5367,4.5676,4.5676,4.5676,4.5676,4.5676,4.5676,4.5676,4.5676,4.5676,4.5676,4.5676,4.5676,4.5676,4.5676,4.5676,4.5676,4.5676,4.5676,4.5676,4.5676,4.5676,4.5676,4.5676,4.5676,4.5667,4.5734,4.5919,4.3318,3.9835,3.9831,3.985,3.9833,3.9833,3.9833,3.9868,3.9845,3.9859,3.9833,3.9833,3.9833,3.9833,3.9833,3.9833,3.9833,3.9833,3.9833,3.9833,3.9833,3.9833,3.9833,3.9833,3.9833,3.9833,3.9833,3.9833,3.9833,3.9833,3.9833,3.9833,3.9833,3.9833,3.9833,3.9833,3.9833,3.9833,3.9833,3.9833,3.9833,3.9833,3.9833,3.9833,3.9833,3.9833,3.4601,2.3923,2.3923,1.8415,0.7967,0.7967,0.7967,0.6526,0.6652,0.6802,0.6794,0.6799,0.6778,0.6637,0.6618,0.6605,0.6611,0.6657,0.6713,0.6802,0.6958,0.712,0.7189,0.7345,0.7513,0.7568,0.874,1.0075,1.1428,1.3664,1.6034,1.8446,1.9659,2.2278,2.7167,3.143,3.5443,3.9168,4.3368,4.5676,4.5676,4.5676,4.5676,4.5676,4.5676,4.5676,4.5676,4.5676,4.5676,4.5676,4.5676,4.5676,4.5676,4.5676,4.5676,4.5676,4.5676,4.5676,4.5676,4.5676,4.5676,4.5676,4.5676,4.5694,4.5286,4.2618,4.0518,3.9093,3.9681,3.9845,3.986,3.986,3.945,3.9141,3.9713,3.9856,3.9831,3.9859,3.9864,3.9859,3.9868,3.9833,3.9833,3.9833,3.9833,3.9833,3.9833,3.9833,3.9833,3.9833,3.9833,3.9833,3.9833,3.9833,3.9833,3.9833,3.9833,3.9833,3.9833,3.9833,3.9833,3.9833,3.9833,3.9833,3.9833,3.9833,3.9833,3.9833,3.9833,3.9833,3.9833,3.9833,3.4601,2.3923,2.3923,1.8415,0.7967,0.7967,0.7967,0.6686,0.0,0.6863,0.6856,0.6824,0.6768,0.0,0.6643,0.6642,0.6606,0.6633,0.6686,0.6789,0.6903,0.7033,0.7167,0.7313,0.7443,0.7577,0.9226,1.1122,1.3016,1.5295,1.7699,2.019,2.0847,2.1768,2.3421,2.9839,3.4189,3.5304,4.1873,4.5627,4.5676,4.5676,4.5676,4.5676,4.5676,4.5676,4.5676,4.5676,4.5676,4.5676,4.5676,4.5676,4.5676,4.5676,4.5676,4.5676,4.5676,4.5676,4.5676,4.5676,4.5676,4.5676,4.5676,4.5667,4.4978,4.0,3.8303,3.8438,3.9244,3.9468,3.9474,3.9474,3.8951,3.8476,3.927,3.9651,3.9836,3.9683,3.9744,3.984,3.9763,3.9806,3.9833,3.9833,3.9833,3.9833,3.9833,3.9833,3.9833,3.9833,3.9833,3.9833,3.9833,3.9833,3.9833,3.9833,3.9833,3.9833,3.9833,3.9833,3.9833,3.9833,3.9833,3.9833,3.9833,3.9833,3.9833,3.9833,3.9833,3.9833,3.9833,3.9833,3.5201,2.579,2.3262,1.7204,0.7967,0.7967,0.7967,0.0,0.6964,0.6972,0.6991,0.6889,0.6797,0.6791,0.6788,0.0,0.6623,0.6716,0.6786,0.6795,0.6903,0.7047,0.717,0.7312,0.743,0.7574,0.7742,0.7912,0.0,1.0168,1.2577,1.5064,1.726,2.1046,2.7099,3.1116,3.509,3.9196,4.3168,4.5433,4.5676,4.5676,4.5676,4.5676,4.5676,4.5676,4.5676,4.5676,4.5676,4.5676,4.5676,4.5676,4.5676,4.5676,4.5676,4.5676,4.5676,4.5676,4.5676,4.5676,4.5694,4.5667,4.5667,4.5685,4.4967,4.0012,3.8313,3.832,3.8375,3.8397,3.8421,3.8421,3.8346,3.8317,3.8387,3.9111,3.9729,3.9229,3.9471,3.9805,3.9525,3.9662,3.9833,3.9833,3.9833,3.9833,3.9833,3.9833,3.9833,3.9833,3.9833,3.9833,3.9833,3.9833,3.9833,3.9833,3.9833,3.9833,3.9833,3.9833,3.9833,3.9833,3.9833,3.9833,3.9833,3.9833,3.9833,3.9833,3.9833,3.9833,3.9833,3.9833,3.7038,3.1295,2.1332,1.3558,0.7967,0.7967,0.7967,0.6943,0.7007,0.6984,0.6889,0.6849,0.681,0.6799,0.6743,0.6677,0.6609,0.6655,0.6716,0.6789,0.6848,0.6938,0.7148,0.7312,0.743,0.7574,0.759,0.7574,0.7577,1.1022,1.4324,1.6728,1.9153,2.1591,2.4053,2.9834,3.3987,3.5658,4.1827,4.5225,4.5072,4.5464,4.5682,4.5682,4.5686,4.5681,4.5681,4.5683,4.5676,4.5676,4.5676,4.5676,4.5676,4.5676,4.5676,0.0,4.5676,4.5676,4.5694,4.5694,4.5667,4.5316,4.2209,4.1061,4.0837,3.8939,3.8303,3.828,3.8297,3.83,3.8276,3.8276,3.83,3.8303,3.8282,3.8593,3.8902,3.9036,3.9166,3.9293,3.9411,3.9521,3.9666,3.9806,3.9833,3.9833,3.9833,3.9833,3.9833,3.9833,3.9833,3.9833,3.9833,3.9833,3.9833,3.9833,3.9833,3.9833,3.9833,3.9833,3.9833,3.9833,3.9833,3.9833,3.9833,3.9833,3.9833,3.9833,3.9833,3.9833,3.9833,3.9833,3.7224,3.1863,2.4491,1.6449,0.7967,0.7967,0.7967,0.6911,0.6963,0.6965,0.6883,0.6862,0.6863,0.68,0.6744,0.6652,0.6612,0.6601,0.6658,0.6778,0.6808,0.6882,0.7143,0.728,0.739,0.7568,0.7545,0.7523,0.7585,1.0493,1.3703,1.6811,2.1076,2.3218,2.2031,2.888,3.315,3.3245,3.9264,4.3233,4.4356,4.482,4.5069,4.5069,4.5058,4.5271,4.5679,4.5681,4.5665,4.5665,4.5674,4.5676,4.5676,4.5676,4.5676,4.5676,4.5676,4.5694,4.552,4.3944,4.3341,4.293,3.9544,3.8296,3.8303,3.8303,3.8303,3.8313,3.8313,3.8313,3.8313,3.8313,3.8313,3.828,3.83,3.8297,3.8376,3.8729,3.8858,3.8948,3.9177,3.9288,3.938,3.9561,3.9666,3.9732,3.9732,3.9798,3.9833,3.9833,3.9833,3.9833,3.9833,3.9833,3.9833,3.9833,3.9833,3.9833,3.9833,3.9833,3.9833,3.9833,3.9833,3.9833,3.9833,3.9833,3.9833,3.9833,3.9833,3.9833,3.9833,3.8182,3.4694,2.9371,2.3986,1.6767,0.7967,0.798,0.7958,0.6796,0.6903,0.7005,0.7005,0.7005,0.6951,0.6834,0.6808,0.6776,0.6631,0.6607,0.6641,0.6787,0.6808,0.6882,0.7143,0.7183,0.7294,0.7555,0.7483,0.7438,0.7553,0.759,0.9397,1.4089,2.2263,2.5823,2.2287,2.8745,3.2971,3.325,3.5646,3.9045,4.3606,4.375,4.3744,4.3744,4.3744,4.4378,4.5658,4.5663,4.5649,4.5694,4.5665,4.5676,4.5676,4.5676,4.5676,4.5676,4.5694,4.5638,4.5122,4.0208,3.8296,3.8306,3.8306,3.8303,3.8313,3.8313,3.8313,3.8313,3.8313,3.8313,3.8313,3.8313,3.8313,3.8313,3.8313,3.8313,3.8313,3.8313,3.8571,3.8842,3.8723,3.887,3.9068,3.9068,3.9258,3.9455,3.9455,3.9666,3.9833,3.9833,3.9833,3.9833,3.9833,3.9833,3.9833,3.9833,3.9833,3.9833,3.9833,3.9833,3.9833,3.9833,3.9833,3.9833,3.9833,3.9833,3.9833,3.9833,3.9833,3.9833,3.9833,3.4601,2.9237,2.3892,1.854,1.3183,0.7967,0.7968,0.7907,0.6801,0.6903,0.7005,0.7005,0.7005,0.6951,0.6834,0.0,0.6776,0.6631,0.6607,0.6641,0.6787,0.6815,0.6876,0.7148,0.7256,0.7351,0.7435,0.7497,0.7497,0.7446,0.7436,0.8677,1.1824,1.5919,2.0421,2.5417,3.0189,3.3603,3.5328,2.9722,3.1778,4.3378,4.3725,4.3725,4.3725,4.3734,4.3916,4.433,4.4302,4.4791,4.5694,4.5689,4.5692,4.5694,4.5694,4.5667,4.5685,4.5685,4.3637,4.0338,3.8839,3.8306,3.8303,3.8303,3.8313,3.8313,3.8313,3.8313,3.8313,3.8313,3.8313,3.8313,3.8313,3.8313,3.8313,3.8313,3.8313,3.8313,3.8313,3.8379,3.8514,3.8653,3.8729,3.8861,3.9042,3.9147,3.9183,3.9183,3.9249,3.9354,3.9521,3.9556,3.9626,3.9837,3.9833,3.9833,3.9833,3.9833,3.9833,3.9833,3.9833,3.9833,3.9833,3.9833,3.9833,3.9833,3.9833,3.9833,3.9833,3.9833,3.9833,3.9833,3.4601,2.9263,2.3896,1.8554,1.3163,0.7846,0.7827,0.7806,0.6802,0.6889,0.7005,0.7005,0.6959,0.6897,0.6829,0.0,0.6778,0.6707,0.6693,0.6723,0.6789,0.6842,0.695,0.7156,0.7271,0.7324,0.7388,0.7414,0.7407,0.7391,0.7393,0.8349,1.085,1.2363,1.6734,2.5303,2.9319,3.3691,3.902,3.3795,3.4648,4.3465,4.3742,4.3739,4.3739,4.3731,4.3725,4.3725,4.3745,4.4138,4.4903,4.5435,4.5689,4.5577,4.3604,4.2753,4.2738,4.2738,4.0971,3.8306,3.8303,3.8303,3.8313,3.8313,3.8313,3.8313,3.8313,3.8313,3.8313,3.8313,3.8313,3.8313,3.8313,3.8313,3.8313,3.8313,3.8313,3.8313,3.8313,3.8313,3.8339,3.8481,3.8521,3.8557,3.8729,3.8831,3.8897,3.8897,3.9002,3.9147,3.9288,3.9389,3.9521,3.9666,3.9798,3.9833,3.9833,3.9833,3.9833,3.9833,3.9833,3.9903,4.0066,3.9929,3.9833,3.9833,3.9833,3.9833,3.9833,3.9758,3.9692,3.9692,3.2381,2.6974,2.3743,1.6291,1.0984,0.7762,0.7764,0.779,0.6802,0.6882,0.6972,0.6972,0.6903,0.6809,0.6809,0.0,0.6799,0.6799,0.6794,0.6783,0.6795,0.6903,0.7039,0.7156,0.7188,0.7257,0.7349,0.7288,0.7269,0.737,0.7393,0.8277,1.0523,1.0951,1.431,2.2077,2.6409,3.2525,4.1282,4.3003,4.3742,4.3756,4.3742,4.3739,4.3739,4.3739,4.3739,4.3739,4.3744,4.3731,4.3763,4.495,4.5569,4.5417,4.0923,3.8735,3.8278,3.8296,3.8306,3.8306,3.8313,3.8313,3.8313,3.8313,3.8313,3.8313,3.8313,3.8313,3.8313,3.8313,3.8313,3.8313,3.8313,3.8313,3.8313,3.8313,3.8313,3.8313,3.8313,3.8313,3.8313,3.8313,3.8313,3.8313,3.8313,3.8481,3.8653,3.8653,3.8834,3.9002,3.9042,3.9209,3.9389,3.9455,3.9666,3.9837,3.9833,3.9833,3.9863,3.9903,3.9903,4.0039,4.0339,4.0066,3.9833,3.9806,3.9806,3.9806,3.9767,3.9561,3.9202,3.8731,2.8726,2.3302,2.2792,1.2694,0.778,0.7772,0.775,0.7759,0.6791,0.6821,0.6857,0.6857,0.6817,0.6809,0.6809,0.6802,0.0,0.6799,0.6709,0.6683,0.6789,0.6903,0.6999,0.7045,0.7214,0.7317,0.7233,0.7309,0.7343,0.738,0.7395,0.759,0.8134,0.993,1.2098,1.4526,2.1301,2.572,2.6579,3.7501,4.3733,4.3733,4.3742,4.3739,4.3739,4.3742,4.3733,4.3733,4.3756,4.3747,4.3727,4.4023,4.469,4.5631,4.4566,4.1888,3.8294,3.8296,3.8313,3.8313,3.8313,3.8313,3.8313,3.8313,3.8313,3.8313,3.8313,3.8313,3.8313,3.8313,3.8313,3.8313,3.8313,3.8313,3.8313,3.8313,3.8313,3.8313,3.8313,3.8313,3.8313,3.8313,3.8313,3.8313,3.8313,3.8339,3.8376,3.8376,3.8415,3.8521,3.8729,3.8825,3.9006,3.9389,3.9495,3.9626,3.9837,3.9833,3.9969,4.0273,4.0299,4.0202,3.9969,3.9903,3.9758,3.9561,3.953,3.946,3.9249,3.9183,3.7281,3.3288,2.6816,2.1508,1.7407,1.0935,0.7729,0.7626,0.7613,0.7608,0.6799,0.681,0.6797,0.6797,0.6802,0.6816,0.6815,0.0,0.0,0.0,0.6739,0.6736,0.6795,0.6924,0.6992,0.6998,0.7174,0.7275,0.7216,0.7256,0.729,0.729,0.729,0.7326,0.739,0.8557,1.013,1.2098,1.4699,1.5827,1.5015,3.1055,4.1359,4.3653,4.3742,4.3742,4.3742,4.3742,4.2574,4.0298,4.0298,4.0302,4.0293,4.0281,4.1923,4.4604,4.2288,4.0162,3.8278,3.8306,3.8283,3.8283,3.8283,3.8291,3.8281,3.8294,3.8291,3.8278,3.8278,3.8278,3.8281,3.8294,3.8283,3.8283,3.8283,3.8283,3.8283,3.8283,3.8283,3.8283,3.8281,3.8278,3.8288,3.8303,3.8313,3.8313,3.8313,3.8313,3.8313,3.8313,3.8313,3.8339,3.8481,3.8617,3.8798,3.9042,3.9315,3.9561,3.9806,3.9626,3.9591,3.9925,3.9864,3.9754,3.9666,3.9552,3.942,3.9288,3.9258,3.9209,3.9068,3.6609,3.3983,3.1361,2.3587,1.8276,1.5534,1.0244,0.7643,0.7587,0.7587,0.7587,0.678,0.6773,0.6795,0.6795,0.681,0.6815,0.6795,0.6781,0.0,0.0,0.6784,0.6784,0.6802,0.6897,0.6957,0.6999,0.7101,0.718,0.7188,0.7188,0.7181,0.0,0.7181,0.7235,0.734,0.7382,0.0,0.0,0.8903,0.7383,0.7375,2.271,3.4884,4.226,4.2485,4.2891,4.3733,4.3742,4.173,3.7784,3.6942,3.6535,3.6534,3.6546,3.8734,4.2245,3.8266,3.7096,3.7986,3.7978,3.7976,3.7976,3.7976,3.7965,3.8033,3.8199,3.815,3.7972,3.7972,3.8118,3.8266,3.8056,3.7976,3.7976,3.7976,3.7976,3.7976,3.7976,3.7976,3.7985,3.8081,3.8147,3.8198,3.8197,3.8204,3.8204,3.8283,3.8313,3.8313,3.8313,3.8313,3.8313,3.8313,3.8481,3.8627,3.8693,3.9042,3.942,3.9662,3.938,3.9209,3.946,3.9258,3.9209,3.938,3.9183,3.9042,3.9002,3.9002,3.8976,3.8936,3.3833,3.0567,2.9709,2.0233,1.4904,1.4004,0.9675,0.7583,0.7583,0.7583,0.7583,0.663,0.6712,0.681,0.681,0.6804,0.6815,0.6795,0.6723,0.6659,0.6773,0.0,0.666,0.6789,0.6829,0.6863,0.6978,0.0,0.7188,0.7183,0.7203,0.7188,0.7196,0.718,0.7186,0.7227,0.7332,0.7561,0.7991,0.7639,0.7374,0.7389,0.9837,1.9319,3.6934,3.7497,3.9499,4.3709,4.3756,4.3403,4.2728,3.8555,3.6557,3.6557,3.6557,3.6907,3.7467,3.6802,3.6649,3.6771,3.6777,3.6795,3.6795,3.6795,3.6763,3.6889,3.7918,3.7656,3.6773,3.6773,3.7422,3.8114,3.7112,3.6795,3.6795,3.6795,3.6795,3.6795,3.6795,3.6795,3.6882,3.7325,3.7609,3.7791,3.7805,3.7783,3.7878,3.8204,3.8313,3.8313,3.8313,3.8313,3.8313,3.8313,3.831,3.8415,3.8653,3.8729,3.887,3.9147,3.9315,3.9416,3.9455,3.9416,3.9324,3.9147,3.9077,3.8976,3.8729,3.8729,3.8623,3.8415,3.339,2.8504,2.411,1.8196,1.3014,0.8606,0.7933,0.7579,0.7579,0.7579,0.7579,0.6582,0.6651,0.6696,0.6696,0.6696,0.6704,0.6704,0.6694,0.6741,0.6794,0.6751,0.0,0.6802,0.6813,0.6821,0.0,0.0,0.0,0.6979,0.697,0.7032,0.0,0.7184,0.0,0.7294,0.7349,0.7383,0.0,0.7383,0.7375,0.7374,0.7397,1.131,1.9915,3.0823,3.7553,3.9681,3.9681,3.9681,3.9654,3.757,3.6557,3.6555,3.6557,3.6557,3.6555,3.6548,3.6557,3.6555,3.6544,3.6555,3.6555,3.6555,3.6532,3.6618,3.7119,3.6974,3.6548,3.6548,3.687,3.7223,3.6726,3.6555,3.6555,3.6555,3.6555,3.6555,3.6555,3.6555,3.668,3.7194,3.7348,3.7386,3.746,3.7496,3.7575,3.7908,3.7974,3.8043,3.8244,3.8313,3.8313,3.8313,3.8313,3.8339,3.8455,3.8587,3.8663,3.8653,3.8729,3.8804,3.8804,3.8804,3.8755,3.8653,3.8653,3.8587,3.8481,3.8485,3.7101,3.405,2.9017,2.383,1.8687,1.3515,0.9805,0.7571,0.7574,0.759,0.759,0.759,0.759,0.6515,0.6568,0.6572,0.6601,0.6609,0.6606,0.6565,0.6659,0.6748,0.6709,0.6706,0.6709,0.0,0.0,0.0,0.6794,0.6816,0.0,0.6809,0.6795,0.0,0.7067,0.0,0.721,0.7274,0.7349,0.0,0.7285,0.7341,0.7377,0.7389,0.7397,0.7389,0.7399,2.6344,3.6548,3.6555,3.6545,3.6545,3.6557,3.6557,3.6557,3.6555,3.6555,3.6555,3.6555,3.6555,3.6555,3.6555,3.6555,3.6555,3.6555,3.6555,3.6546,3.6546,3.6537,3.6546,3.6544,3.6544,3.6557,3.6555,3.6555,3.6555,3.6555,3.6555,3.6555,3.6555,3.6555,3.6555,3.6651,3.7032,3.7041,3.6993,3.7185,3.7222,3.7288,3.7575,3.7612,3.7678,3.7977,3.8112,3.8148,3.8148,3.8244,3.8313,3.8313,3.8485,3.8481,3.8175,3.8244,3.8313,3.8313,3.8313,3.8313,3.8313,3.8313,3.8244,3.8148,3.8148,3.6387,3.2426,2.6174,2.0947,1.7067,1.0756,0.7539,0.7539,0.7526,0.7518,0.7518,0.7518,0.7518,0.6379,0.6421,0.6458,0.657,0.6599,0.6586,0.6451,0.6536,0.6589,0.6456,0.6443,0.6462,0.0,0.0,0.6663,0.6776,0.6808,0.6802,0.6801,0.6802,0.6823,0.0,0.0,0.0,0.0,0.0,0.0,0.7048,0.7244,0.7384,0.7392,0.7383,0.7382,0.7389,2.6363,3.6555,3.6546,3.6538,3.6555,3.6555,3.6555,3.6555,3.6555,3.6555,3.6555,3.6555,3.6555,3.6555,3.6555,3.6555,3.6555,3.6555,3.6555,3.6555,3.6538,3.6555,3.6555,3.6538,3.6538,3.6555,3.6555,3.6555,3.6555,3.6555,3.6555,3.6555,3.6555,3.6555,3.6555,3.6555,3.6595,3.6595,3.6633,3.6879,3.6945,3.7011,3.7288,3.7325,3.7325,3.7354,3.7575,3.7744,3.7744,3.804,3.8313,3.8313,3.8313,3.8178,3.7783,3.804,3.8313,3.8313,3.8313,3.8313,3.8313,3.8313,3.8138,3.7773,3.7744,3.7512,3.6976,2.7583,2.2255,2.1993,1.2378,0.7396,0.7396,0.7393,0.7395,0.7395,0.7395,0.7395,0.6246,0.63,0.6321,0.6447,0.6487,0.6492,0.6534,0.6584,0.6583,0.655,0.6539,0.6534,0.649,0.6487,0.6508,0.6546,0.6614,0.6685,0.6689,0.6749,0.6802,0.6801,0.6951,0.704,0.0,0.0,0.7108,0.7011,0.7094,0.7203,0.7378,0.7377,0.7398,0.7392,1.4163,2.3827,3.6433,3.6548,3.6537,3.6555,3.6555,3.6555,3.6555,3.6555,3.6555,3.6555,3.6555,3.6555,3.6555,3.6555,3.6555,3.6555,3.6555,3.6555,3.6555,3.6555,3.6555,3.6555,3.6555,3.6555,3.6555,3.6555,3.6555,3.6555,3.6555,3.6555,3.6555,3.6555,3.6555,3.6555,3.6555,3.6555,3.6567,3.6659,3.667,3.6765,3.7013,3.7079,3.7117,3.7288,3.7404,3.747,3.747,3.7565,3.766,3.766,3.766,3.7605,3.747,3.7565,3.766,3.766,3.7832,3.7842,3.77,3.7832,3.7773,3.747,3.747,3.5972,3.2608,2.5954,2.0811,1.755,1.0841,0.7393,0.7393,0.7374,0.739,0.739,0.739,0.739,0.607,0.6126,0.6164,0.6251,0.6327,0.6377,0.6449,0.6471,0.6478,0.6488,0.6481,0.6442,0.6377,0.6388,0.6426,0.6426,0.6474,0.656,0.6593,0.6654,0.6699,0.6741,0.6904,0.7006,0.6999,0.6911,0.6904,0.6997,0.6991,0.7074,0.7261,0.7259,0.7267,0.7252,0.735,1.362,2.6603,3.3244,3.6557,3.6534,3.6557,3.6555,3.6555,3.6555,3.6555,3.6555,3.6555,3.6555,3.6555,3.6555,3.6555,3.6555,3.6555,3.6555,3.6555,3.6555,3.6555,3.6555,3.6555,3.6555,3.6555,3.6555,3.6545,3.6535,3.6557,3.6545,3.6535,3.6557,3.6555,3.6555,3.6555,3.6555,3.6555,3.6555,3.6555,3.6593,3.6765,3.6802,3.6842,3.7011,3.7117,3.7183,3.7183,3.7262,3.7328,3.7328,3.7328,3.7288,3.7211,3.7262,3.7354,3.7431,3.7612,3.7639,3.747,3.7612,3.7575,3.7193,3.5616,3.3166,2.9671,2.3239,1.814,1.4775,0.9873,0.739,0.739,0.739,0.739,0.739,0.739,0.739,0.5819,0.5932,0.6008,0.6023,0.6119,0.6202,0.6225,0.6208,0.6226,0.6226,0.6229,0.6229,0.6229,0.6323,0.6412,0.6415,0.6413,0.6449,0.658,0.6485,0.6467,0.6605,0.6821,0.6988,0.6988,0.6749,0.6701,0.6967,0.6992,0.6978,0.6998,0.6996,0.6981,0.7012,0.7238,0.7379,0.7379,2.6185,3.593,3.6531,3.6535,3.6557,3.6557,3.6557,3.6557,3.6555,3.6555,3.6555,3.6555,3.6555,3.6555,3.6555,3.6555,3.6555,3.6555,3.6557,3.6557,3.6557,3.6557,3.6557,3.6557,3.6557,3.6553,3.6548,3.6506,3.6525,3.6548,3.6545,3.6555,3.6555,3.6555,3.6555,3.6555,3.6555,3.6555,3.6555,3.6555,3.6555,3.6555,3.6555,3.6736,3.6919,3.6919,3.7117,3.7288,3.7288,3.7288,3.7193,3.6974,3.7156,3.7433,3.7678,3.7718,3.7718,3.7675,3.7675,3.7409,3.6774,3.2199,2.9363,2.8979,1.9681,1.4567,1.4567,0.9837,0.739,0.739,0.7382,0.7382,0.7382,0.7382,0.7382,0.5801,0.0,0.0,0.5867,0.5907,0.597,0.607,0.6084,0.6097,0.6212,0.6227,0.6218,0.6227,0.6257,0.6281,0.6272,0.6352,0.6422,0.6463,0.6516,0.6568,0.6618,0.667,0.6717,0.6726,0.6642,0.6639,0.6718,0.6709,0.6797,0.6989,0.6823,0.6802,0.6999,0.7067,0.7107,0.7101,1.2442,2.2367,3.6543,3.6543,3.6543,3.6543,3.6543,3.6554,3.6531,3.6531,3.6553,3.6555,3.6555,3.6555,3.6555,3.6555,3.6555,3.6557,3.6538,3.6543,3.6543,3.6543,3.6543,3.6543,3.6543,3.6555,3.6398,3.5528,3.5856,3.6534,3.6557,3.6555,3.6555,3.6555,3.6555,3.6555,3.6555,3.6555,3.6555,3.6555,3.6555,3.6555,3.6555,3.6593,3.6659,3.6659,3.6727,3.6765,3.6765,3.6765,3.6804,3.6908,3.6985,3.7145,3.7404,3.7602,3.7641,3.7431,3.7431,3.5746,3.1839,3.0119,2.7669,2.4093,1.7924,1.4567,1.4567,0.9752,0.724,0.724,0.7252,0.7259,0.7259,0.7259,0.7257,0.5475,0.0,0.0,0.0,0.5589,0.5642,0.5826,0.5866,0.5934,0.6184,0.6175,0.6142,0.6135,0.6191,0.6228,0.0,0.6272,0.6362,0.641,0.6422,0.6453,0.6446,0.6433,0.6491,0.661,0.6616,0.662,0.662,0.6597,0.6681,0.6839,0.6678,0.667,0.6842,0.6952,0.6992,0.6991,0.6998,1.6704,3.5799,3.5807,3.5819,3.5806,3.5806,3.5802,3.5851,3.6335,3.6554,3.656,3.656,3.656,3.656,3.656,3.656,3.6493,3.6007,3.5795,3.5812,3.5807,3.5795,3.5812,3.5807,3.5819,3.579,3.559,3.6001,3.6554,3.6548,3.656,3.656,3.6553,3.6411,3.6355,3.6487,3.6555,3.6555,3.6555,3.6555,3.6555,3.6555,3.6555,3.6555,3.6555,3.6555,3.6555,3.6555,3.6633,3.6765,3.6908,3.7011,3.7156,3.7288,3.7575,3.68,3.4512,3.4172,3.1872,2.6716,2.4305,2.1813,1.8984,1.4127,1.1489,1.1489,0.8618,0.7112,0.7112,0.7106,0.712,0.712,0.712,0.7072,0.4991,0.0,0.0,0.515,0.5185,0.5263,0.0,0.0,0.5777,0.6123,0.6078,0.5989,0.6025,0.612,0.619,0.6191,0.6212,0.6257,0.6383,0.6305,0.6224,0.622,0.6217,0.6312,0.654,0.6574,0.6586,0.6611,0.6614,0.6596,0.6571,0.66,0.6608,0.6615,0.6824,0.6962,0.6967,0.6944,1.5278,3.1698,3.3795,3.4796,3.4797,3.4796,3.4796,3.4863,3.5905,3.6343,3.6343,3.6356,3.6356,3.6356,3.6356,3.6344,3.6223,3.5184,3.4782,3.4789,3.4627,3.4673,3.4789,3.4804,3.4794,3.499,3.6032,3.6347,3.6375,3.6496,3.6536,3.6508,3.642,3.6196,3.6052,3.6316,3.6423,3.6449,3.6461,3.6487,3.6487,3.6555,3.6555,3.6555,3.6555,3.6555,3.6555,3.6555,3.6765,3.6947,3.6974,3.7211,3.7394,3.7433,3.7641,3.57,3.0624,2.9289,2.6563,2.1511,1.7035,1.4323,1.3782,0.9529,0.7181,0.7181,0.7065,0.7012,0.7004,0.6969,0.6964,0.6983,0.6983,0.6897,0.0,0.0,0.0,0.0,0.0,0.0,0.0,0.0,0.5975,0.6055,0.5877,0.5773,0.5978,0.6048,0.6058,0.6055,0.6159,0.623,0.6252,0.6243,0.6209,0.6227,0.6219,0.6246,0.6284,0.6286,0.637,0.66,0.6603,0.651,0.6305,0.6488,0.6618,0.6613,0.6652,0.6681,0.6675,0.6688,0.8621,1.2579,2.762,3.4799,3.4799,3.4783,3.4807,3.4807,3.5017,3.5134,3.5134,3.5111,3.5132,3.5132,3.5132,3.5115,3.5102,3.4891,3.4797,3.4665,3.3714,3.4005,3.4784,3.4784,3.4786,3.4839,3.5078,3.5132,3.5334,3.6266,3.6551,3.6399,3.5765,3.579,3.5869,3.5553,3.5614,3.5823,3.6034,3.6072,3.6166,3.6487,3.6555,3.6555,3.6555,3.6555,3.6555,3.6555,3.6765,3.7013,3.7222,3.747,3.7747,3.8072,3.8168,3.6076,3.0873,2.6329,2.1627,1.6626,1.5213,1.2786,0.8788,0.7709,0.7204,0.7204,0.7072,0.6991,0.6999,0.6889,0.6849,0.6829,0.6829,0.6763,0.0,0.0,0.0,0.0,0.0,0.0,0.0,0.0,0.0,0.0,0.0,0.5136,0.0,0.0,0.5884,0.5998,0.6084,0.6148,0.6201,0.6233,0.6227,0.6225,0.6224,0.622,0.6221,0.6226,0.6285,0.641,0.6414,0.6406,0.6412,0.6543,0.6611,0.662,0.6597,0.6613,0.6615,0.6599,1.1127,2.0121,2.9477,3.4216,3.4796,3.4798,3.4799,3.4799,3.48,3.4786,3.4786,3.4798,3.4783,3.4744,3.4161,3.3912,3.3925,3.391,3.3909,3.3844,3.3245,3.3441,3.391,3.3925,3.3913,3.3926,3.3913,3.4335,3.4799,3.4799,3.4998,3.5131,3.4866,3.5079,3.5319,3.5049,3.5192,3.5376,3.5376,3.5469,3.5612,3.5813,3.609,3.626,3.626,3.6128,3.6088,3.6233,3.449,3.3249,3.3498,3.1655,3.0411,3.0591,3.062,2.9484,2.6659,2.1714,1.7616,1.4938,1.2315,0.9775,0.7307,0.7143,0.7095,0.7095,0.6978,0.6904,0.6904,0.6821,0.6776,0.6691,0.6633,0.6585,0.0,0.0,0.0,0.0,0.0,0.0,0.0,0.0,0.0,0.0,0.0,0.0,0.0,0.0,0.0,0.5904,0.5955,0.5999,0.6165,0.6181,0.6182,0.618,0.6193,0.6223,0.623,0.6216,0.6225,0.6225,0.6232,0.6317,0.6512,0.657,0.6599,0.6622,0.6598,0.6604,0.6614,0.6607,1.3775,2.7958,3.1413,0.0,3.4447,3.4462,3.4463,3.4463,3.4463,3.4463,3.4463,3.4463,3.4475,3.4341,3.3159,3.2852,3.3037,3.3048,3.3033,3.3047,3.3037,3.3049,3.3047,3.305,3.3037,3.3037,3.3049,3.3554,0.0,3.323,3.3348,3.3728,3.3939,3.4255,3.456,3.4533,3.4744,3.4889,3.4717,3.4916,3.5126,3.5165,3.5574,3.5901,3.5901,3.492,3.4225,3.4481,3.079,2.8359,2.9493,2.5688,2.2897,2.2901,2.289,2.2363,2.1039,1.7351,1.457,1.3274,0.9427,0.7175,0.7114,0.6999,0.6911,0.6911,0.6816,0.677,0.6757,0.677,0.6709,0.6567,0.6359,0.6286,0.0,0.0,0.0,0.0,0.0,0.0,0.0,0.0,0.0,0.0,0.0,0.0,0.0,0.0,0.0,0.0,0.569,0.576,0.6008,0.6059,0.6051,0.6044,0.6151,0.623,0.6221,0.6214,0.6226,0.6226,0.6228,0.6245,0.6258,0.6477,0.0,0.0,0.0,0.6602,0.6605,0.6622,0.7609,0.9766,2.5528,3.3115,3.3231,3.3232,3.3245,3.3245,3.3245,3.3245,3.3245,3.3245,3.3246,3.3114,3.1949,3.2127,3.3055,3.304,3.304,3.304,3.3042,0.0,0.0,3.3042,3.303,3.3059,3.3061,3.2395,3.1865,3.2811,3.3082,3.3134,3.3174,3.3462,3.3726,3.3622,3.3794,3.4045,3.4229,3.4585,3.4916,3.5154,3.5415,3.5612,3.5612,3.1952,2.9086,2.937,2.5748,2.4489,2.8683,2.5438,2.2769,2.2745,2.2753,0.0,1.6195,1.5299,1.306,0.8478,0.7555,0.7087,0.6855,0.6734,0.6644,0.6644,0.6627,0.6642,0.6641,0.6642,0.656,0.6413,0.5954,0.5861,0.0,0.0,0.0,0.0,0.0,0.0,0.0,0.0,0.0,0.0,0.0,0.0,0.0,0.0,0.0,0.0,0.5404,0.54,0.5363,0.5468,0.5579,0.557,0.5745,0.5889,0.589,0.5883,0.594,0.6105,0.6105,0.6147,0.6206,0.6317,0.6396,0.6377,0.638,0.6393,0.6391,0.6535,0.6614,0.6828,2.4559,3.3049,3.3031,3.3049,3.305,3.3036,3.3036,3.3036,3.3036,3.3036,3.3032,3.2936,0.0,0.0,0.0,0.0,3.2045,3.2045,3.2045,3.2045,3.2045,3.2045,3.2045,3.2032,3.203,3.1686,3.1554,3.2727,3.3034,3.2954,3.2564,3.2882,3.3212,3.2938,3.3241,3.3518,3.3255,3.3623,3.3926,3.3636,3.4229,0.0,3.4585,3.2839,3.0705,2.8472,2.4204,2.1114,2.0744,1.6671,1.3805,1.3805,1.3813,1.2932,1.0739,1.0506,0.0,0.0,0.0,0.7007,0.6816,0.6755,0.0,0.0,0.0,0.6276,0.6275,0.6105,0.0,0.0,0.5709,0.5613,0.0,0.0,0.0,0.0,0.0,0.0,0.0,0.0,0.0,0.0,0.0,0.0,0.0,0.0,0.0,0.0,0.0,0.5153,0.4896,0.5031,0.5132,0.514,0.5369,0.5536,0.5535,0.553,0.5635,0.5905,0.5927,0.6008,0.6216,0.6209,0.6209,0.6208,0.6211,0.6209,0.6231,0.6406,0.6507,0.666,1.9534,2.5681,2.5836,3.0454,3.2559,3.2555,3.2555,3.2555,3.2555,3.2555,3.2551,3.2482,3.1639,3.1284,3.1294,3.1292,3.1289,3.1289,3.1289,3.1289,3.1302,3.1307,3.1308,3.1307,3.1287,3.1297,3.1503,3.2489,3.2774,3.2679,3.2194,3.2411,3.2713,3.2413,3.2702,3.2938,3.2533,3.2899,3.3201,3.2807,3.3203,3.279,3.0179,2.9795,2.8508,2.4507,1.9859,1.6219,1.4619,1.0226,0.7301,0.7317,0.7301,0.7301,0.7317,0.7209,0.7132,0.7134,0.702,0.6903,0.6816,0.6723,0.6645,0.6499,0.623,0.6037,0.0,0.0,0.0,0.0,0.0,0.0,0.0,0.0,0.0,0.0,0.0,0.0,0.0,0.0,0.0,0.0,0.0,0.0,0.0,0.0,0.0,0.0,0.0,0.0,0.4894,0.4872,0.4869,0.4877,0.5099,0.5253,0.5258,0.5266,0.5361,0.5636,0.5658,0.5814,0.62,0.6227,0.621,0.6212,0.6217,0.6225,0.6219,0.6221,0.6242,0.6233,0.6794,0.7052,0.7611,2.394,3.1348,3.1348,3.1348,3.1348,3.1348,3.1348,3.1342,3.1349,3.1325,3.1296,3.1306,3.1296,3.1309,3.1309,3.1309,3.1309,3.1303,3.1288,3.1296,3.1302,3.1293,3.1303,3.1416,3.1956,3.2106,3.2095,3.207,3.2108,3.2083,3.2083,3.2096,3.2175,3.2401,3.278,3.3121,3.3371,3.2714,2.9408,2.0797,1.963,1.8548,1.4649,1.0164,0.0,1.3441,0.9919,0.7044,0.7183,0.7087,0.7072,0.7183,0.7079,0.7012,0.7012,0.6877,0.6815,0.6807,0.6556,0.6358,0.6242,0.6225,0.6079,0.5828,0.0,0.0,0.0,0.0,0.0,0.0,0.0,0.0,0.0,0.0,0.0,0.0,0.0,0.0,0.0,0.0,0.0,0.0,0.0,0.0,0.0,0.0,0.0,0.0,0.0,0.479,0.4615,0.4611,0.4715,0.496,0.4998,0.5102,0.5365,0.5382,0.5516,0.5829,0.5844,0.5828,0.5838,0.6095,0.621,0.6209,0.6209,0.6212,0.6219,0.6227,1.2043,2.3041,2.8706,3.1291,3.1299,3.1306,3.1298,3.1284,3.1305,3.0838,3.0127,3.0139,3.0125,3.0125,3.0125,3.0129,3.0125,3.0125,3.014,3.0126,3.0139,3.0671,3.1286,3.1291,3.1293,3.1334,3.1516,3.1376,3.1201,3.1273,3.1552,3.1818,3.1818,3.1963,3.2068,3.1964,3.2187,3.233,3.2065,2.9538,2.5701,2.019,1.9431,1.8108,1.3859,1.1979,1.0622,0.9379,0.7937,0.7058,0.7175,0.7162,0.7134,0.7183,0.6984,0.6857,0.6871,0.6747,0.6625,0.6548,0.645,0.6403,0.6363,0.6256,0.5955,0.5453,0.0,0.0,0.0,0.0,0.0,0.0,0.0,0.0,0.0,0.0,0.0,0.0,0.0,0.0,0.0,0.0,0.0,0.0,0.0,0.0,0.0,0.0,0.0,0.0,0.0,0.0,0.4493,0.4358,0.0,0.4626,0.4648,0.4817,0.5216,0.5161,0.5233,0.5486,0.5491,0.551,0.5493,0.5833,0.6002,0.6009,0.6098,0.6142,0.6156,0.6142,1.1833,2.2355,2.2346,2.5635,3.1294,3.128,3.1059,3.0639,3.0241,2.9607,2.8931,2.8931,2.8929,2.8935,2.8917,2.8926,2.898,2.9401,2.956,2.9535,2.9541,3.0334,3.129,3.1298,3.0417,2.9487,2.9768,2.9762,2.9823,3.0408,3.0891,3.1188,3.1188,3.1423,3.1656,3.1566,3.1605,3.071,2.7417,2.462,2.1543,1.7616,1.7017,1.5592,1.1244,1.0701,0.9821,0.7096,0.6849,0.6971,0.7052,0.7059,0.7059,0.7059,0.6871,0.6728,0.672,0.6598,0.6512,0.6426,0.6411,0.6356,0.6207,0.6079,0.5761,0.0,0.0,0.0,0.0,0.0,0.0,0.0,0.0,0.0,0.0,0.0,0.0,0.0,0.0,0.0,0.0,0.0,0.0,0.0,0.0,0.0,0.0,0.0,0.0,0.0,0.0,0.0,0.4478,0.4361,0.0,0.0,0.0,0.0,0.5138,0.497,0.4944,0.5187,0.5229,0.5248,0.5219,0.5467,0.5611,0.5622,0.5854,0.5984,0.6009,0.6015,0.607,0.6199,0.6206,1.4935,3.0031,3.0047,2.9839,2.9452,2.8221,2.7701,2.769,2.7587,2.7519,2.753,2.7527,2.761,2.7879,2.9067,2.9404,2.9245,2.8557,2.9612,3.1136,3.1198,2.8741,0.0,0.0,2.736,2.7968,2.9196,2.9711,2.9925,2.9753,3.0007,3.035,3.0588,3.0456,2.7915,1.9864,1.8295,1.6952,1.2788,0.0,1.0738,0.6781,0.6324,0.6449,0.6604,0.6734,0.6802,0.6801,0.6801,0.6801,0.6801,0.6681,0.6607,0.6602,0.6493,0.6404,0.6415,0.6396,0.6204,0.582,0.5683,0.0,0.0,0.0,0.0,0.0,0.0,0.0,0.0,0.0,0.0,0.0,0.0,0.0,0.0,0.0,0.0,0.0,0.0,0.0,0.0,0.0,0.0,0.0,0.0,0.0,0.0,0.4402,0.4477,0.4477,0.4434,0.4308,0.0,0.0,0.0,0.0,0.0,0.0,0.4524,0.4985,0.5155,0.4971,0.5022,0.5161,0.5342,0.5419,0.5544,0.5742,0.5729,0.5761,0.5797,0.5985,0.8432,1.2493,1.2486,1.8982,2.9394,2.733,2.6497,2.6314,2.4573,2.388,2.3896,2.3899,2.4996,2.6679,2.784,2.7687,2.5277,1.5072,1.943,2.8845,2.9724,0.0,0.0,0.0,0.0,2.5787,2.4026,2.4127,2.4142,2.2007,2.1585,2.1681,2.1727,2.1704,2.0068,1.4654,1.3195,1.1619,0.7627,0.711,0.0,0.5928,0.6073,0.6345,0.6589,0.6733,0.6816,0.6802,0.6802,0.6802,0.6802,0.6776,0.6711,0.6623,0.6498,0.6385,0.6282,0.6073,0.5897,0.5694,0.0,0.0,0.0,0.0,0.0,0.0,0.0,0.0,0.0,0.0,0.0,0.0,0.0,0.0,0.0,0.0,0.0,0.0,0.0,0.0,0.0,0.0,0.0,0.0,0.0,0.0,0.0,0.3649,0.4364,0.4078,0.414,0.4089,0.0,0.0,0.0,0.0,0.0,0.0,0.0,0.0,0.0,0.4439,0.4604,0.4807,0.508,0.5085,0.5217,0.5458,0.5461,0.5466,0.5481,0.5747,0.5848,0.5863,0.5859,1.0827,1.9232,2.3529,2.1755,1.6212,0.0,0.0,0.0,0.0,2.2182,2.314,1.894,2.1249,2.4852,1.768,0.0,0.0,0.0,0.0,0.0,0.0,0.0,2.1233,2.1622,2.2245,2.236,2.0787,2.0423,2.0028,1.8517,1.542,1.2167,0.9555,0.871,0.7677,0.5377,0.5093,0.0,0.0,0.0,0.6153,0.6417,0.6653,0.6797,0.6797,0.6797,0.6797,0.6797,0.6743,0.6655,0.6536,0.6401,0.6256,0.6058,0.5859,0.5576,0.0,0.0,0.0,0.0,0.0,0.0,0.0,0.0,0.0,0.0,0.0,0.0,0.0,0.0,0.0,0.0,0.0,0.0,0.0,0.0,0.0,0.0,0.0,0.0,0.0,0.0,0.0,0.0,0.0,0.3668,0.3111,0.0,0.0,0.0,0.0,0.0,0.0,0.0,0.0,0.0,0.0,0.0,0.0,0.0,0.4502,0.4725,0.4731,0.4893,0.5204,0.5204,0.5205,0.5208,0.5435,0.553,0.5533,0.5528,0.0,0.6057,1.7075,0.0,0.0,0.0,0.0,0.0,0.0,0.0,0.0,0.0,0.0,0.0,0.0,0.0,0.0,0.0,0.0,0.0,0.0,0.0,0.0,0.0,0.0,2.1347,2.1872,2.1289,1.9782,1.6562,1.037,0.5338,0.5066,0.5057,0.5034,0.0,0.0,0.0,0.0,0.0,0.0,0.6163,0.6547,0.6791,0.6799,0.6791,0.6791,0.6799,0.6697,0.655,0.6422,0.6255,0.6047,0.5782,0.5619,0.0,0.0,0.0,0.0,0.0,0.0,0.0,0.0,0.0,0.0,0.0,0.0,0.0,0.0,0.0,0.0,0.0,0.0,0.0,0.0,0.0,0.0,0.0,0.0,0.0,0.0,0.0,0.0,0.0,0.0,0.0,0.0,0.0,0.0,0.0,0.0,0.0,0.0,0.0,0.0,0.0,0.0,0.0,0.0,0.0,0.0,0.0,0.0,0.0,0.0,0.493,0.4933,0.4931,0.4968,0.4996,0.4989,0.5,0.4972,0.5066,0.6746,0.0,0.0,0.0,0.0,0.0,0.0,0.0,0.0,0.0,0.0,0.0,0.0,0.0,0.0,0.0,0.0,0.0,0.0,0.0,0.0,0.0,0.0,1.3778,1.637,1.2646,0.7927,0.5821,0.0,0.0,0.0,0.0,0.0,0.0,0.0,0.0,0.0,0.0,0.0,0.6021,0.6412,0.6691,0.6794,0.6704,0.6693,0.6794,0.6683,0.6551,0.6417,0.6092,0.5783,0.0,0.0,0.0,0.0,0.0,0.0,0.0,0.0,0.0,0.0,0.0,0.0,0.0,0.0,0.0,0.0,0.0,0.0,0.0,0.0,0.0,0.0,0.0,0.0,0.0,0.0,0.0,0.0,0.0,0.0,0.0,0.0,0.0,0.0,0.0,0.0,0.0,0.0,0.0,0.0,0.0,0.0,0.0,0.0,0.0,0.0,0.0,0.0,0.0,0.0,0.0,0.0,0.0,0.0,0.0,0.0,0.0,0.0,0.4707,0.4667,0.0,0.0,0.0,0.0,0.0,0.0,0.0,0.0,0.0,0.0,0.0,0.0,0.0,0.0,0.0,0.0,0.0,0.0,0.0,0.0,0.0,0.0,0.0,0.0,0.0,0.0,0.0,0.0,0.0,0.0,0.0,0.0,0.0,0.0,0.0,0.0,0.0,0.0,0.0,0.0,0.5968,0.6374,0.6635,0.6693,0.6649,0.663,0.6705,0.6655,0.647,0.614,0.5877,0.0,0.0,0.0,0.0,0.0,0.0,0.0,0.0,0.0,0.0,0.0,0.0,0.0,0.0,0.0,0.0,0.0,0.0,0.0,0.0,0.0,0.0,0.0,0.0,0.0,0.0,0.0,0.0,0.0,0.0,0.0,0.0,0.0,0.0,0.0,0.0,0.0,0.0,0.0,0.0,0.0,0.0,0.0,0.0,0.0,0.0,0.0,0.0,0.0,0.0,0.0,0.0,0.0,0.0,0.0,0.0,0.0,0.0,0.0,0.3597,0.3534,0.0,0.0,0.0,0.0,0.0,0.0,0.0,0.0,0.0,0.0,0.0,0.0,0.0,0.0,0.0,0.0,0.0,0.0,0.0,0.0,0.0,0.0,0.0,0.0,0.0,0.0,0.0,0.0,0.0,0.0,0.0,0.0,0.0,0.0,0.0,0.0,0.0,0.0,0.0,0.0,0.5966,0.6354,0.6579,0.6599,0.6583,0.6585,0.6615,0.6591,0.6355,0.5872,0.5635,0.0,0.0,0.0,0.0,0.0,0.0,0.0,0.0,0.0,0.0,0.0,0.0,0.0,0.0,0.0,0.0,0.0,0.0,0.0,0.0,0.0,0.0,0.0,0.0,0.0,0.0,0.0,0.0,0.0,0.0,0.0,0.0,0.0,0.0,0.0,0.0,0.0,0.0,0.0,0.0,0.0,0.0,0.0,0.0,0.0,0.0,0.0,0.0,0.0,0.0,0.0,0.0,0.0,0.0,0.0,0.0,0.0,0.0,0.0,0.0,0.0,0.0,0.0,0.0,0.0,0.0,0.0,0.0,0.0,0.0,0.0,0.0,0.0,0.0,0.0,0.0,0.0,0.0,0.0,0.0,0.0,0.0,0.0,0.0,0.0,0.0,0.0,0.0,0.0,0.0,0.0,0.0,0.0,0.0,0.0,0.0,0.0,0.0,0.0,0.0,0.0,0.5997,0.6268,0.648,0.6594,0.6509,0.6488,0.6588,0.6499,0.6261,0.5847,0.0,0.0,0.0,0.0,0.0,0.0,0.0,0.0,0.0,0.0,0.0,0.0,0.0,0.0,0.0,0.0,0.0,0.0,0.0,0.0,0.0,0.0,0.0,0.0,0.0,0.0,0.0,0.0,0.0,0.0,0.0,0.0,0.0,0.0,0.0,0.0,0.0,0.0,0.0,0.0,0.0,0.0,0.0,0.0,0.0,0.0,0.0,0.0,0.0,0.0,0.0,0.0,0.0,0.0,0.0,0.0,0.0,0.0,0.0,0.0,0.0,0.0,0.0,0.0,0.0,0.0,0.0,0.0,0.0,0.0,0.0,0.0,0.0,0.0,0.0,0.0,0.0,0.0,0.0,0.0,0.0,0.0,0.0,0.0,0.0,0.0,0.0,0.0,0.0,0.0,0.0,0.0,0.0,0.0,0.0,0.0,0.0,0.0,0.0,0.0,0.0,0.0,0.5851,0.6261,0.646,0.659,0.6506,0.6394,0.6371,0.6326,0.6108,0.5635,0.0,0.0,0.0,0.0,0.0,0.0,0.0,0.0,0.0,0.0,0.0,0.0,0.0,0.0,0.0,0.0,0.0,0.0,0.0,0.0,0.0,0.0,0.0,0.0,0.0,0.0,0.0,0.0,0.0,0.0,0.0,0.0,0.0,0.0,0.0,0.0,0.0,0.0,0.0,0.0,0.0,0.0,0.0,0.0,0.0,0.0,0.0,0.0,0.0,0.0,0.0,0.0,0.0,0.0,0.0,0.0,0.0,0.0,0.0,0.0,0.0,0.0,0.0,0.0,0.0,0.0,0.0,0.0,0.0,0.0,0.0,0.0,0.0,0.0,0.0,0.0,0.0,0.0,0.0,0.0,0.0,0.0,0.0,0.0,0.0,0.0,0.0,0.0,0.0,0.0,0.0,0.0,0.0,0.0,0.0,0.0,0.0,0.0,0.0,0.0,0.0,0.0,0.5913,0.627,0.6438,0.653,0.6439,0.6323,0.6239,0.6184,0.5948,0.5414,0.0,0.0,0.0,0.0,0.0,0.0,0.0,0.0,0.0,0.0,0.0,0.0,0.0,0.0,0.0,0.0,0.0,0.0,0.0,0.0,0.0,0.0,0.0,0.0,0.0,0.0,0.0,0.0,0.0,0.0,0.0,0.0,0.0,0.0,0.0,0.0,0.0,0.0,0.0,0.0,0.0,0.0,0.0,0.0,0.0,0.0,0.0,0.0,0.0,0.0,0.0,0.0,0.0,0.0,0.0,0.0,0.0,0.0,0.0,0.0,0.0,0.0,0.0,0.0,0.0,0.0,0.0,0.0,0.0,0.0,0.0,0.0,0.0,0.0,0.0,0.0,0.0,0.0,0.0,0.0,0.0,0.0,0.0,0.0,0.0,0.0,0.0,0.0,0.0,0.0,0.0,0.0,0.0,0.0,0.0,0.0,0.0,0.0,0.0,0.0,0.0,0.0,0.6207,0.6325,0.6408,0.642,0.6298,0.6212,0.6212,0.61,0.5797,0.0,0.0,0.0,0.0,0.0,0.0,0.0,0.0,0.0,0.0,0.0,0.0,0.0,0.0,0.0,0.0,0.0,0.0,0.0,0.0,0.0,0.0,0.0,0.0,0.0,0.0,0.0,0.0,0.0,0.0,0.0,0.0,0.0,0.0,0.0,0.0,0.0,0.0,0.0,0.0,0.0,0.0,0.0,0.0,0.0,0.0,0.0,0.0,0.0,0.0,0.0,0.0,0.0,0.0,0.0,0.0,0.0,0.0,0.0,0.0,0.0,0.0,0.0,0.0,0.0,0.0,0.0,0.0,0.0,0.0,0.0,0.0,0.0,0.0,0.0,0.0,0.0,0.0,0.0,0.0,0.0,0.0,0.0,0.0,0.0,0.0,0.0,0.0,0.0,0.0,0.0,0.0,0.0,0.0,0.0,0.0,0.0,0.0,0.0,0.0,0.0,0.0,0.0,0.6087,0.6371,0.5735,0.0,0.4124,0.4049,0.3975,0.3915,0.3269,0.1763,0.0,0.0,0.0,0.0,0.0,0.0,0.0,0.0,0.0,0.0,0.0,0.0,0.0,0.0,0.0,0.0,0.0,0.0,0.0,0.0,0.0,0.0,0.0,0.0,0.0,0.0,0.0,0.0,0.0,0.0,0.0,0.0,0.0,0.0,0.0,0.0,0.0,0.0,0.0,0.0,0.0,0.0,0.0,0.0,0.0,0.0,0.0,0.0,0.0,0.0,0.0,0.0,0.0,0.0,0.0,0.0,0.0,0.0,0.0,0.0,0.0,0.0,0.0,0.0,0.0,0.0,0.0,0.0,0.0,0.0,0.0,0.0,0.0,0.0,0.0,0.0,0.0,0.0,0.0,0.0,0.0,0.0,0.0,0.0,0.0,0.0,0.0,0.0,0.0,0.0,0.0,0.0,0.0,0.0,0.0,0.0,0.0,0.0,0.0,0.0,0.0,0.0,0.0,0.3986,0.3369,0.0,0.1946,0.1902,0.1829,0.1829,0.1305,0.0077,0.0,0.0,0.0,0.0,0.0,0.0,0.0,0.0,0.0,0.0,0.0,0.0,0.0,0.0,0.0,0.0,0.0,0.0,0.0,0.0,0.0,0.0,0.0,0.0,0.0,0.0,0.0,0.0,0.0,0.0,0.0,0.0,0.0,0.0,0.0,0.0,0.0,0.0,0.0,0.0,0.0,0.0,0.0,0.0,0.0,0.0,0.0,0.0,0.0,0.0,0.0,0.0,0.0,0.0,0.0,0.0,0.0,0.0,0.0,0.0,0.0,0.0,0.0,0.0,0.0,0.0,0.0,0.0,0.0,0.0,0.0,0.0,0.0,0.0,0.0,0.0,0.0,0.0,0.0,0.0,0.0,0.0,0.0,0.0,0.0,0.0,0.0,0.0,0.0,0.0,0.0,0.0,0.0,0.0,0.0,0.0,0.0,0.0,0.0,0.0,0.0,0.0,0.0,0.0,0.0,0.0,0.0,0.0,0.0,0.0,0.0,0.0,0.0,0.0,0.0,0.0,0.0,0.0,0.0,0.0,0.0,0.0,0.0,0.0,0.0,0.0,0.0,0.0,0.0,0.0,0.0,0.0,0.0,0.0,0.0,0.0,0.0,0.0,0.0,0.0,0.0,0.0,0.0,0.0,0.0,0.0,0.0,0.0,0.0,0.0,0.0,0.0,0.0,0.0,0.0,0.0,0.0,0.0,0.0,0.0,0.0,0.0,0.0,0.0,0.0,0.0,0.0,0.0,0.0,0.0,0.0,0.0,0.0,0.0,0.0,0.0,0.0,0.0,0.0,0.0,0.0,0.0,0.0,0.0,0.0,0.0,0.0,0.0,0.0,0.0,0.0,0.0,0.0,0.0,0.0,0.0,0.0,0.0,0.0,0.0,0.0,0.0,0.0,0.0,0.0,0.0,0.0,0.0,0.0,0.0,0.0,0.0,0.0,0.0,0.0,0.0,0.0,0.0,0.0,0.0,0.0,0.0,0.0,0.0,0.0,0.0,0.0,0.0,0.0,0.0,0.0,0.0,0.0,0.0,0.0,0.0,0.0,0.0,0.0,0.0,0.0,0.0,0.0,0.0,0.0,0.0,0.0,0.0,0.0,0.0,0.0,0.0,0.0,0.0,0.0,0.0,0.0,0.0,0.0,0.0,0.0,0.0,0.0,0.0,0.0,0.0,0.0,0.0,0.0,0.0,0.0,0.0,0.0,0.0,0.0,0.0,0.0,0.0,0.0,0.0,0.0,0.0,0.0,0.0,0.0,0.0,0.0,0.0,0.0,0.0,0.0,0.0,0.0,0.0,0.0,0.0,0.0,0.0,0.0,0.0,0.0,0.0,0.0,0.0,0.0,0.0,0.0,0.0,0.0,0.0,0.0,0.0,0.0,0.0,0.0,0.0,0.0,0.0,0.0,0.0,0.0,0.0,0.0,0.0,0.0,0.0,0.0,0.0,0.0,0.0,0.0,0.0,0.0,0.0,0.0,0.0,0.0,0.0,0.0,0.0,0.0,0.0,0.0,0.0,0.0,0.0,0.0,0.0,0.0,0.0,0.0,0.0,0.0,0.0,0.0,0.0,0.0,0.0,0.0,0.0,0.0,0.0,0.0,0.0,0.0,0.0,0.0,0.0,0.0,0.0,0.0,0.0,0.0,0.0,0.0,0.0,0.0,0.0,0.0,0.0,0.0,0.0,0.0,0.0,0.0,0.0,0.0,0.0,0.0,0.0,0.0,0.0,0.0,0.0,0.0,0.0,0.0,0.0,0.0,0.0,0.0,0.0,0.0,0.0,0.0,0.0,0.0,0.0,0.0,0.0,0.0,0.0,0.0,0.0,0.0,0.0,0.0,0.0,0.0,0.0,0.0,0.0,0.0,0.0,0.0,0.0,0.0,0.0,0.0,0.0,0.0,0.0,0.0,0.0,0.0,0.0,0.0,0.0,0.0,0.0,0.0,0.0,0.0,0.0,0.0,0.0,0.0,0.0,0.0,0.0,0.0,0.0,0.0,0.0,0.0,0.0,0.0,0.0,0.0,0.0,0.0,0.0,0.0,0.0,0.0,0.0,0.0,0.0,0.0,0.0,0.0,0.0,0.0,0.0,0.0,0.0,0.0,0.0,0.0,0.0,0.0,0.0,0.0,0.0,0.0,0.0,0.0,0.0,0.0,0.0,0.0,0.0,0.0,0.0,0.0,0.0,0.0,0.0,0.0,0.0,0.0,0.0,0.0,0.0,0.0,0.0,0.0,0.0,0.0,0.0,0.0,0.0,0.0,0.0,0.0,0.0,0.0,0.0,0.0,0.0,0.0,0.0,0.0,0.0,0.0,0.0,0.0,0.0,0.0,0.0,0.0,0.0,0.0,0.0,0.0,0.0,0.0,0.0,0.0,0.0,0.0,0.0,0.0,0.0,0.0,0.0,0.0,0.0,0.0,0.0,0.0,0.0,0.0,0.0,0.0,0.0,0.0,0.0,0.0,0.0,0.0,0.0,0.0,0.0,0.0,0.0,0.0,0.0,0.0,0.0,0.0,0.0,0.0,0.0]}]]]